<?xml version="1.0" encoding="UTF-8" standalone="no" ?>
<gpx xmlns="http://www.topografix.com/GPX/1/1" xmlns:xsi="http://www.w3.org/2001/XMLSchema-instance" xsi:schemaLocation="http://www.topografix.com/GPX/1/1 http://www.topografix.com/GPX/1/1/gpx.xsd" version="1.1" creator="VisuGPX - https://www.visugpx.com">
  <metadata>
    <name>Tournai-Mortagne du Nord par les chemins de halage</name>
    <desc><![CDATA[Sans réel difficulté technique ou physique, ce parcours suit plus ou moins l'Escaut depuis Tournai (Belgique) jusqu'à Mortagne du Nord (France) en empruntant essentiellement chemins de halage ainsi que des sentiers herbeux. 
Vous serez à l'abri des voitures, dans la nature et la paix ! :-)
Attention : si vous empruntez ce circuit en plein milieu d'un été ou il a bien plu, certaines parties du circuit risque d'être un peu plus difficile en raison d'herbes hautes ! ]]></desc>
  </metadata>
  <trk>
    <name><![CDATA[Parcours du 2017-09-17 11:10]]></name>
    <desc><![CDATA[]]></desc>
    <trkseg>
      <trkpt lat="50.60831" lon="3.39076">
        <ele>58</ele>
        <time>2017-09-17T09:11:18.000Z</time>
      </trkpt>
      <trkpt lat="50.60829" lon="3.39083">
        <ele>58</ele>
        <time>2017-09-17T09:11:25.000Z</time>
      </trkpt>
      <trkpt lat="50.60793" lon="3.39109">
        <ele>58</ele>
        <time>2017-09-17T09:12:03.000Z</time>
      </trkpt>
      <trkpt lat="50.60775" lon="3.39125">
        <ele>60</ele>
        <time>2017-09-17T09:12:08.000Z</time>
      </trkpt>
      <trkpt lat="50.60759" lon="3.39144">
        <ele>63</ele>
        <time>2017-09-17T09:12:12.000Z</time>
      </trkpt>
      <trkpt lat="50.60748" lon="3.39158">
        <ele>60</ele>
        <time>2017-09-17T09:12:15.000Z</time>
      </trkpt>
      <trkpt lat="50.60736" lon="3.39183">
        <ele>59</ele>
        <time>2017-09-17T09:12:20.000Z</time>
      </trkpt>
      <trkpt lat="50.60717" lon="3.39204">
        <ele>58</ele>
        <time>2017-09-17T09:12:27.000Z</time>
      </trkpt>
      <trkpt lat="50.60697" lon="3.39232">
        <ele>62</ele>
        <time>2017-09-17T09:12:33.000Z</time>
      </trkpt>
      <trkpt lat="50.60676" lon="3.3925">
        <ele>57</ele>
        <time>2017-09-17T09:12:39.000Z</time>
      </trkpt>
      <trkpt lat="50.60664" lon="3.39267">
        <ele>57</ele>
        <time>2017-09-17T09:12:42.000Z</time>
      </trkpt>
      <trkpt lat="50.60654" lon="3.3928">
        <ele>57</ele>
        <time>2017-09-17T09:12:45.000Z</time>
      </trkpt>
      <trkpt lat="50.60644" lon="3.3929">
        <ele>58</ele>
        <time>2017-09-17T09:12:48.000Z</time>
      </trkpt>
      <trkpt lat="50.60634" lon="3.39315">
        <ele>59</ele>
        <time>2017-09-17T09:12:52.000Z</time>
      </trkpt>
      <trkpt lat="50.6062" lon="3.39334">
        <ele>53</ele>
        <time>2017-09-17T09:12:57.000Z</time>
      </trkpt>
      <trkpt lat="50.60611" lon="3.39345">
        <ele>52</ele>
        <time>2017-09-17T09:13:00.000Z</time>
      </trkpt>
      <trkpt lat="50.606" lon="3.39383">
        <ele>54</ele>
        <time>2017-09-17T09:13:04.000Z</time>
      </trkpt>
      <trkpt lat="50.60586" lon="3.39411">
        <ele>50</ele>
        <time>2017-09-17T09:13:09.000Z</time>
      </trkpt>
      <trkpt lat="50.60579" lon="3.3943">
        <ele>53</ele>
        <time>2017-09-17T09:13:12.000Z</time>
      </trkpt>
      <trkpt lat="50.60572" lon="3.39447">
        <ele>55</ele>
        <time>2017-09-17T09:13:15.000Z</time>
      </trkpt>
      <trkpt lat="50.60555" lon="3.39479">
        <ele>55</ele>
        <time>2017-09-17T09:13:21.000Z</time>
      </trkpt>
      <trkpt lat="50.60548" lon="3.39497">
        <ele>57</ele>
        <time>2017-09-17T09:13:24.000Z</time>
      </trkpt>
      <trkpt lat="50.6054" lon="3.39515">
        <ele>56</ele>
        <time>2017-09-17T09:13:27.000Z</time>
      </trkpt>
      <trkpt lat="50.60524" lon="3.39546">
        <ele>57</ele>
        <time>2017-09-17T09:13:33.000Z</time>
      </trkpt>
      <trkpt lat="50.60514" lon="3.39558">
        <ele>57</ele>
        <time>2017-09-17T09:13:36.000Z</time>
      </trkpt>
      <trkpt lat="50.60505" lon="3.39568">
        <ele>57</ele>
        <time>2017-09-17T09:13:39.000Z</time>
      </trkpt>
      <trkpt lat="50.60497" lon="3.39582">
        <ele>57</ele>
        <time>2017-09-17T09:13:42.000Z</time>
      </trkpt>
      <trkpt lat="50.60489" lon="3.39597">
        <ele>57</ele>
        <time>2017-09-17T09:13:45.000Z</time>
      </trkpt>
      <trkpt lat="50.60479" lon="3.39618">
        <ele>58</ele>
        <time>2017-09-17T09:13:48.000Z</time>
      </trkpt>
      <trkpt lat="50.60457" lon="3.3965">
        <ele>60</ele>
        <time>2017-09-17T09:13:54.000Z</time>
      </trkpt>
      <trkpt lat="50.60434" lon="3.39669">
        <ele>59</ele>
        <time>2017-09-17T09:14:00.000Z</time>
      </trkpt>
      <trkpt lat="50.60421" lon="3.39679">
        <ele>59</ele>
        <time>2017-09-17T09:14:03.000Z</time>
      </trkpt>
      <trkpt lat="50.60409" lon="3.39686">
        <ele>59</ele>
        <time>2017-09-17T09:14:06.000Z</time>
      </trkpt>
      <trkpt lat="50.60386" lon="3.3971">
        <ele>60</ele>
        <time>2017-09-17T09:14:12.000Z</time>
      </trkpt>
      <trkpt lat="50.60375" lon="3.3972">
        <ele>61</ele>
        <time>2017-09-17T09:14:15.000Z</time>
      </trkpt>
      <trkpt lat="50.60352" lon="3.39738">
        <ele>60</ele>
        <time>2017-09-17T09:14:21.000Z</time>
      </trkpt>
      <trkpt lat="50.60339" lon="3.39753">
        <ele>61</ele>
        <time>2017-09-17T09:14:24.000Z</time>
      </trkpt>
      <trkpt lat="50.60328" lon="3.39766">
        <ele>61</ele>
        <time>2017-09-17T09:14:27.000Z</time>
      </trkpt>
      <trkpt lat="50.60318" lon="3.39777">
        <ele>61</ele>
        <time>2017-09-17T09:14:30.000Z</time>
      </trkpt>
      <trkpt lat="50.60297" lon="3.39805">
        <ele>61</ele>
        <time>2017-09-17T09:14:36.000Z</time>
      </trkpt>
      <trkpt lat="50.60286" lon="3.39815">
        <ele>62</ele>
        <time>2017-09-17T09:14:39.000Z</time>
      </trkpt>
      <trkpt lat="50.60264" lon="3.39838">
        <ele>63</ele>
        <time>2017-09-17T09:14:45.000Z</time>
      </trkpt>
      <trkpt lat="50.60254" lon="3.39849">
        <ele>64</ele>
        <time>2017-09-17T09:14:48.000Z</time>
      </trkpt>
      <trkpt lat="50.60243" lon="3.3986">
        <ele>67</ele>
        <time>2017-09-17T09:14:51.000Z</time>
      </trkpt>
      <trkpt lat="50.60231" lon="3.39872">
        <ele>68</ele>
        <time>2017-09-17T09:14:54.000Z</time>
      </trkpt>
      <trkpt lat="50.60209" lon="3.399">
        <ele>67</ele>
        <time>2017-09-17T09:15:00.000Z</time>
      </trkpt>
      <trkpt lat="50.60186" lon="3.39922">
        <ele>66</ele>
        <time>2017-09-17T09:15:06.000Z</time>
      </trkpt>
      <trkpt lat="50.60175" lon="3.39932">
        <ele>66</ele>
        <time>2017-09-17T09:15:09.000Z</time>
      </trkpt>
      <trkpt lat="50.60164" lon="3.39941">
        <ele>65</ele>
        <time>2017-09-17T09:15:12.000Z</time>
      </trkpt>
      <trkpt lat="50.60154" lon="3.39955">
        <ele>63</ele>
        <time>2017-09-17T09:15:15.000Z</time>
      </trkpt>
      <trkpt lat="50.60143" lon="3.39967">
        <ele>63</ele>
        <time>2017-09-17T09:15:18.000Z</time>
      </trkpt>
      <trkpt lat="50.6012" lon="3.3998">
        <ele>64</ele>
        <time>2017-09-17T09:15:24.000Z</time>
      </trkpt>
      <trkpt lat="50.6011" lon="3.39994">
        <ele>66</ele>
        <time>2017-09-17T09:15:27.000Z</time>
      </trkpt>
      <trkpt lat="50.60087" lon="3.40019">
        <ele>61</ele>
        <time>2017-09-17T09:15:33.000Z</time>
      </trkpt>
      <trkpt lat="50.60075" lon="3.40035">
        <ele>59</ele>
        <time>2017-09-17T09:15:36.000Z</time>
      </trkpt>
      <trkpt lat="50.60057" lon="3.40067">
        <ele>57</ele>
        <time>2017-09-17T09:15:42.000Z</time>
      </trkpt>
      <trkpt lat="50.60037" lon="3.40081">
        <ele>57</ele>
        <time>2017-09-17T09:15:48.000Z</time>
      </trkpt>
      <trkpt lat="50.60026" lon="3.40096">
        <ele>58</ele>
        <time>2017-09-17T09:15:51.000Z</time>
      </trkpt>
      <trkpt lat="50.60008" lon="3.40132">
        <ele>55</ele>
        <time>2017-09-17T09:15:57.000Z</time>
      </trkpt>
      <trkpt lat="50.59987" lon="3.40156">
        <ele>53</ele>
        <time>2017-09-17T09:16:03.000Z</time>
      </trkpt>
      <trkpt lat="50.59978" lon="3.40173">
        <ele>52</ele>
        <time>2017-09-17T09:16:06.000Z</time>
      </trkpt>
      <trkpt lat="50.59959" lon="3.40205">
        <ele>52</ele>
        <time>2017-09-17T09:16:12.000Z</time>
      </trkpt>
      <trkpt lat="50.59951" lon="3.40225">
        <ele>52</ele>
        <time>2017-09-17T09:16:15.000Z</time>
      </trkpt>
      <trkpt lat="50.59937" lon="3.40259">
        <ele>56</ele>
        <time>2017-09-17T09:16:21.000Z</time>
      </trkpt>
      <trkpt lat="50.59935" lon="3.40274">
        <ele>59</ele>
        <time>2017-09-17T09:16:24.000Z</time>
      </trkpt>
      <trkpt lat="50.59922" lon="3.40306">
        <ele>56</ele>
        <time>2017-09-17T09:16:56.000Z</time>
      </trkpt>
      <trkpt lat="50.59909" lon="3.40338">
        <ele>53</ele>
        <time>2017-09-17T09:17:01.000Z</time>
      </trkpt>
      <trkpt lat="50.59893" lon="3.40368">
        <ele>53</ele>
        <time>2017-09-17T09:17:05.000Z</time>
      </trkpt>
      <trkpt lat="50.5988" lon="3.40401">
        <ele>55</ele>
        <time>2017-09-17T09:17:10.000Z</time>
      </trkpt>
      <trkpt lat="50.59863" lon="3.4043">
        <ele>57</ele>
        <time>2017-09-17T09:17:16.000Z</time>
      </trkpt>
      <trkpt lat="50.59859" lon="3.4045">
        <ele>62</ele>
        <time>2017-09-17T09:17:19.000Z</time>
      </trkpt>
      <trkpt lat="50.59854" lon="3.40473">
        <ele>61</ele>
        <time>2017-09-17T09:17:22.000Z</time>
      </trkpt>
      <trkpt lat="50.59845" lon="3.40501">
        <ele>61</ele>
        <time>2017-09-17T09:17:26.000Z</time>
      </trkpt>
      <trkpt lat="50.59833" lon="3.40531">
        <ele>62</ele>
        <time>2017-09-17T09:17:31.000Z</time>
      </trkpt>
      <trkpt lat="50.59826" lon="3.40555">
        <ele>61</ele>
        <time>2017-09-17T09:17:34.000Z</time>
      </trkpt>
      <trkpt lat="50.59816" lon="3.40587">
        <ele>58</ele>
        <time>2017-09-17T09:17:40.000Z</time>
      </trkpt>
      <trkpt lat="50.5981" lon="3.40608">
        <ele>58</ele>
        <time>2017-09-17T09:17:43.000Z</time>
      </trkpt>
      <trkpt lat="50.59803" lon="3.40632">
        <ele>55</ele>
        <time>2017-09-17T09:17:47.000Z</time>
      </trkpt>
      <trkpt lat="50.59792" lon="3.40664">
        <ele>54</ele>
        <time>2017-09-17T09:17:52.000Z</time>
      </trkpt>
      <trkpt lat="50.59778" lon="3.40698">
        <ele>55</ele>
        <time>2017-09-17T09:17:58.000Z</time>
      </trkpt>
      <trkpt lat="50.59768" lon="3.4071">
        <ele>54</ele>
        <time>2017-09-17T09:18:01.000Z</time>
      </trkpt>
      <trkpt lat="50.59744" lon="3.40746">
        <ele>58</ele>
        <time>2017-09-17T09:18:08.000Z</time>
      </trkpt>
      <trkpt lat="50.59731" lon="3.40774">
        <ele>60</ele>
        <time>2017-09-17T09:18:13.000Z</time>
      </trkpt>
      <trkpt lat="50.59718" lon="3.40801">
        <ele>60</ele>
        <time>2017-09-17T09:18:17.000Z</time>
      </trkpt>
      <trkpt lat="50.59703" lon="3.40831">
        <ele>59</ele>
        <time>2017-09-17T09:18:22.000Z</time>
      </trkpt>
      <trkpt lat="50.59692" lon="3.40856">
        <ele>58</ele>
        <time>2017-09-17T09:18:26.000Z</time>
      </trkpt>
      <trkpt lat="50.59676" lon="3.40885">
        <ele>57</ele>
        <time>2017-09-17T09:18:31.000Z</time>
      </trkpt>
      <trkpt lat="50.59663" lon="3.40906">
        <ele>57</ele>
        <time>2017-09-17T09:18:35.000Z</time>
      </trkpt>
      <trkpt lat="50.59648" lon="3.40931">
        <ele>58</ele>
        <time>2017-09-17T09:18:40.000Z</time>
      </trkpt>
      <trkpt lat="50.59634" lon="3.40954">
        <ele>59</ele>
        <time>2017-09-17T09:18:44.000Z</time>
      </trkpt>
      <trkpt lat="50.59623" lon="3.40974">
        <ele>59</ele>
        <time>2017-09-17T09:18:49.000Z</time>
      </trkpt>
      <trkpt lat="50.59615" lon="3.40986">
        <ele>61</ele>
        <time>2017-09-17T09:18:53.000Z</time>
      </trkpt>
      <trkpt lat="50.59612" lon="3.4098">
        <ele>62</ele>
        <time>2017-09-17T09:18:58.000Z</time>
      </trkpt>
      <trkpt lat="50.59586" lon="3.41026">
        <ele>60</ele>
        <time>2017-09-17T09:19:33.000Z</time>
      </trkpt>
      <trkpt lat="50.59565" lon="3.41061">
        <ele>66</ele>
        <time>2017-09-17T09:19:38.000Z</time>
      </trkpt>
      <trkpt lat="50.59543" lon="3.41082">
        <ele>63</ele>
        <time>2017-09-17T09:19:44.000Z</time>
      </trkpt>
      <trkpt lat="50.59522" lon="3.41113">
        <ele>61</ele>
        <time>2017-09-17T09:19:50.000Z</time>
      </trkpt>
      <trkpt lat="50.59504" lon="3.41152">
        <ele>59</ele>
        <time>2017-09-17T09:19:56.000Z</time>
      </trkpt>
      <trkpt lat="50.59493" lon="3.41171">
        <ele>58</ele>
        <time>2017-09-17T09:19:59.000Z</time>
      </trkpt>
      <trkpt lat="50.59483" lon="3.41187">
        <ele>58</ele>
        <time>2017-09-17T09:20:02.000Z</time>
      </trkpt>
      <trkpt lat="50.59474" lon="3.41203">
        <ele>58</ele>
        <time>2017-09-17T09:20:05.000Z</time>
      </trkpt>
      <trkpt lat="50.59456" lon="3.41241">
        <ele>57</ele>
        <time>2017-09-17T09:20:11.000Z</time>
      </trkpt>
      <trkpt lat="50.59448" lon="3.41261">
        <ele>57</ele>
        <time>2017-09-17T09:20:14.000Z</time>
      </trkpt>
      <trkpt lat="50.5943" lon="3.41297">
        <ele>59</ele>
        <time>2017-09-17T09:20:20.000Z</time>
      </trkpt>
      <trkpt lat="50.5942" lon="3.41318">
        <ele>58</ele>
        <time>2017-09-17T09:20:23.000Z</time>
      </trkpt>
      <trkpt lat="50.59405" lon="3.41356">
        <ele>61</ele>
        <time>2017-09-17T09:20:29.000Z</time>
      </trkpt>
      <trkpt lat="50.59397" lon="3.41374">
        <ele>62</ele>
        <time>2017-09-17T09:20:32.000Z</time>
      </trkpt>
      <trkpt lat="50.59387" lon="3.41392">
        <ele>61</ele>
        <time>2017-09-17T09:20:35.000Z</time>
      </trkpt>
      <trkpt lat="50.5937" lon="3.41428">
        <ele>59</ele>
        <time>2017-09-17T09:20:41.000Z</time>
      </trkpt>
      <trkpt lat="50.59352" lon="3.41469">
        <ele>59</ele>
        <time>2017-09-17T09:20:47.000Z</time>
      </trkpt>
      <trkpt lat="50.59345" lon="3.41489">
        <ele>59</ele>
        <time>2017-09-17T09:20:50.000Z</time>
      </trkpt>
      <trkpt lat="50.59326" lon="3.41526">
        <ele>57</ele>
        <time>2017-09-17T09:20:56.000Z</time>
      </trkpt>
      <trkpt lat="50.59318" lon="3.41545">
        <ele>57</ele>
        <time>2017-09-17T09:20:59.000Z</time>
      </trkpt>
      <trkpt lat="50.59309" lon="3.41571">
        <ele>57</ele>
        <time>2017-09-17T09:21:02.000Z</time>
      </trkpt>
      <trkpt lat="50.59299" lon="3.41588">
        <ele>56</ele>
        <time>2017-09-17T09:21:05.000Z</time>
      </trkpt>
      <trkpt lat="50.59282" lon="3.4163">
        <ele>58</ele>
        <time>2017-09-17T09:21:11.000Z</time>
      </trkpt>
      <trkpt lat="50.59275" lon="3.41649">
        <ele>56</ele>
        <time>2017-09-17T09:21:14.000Z</time>
      </trkpt>
      <trkpt lat="50.59268" lon="3.41674">
        <ele>57</ele>
        <time>2017-09-17T09:21:17.000Z</time>
      </trkpt>
      <trkpt lat="50.59249" lon="3.41711">
        <ele>54</ele>
        <time>2017-09-17T09:21:23.000Z</time>
      </trkpt>
      <trkpt lat="50.5924" lon="3.41731">
        <ele>54</ele>
        <time>2017-09-17T09:21:26.000Z</time>
      </trkpt>
      <trkpt lat="50.59232" lon="3.41751">
        <ele>55</ele>
        <time>2017-09-17T09:21:29.000Z</time>
      </trkpt>
      <trkpt lat="50.59221" lon="3.41769">
        <ele>55</ele>
        <time>2017-09-17T09:21:32.000Z</time>
      </trkpt>
      <trkpt lat="50.59215" lon="3.4179">
        <ele>58</ele>
        <time>2017-09-17T09:21:35.000Z</time>
      </trkpt>
      <trkpt lat="50.59204" lon="3.41813">
        <ele>56</ele>
        <time>2017-09-17T09:21:38.000Z</time>
      </trkpt>
      <trkpt lat="50.59187" lon="3.41854">
        <ele>53</ele>
        <time>2017-09-17T09:21:44.000Z</time>
      </trkpt>
      <trkpt lat="50.59179" lon="3.41877">
        <ele>53</ele>
        <time>2017-09-17T09:21:47.000Z</time>
      </trkpt>
      <trkpt lat="50.59162" lon="3.4192">
        <ele>53</ele>
        <time>2017-09-17T09:21:53.000Z</time>
      </trkpt>
      <trkpt lat="50.59144" lon="3.4196">
        <ele>49</ele>
        <time>2017-09-17T09:21:59.000Z</time>
      </trkpt>
      <trkpt lat="50.5913" lon="3.42">
        <ele>53</ele>
        <time>2017-09-17T09:22:05.000Z</time>
      </trkpt>
      <trkpt lat="50.59122" lon="3.42022">
        <ele>52</ele>
        <time>2017-09-17T09:22:08.000Z</time>
      </trkpt>
      <trkpt lat="50.59098" lon="3.42057">
        <ele>51</ele>
        <time>2017-09-17T09:22:14.000Z</time>
      </trkpt>
      <trkpt lat="50.59087" lon="3.42076">
        <ele>49</ele>
        <time>2017-09-17T09:22:17.000Z</time>
      </trkpt>
      <trkpt lat="50.59079" lon="3.42096">
        <ele>50</ele>
        <time>2017-09-17T09:22:20.000Z</time>
      </trkpt>
      <trkpt lat="50.5907" lon="3.42118">
        <ele>50</ele>
        <time>2017-09-17T09:22:23.000Z</time>
      </trkpt>
      <trkpt lat="50.5905" lon="3.42162">
        <ele>52</ele>
        <time>2017-09-17T09:22:29.000Z</time>
      </trkpt>
      <trkpt lat="50.59033" lon="3.42203">
        <ele>53</ele>
        <time>2017-09-17T09:22:35.000Z</time>
      </trkpt>
      <trkpt lat="50.59024" lon="3.42221">
        <ele>56</ele>
        <time>2017-09-17T09:22:38.000Z</time>
      </trkpt>
      <trkpt lat="50.59015" lon="3.42237">
        <ele>55</ele>
        <time>2017-09-17T09:22:41.000Z</time>
      </trkpt>
      <trkpt lat="50.58995" lon="3.42269">
        <ele>56</ele>
        <time>2017-09-17T09:22:47.000Z</time>
      </trkpt>
      <trkpt lat="50.58984" lon="3.4229">
        <ele>58</ele>
        <time>2017-09-17T09:22:50.000Z</time>
      </trkpt>
      <trkpt lat="50.58965" lon="3.42327">
        <ele>55</ele>
        <time>2017-09-17T09:22:56.000Z</time>
      </trkpt>
      <trkpt lat="50.58945" lon="3.42363">
        <ele>60</ele>
        <time>2017-09-17T09:23:02.000Z</time>
      </trkpt>
      <trkpt lat="50.58935" lon="3.42379">
        <ele>60</ele>
        <time>2017-09-17T09:23:05.000Z</time>
      </trkpt>
      <trkpt lat="50.58916" lon="3.42411">
        <ele>62</ele>
        <time>2017-09-17T09:23:11.000Z</time>
      </trkpt>
      <trkpt lat="50.58909" lon="3.42428">
        <ele>60</ele>
        <time>2017-09-17T09:23:14.000Z</time>
      </trkpt>
      <trkpt lat="50.58894" lon="3.42462">
        <ele>60</ele>
        <time>2017-09-17T09:23:20.000Z</time>
      </trkpt>
      <trkpt lat="50.58883" lon="3.42475">
        <ele>60</ele>
        <time>2017-09-17T09:23:23.000Z</time>
      </trkpt>
      <trkpt lat="50.58866" lon="3.42514">
        <ele>60</ele>
        <time>2017-09-17T09:23:29.000Z</time>
      </trkpt>
      <trkpt lat="50.58856" lon="3.42561">
        <ele>58</ele>
        <time>2017-09-17T09:23:35.000Z</time>
      </trkpt>
      <trkpt lat="50.58848" lon="3.4258">
        <ele>58</ele>
        <time>2017-09-17T09:23:38.000Z</time>
      </trkpt>
      <trkpt lat="50.58831" lon="3.42612">
        <ele>59</ele>
        <time>2017-09-17T09:23:44.000Z</time>
      </trkpt>
      <trkpt lat="50.58822" lon="3.42626">
        <ele>57</ele>
        <time>2017-09-17T09:23:47.000Z</time>
      </trkpt>
      <trkpt lat="50.58808" lon="3.42633">
        <ele>57</ele>
        <time>2017-09-17T09:23:50.000Z</time>
      </trkpt>
      <trkpt lat="50.58801" lon="3.42647">
        <ele>56</ele>
        <time>2017-09-17T09:23:53.000Z</time>
      </trkpt>
      <trkpt lat="50.58784" lon="3.42683">
        <ele>60</ele>
        <time>2017-09-17T09:23:59.000Z</time>
      </trkpt>
      <trkpt lat="50.58775" lon="3.427">
        <ele>60</ele>
        <time>2017-09-17T09:24:02.000Z</time>
      </trkpt>
      <trkpt lat="50.58756" lon="3.42733">
        <ele>57</ele>
        <time>2017-09-17T09:24:08.000Z</time>
      </trkpt>
      <trkpt lat="50.5874" lon="3.42757">
        <ele>62</ele>
        <time>2017-09-17T09:24:14.000Z</time>
      </trkpt>
      <trkpt lat="50.58736" lon="3.42765">
        <ele>73</ele>
        <time>2017-09-17T09:24:17.000Z</time>
      </trkpt>
      <trkpt lat="50.58727" lon="3.4277">
        <ele>72</ele>
        <time>2017-09-17T09:24:20.000Z</time>
      </trkpt>
      <trkpt lat="50.58707" lon="3.42761">
        <ele>70</ele>
        <time>2017-09-17T09:24:26.000Z</time>
      </trkpt>
      <trkpt lat="50.58688" lon="3.42739">
        <ele>72</ele>
        <time>2017-09-17T09:24:32.000Z</time>
      </trkpt>
      <trkpt lat="50.58673" lon="3.42714">
        <ele>70</ele>
        <time>2017-09-17T09:24:38.000Z</time>
      </trkpt>
      <trkpt lat="50.58654" lon="3.42731">
        <ele>70</ele>
        <time>2017-09-17T09:24:44.000Z</time>
      </trkpt>
      <trkpt lat="50.58645" lon="3.42741">
        <ele>67</ele>
        <time>2017-09-17T09:24:47.000Z</time>
      </trkpt>
      <trkpt lat="50.58638" lon="3.42759">
        <ele>67</ele>
        <time>2017-09-17T09:24:50.000Z</time>
      </trkpt>
      <trkpt lat="50.58625" lon="3.42786">
        <ele>67</ele>
        <time>2017-09-17T09:24:56.000Z</time>
      </trkpt>
      <trkpt lat="50.58619" lon="3.42806">
        <ele>67</ele>
        <time>2017-09-17T09:24:59.000Z</time>
      </trkpt>
      <trkpt lat="50.58607" lon="3.42842">
        <ele>66</ele>
        <time>2017-09-17T09:25:05.000Z</time>
      </trkpt>
      <trkpt lat="50.58601" lon="3.4286">
        <ele>67</ele>
        <time>2017-09-17T09:25:08.000Z</time>
      </trkpt>
      <trkpt lat="50.58585" lon="3.42895">
        <ele>67</ele>
        <time>2017-09-17T09:25:14.000Z</time>
      </trkpt>
      <trkpt lat="50.58579" lon="3.42914">
        <ele>65</ele>
        <time>2017-09-17T09:25:17.000Z</time>
      </trkpt>
      <trkpt lat="50.58568" lon="3.42947">
        <ele>63</ele>
        <time>2017-09-17T09:25:23.000Z</time>
      </trkpt>
      <trkpt lat="50.58564" lon="3.42965">
        <ele>63</ele>
        <time>2017-09-17T09:25:26.000Z</time>
      </trkpt>
      <trkpt lat="50.58548" lon="3.42967">
        <ele>63</ele>
        <time>2017-09-17T09:25:32.000Z</time>
      </trkpt>
      <trkpt lat="50.5854" lon="3.42959">
        <ele>65</ele>
        <time>2017-09-17T09:25:35.000Z</time>
      </trkpt>
      <trkpt lat="50.58535" lon="3.42948">
        <ele>63</ele>
        <time>2017-09-17T09:25:38.000Z</time>
      </trkpt>
      <trkpt lat="50.58527" lon="3.42938">
        <ele>62</ele>
        <time>2017-09-17T09:25:41.000Z</time>
      </trkpt>
      <trkpt lat="50.58518" lon="3.42928">
        <ele>65</ele>
        <time>2017-09-17T09:25:47.000Z</time>
      </trkpt>
      <trkpt lat="50.58512" lon="3.42928">
        <ele>63</ele>
        <time>2017-09-17T09:25:50.000Z</time>
      </trkpt>
      <trkpt lat="50.58497" lon="3.42924">
        <ele>61</ele>
        <time>2017-09-17T09:25:56.000Z</time>
      </trkpt>
      <trkpt lat="50.58491" lon="3.42917">
        <ele>61</ele>
        <time>2017-09-17T09:25:59.000Z</time>
      </trkpt>
      <trkpt lat="50.58474" lon="3.42899">
        <ele>60</ele>
        <time>2017-09-17T09:26:05.000Z</time>
      </trkpt>
      <trkpt lat="50.58467" lon="3.4289">
        <ele>60</ele>
        <time>2017-09-17T09:26:08.000Z</time>
      </trkpt>
      <trkpt lat="50.58462" lon="3.4288">
        <ele>55</ele>
        <time>2017-09-17T09:26:11.000Z</time>
      </trkpt>
      <trkpt lat="50.58448" lon="3.42862">
        <ele>57</ele>
        <time>2017-09-17T09:26:17.000Z</time>
      </trkpt>
      <trkpt lat="50.58431" lon="3.42842">
        <ele>60</ele>
        <time>2017-09-17T09:26:23.000Z</time>
      </trkpt>
      <trkpt lat="50.58424" lon="3.42832">
        <ele>60</ele>
        <time>2017-09-17T09:26:26.000Z</time>
      </trkpt>
      <trkpt lat="50.58408" lon="3.42813">
        <ele>60</ele>
        <time>2017-09-17T09:26:32.000Z</time>
      </trkpt>
      <trkpt lat="50.58391" lon="3.42794">
        <ele>64</ele>
        <time>2017-09-17T09:26:38.000Z</time>
      </trkpt>
      <trkpt lat="50.58376" lon="3.42775">
        <ele>63</ele>
        <time>2017-09-17T09:26:44.000Z</time>
      </trkpt>
      <trkpt lat="50.58367" lon="3.42765">
        <ele>65</ele>
        <time>2017-09-17T09:26:47.000Z</time>
      </trkpt>
      <trkpt lat="50.58359" lon="3.42755">
        <ele>65</ele>
        <time>2017-09-17T09:26:50.000Z</time>
      </trkpt>
      <trkpt lat="50.58343" lon="3.42737">
        <ele>66</ele>
        <time>2017-09-17T09:26:56.000Z</time>
      </trkpt>
      <trkpt lat="50.58325" lon="3.42716">
        <ele>69</ele>
        <time>2017-09-17T09:27:02.000Z</time>
      </trkpt>
      <trkpt lat="50.5831" lon="3.42704">
        <ele>77</ele>
        <time>2017-09-17T09:27:08.000Z</time>
      </trkpt>
      <trkpt lat="50.58302" lon="3.42696">
        <ele>77</ele>
        <time>2017-09-17T09:27:11.000Z</time>
      </trkpt>
      <trkpt lat="50.58286" lon="3.42674">
        <ele>77</ele>
        <time>2017-09-17T09:27:17.000Z</time>
      </trkpt>
      <trkpt lat="50.58279" lon="3.42665">
        <ele>77</ele>
        <time>2017-09-17T09:27:20.000Z</time>
      </trkpt>
      <trkpt lat="50.58262" lon="3.42642">
        <ele>75</ele>
        <time>2017-09-17T09:27:26.000Z</time>
      </trkpt>
      <trkpt lat="50.58252" lon="3.42633">
        <ele>73</ele>
        <time>2017-09-17T09:27:29.000Z</time>
      </trkpt>
      <trkpt lat="50.58246" lon="3.42623">
        <ele>68</ele>
        <time>2017-09-17T09:27:32.000Z</time>
      </trkpt>
      <trkpt lat="50.5823" lon="3.42599">
        <ele>71</ele>
        <time>2017-09-17T09:27:38.000Z</time>
      </trkpt>
      <trkpt lat="50.58212" lon="3.42571">
        <ele>73</ele>
        <time>2017-09-17T09:27:44.000Z</time>
      </trkpt>
      <trkpt lat="50.58203" lon="3.42564">
        <ele>73</ele>
        <time>2017-09-17T09:27:47.000Z</time>
      </trkpt>
      <trkpt lat="50.58195" lon="3.42557">
        <ele>72</ele>
        <time>2017-09-17T09:27:50.000Z</time>
      </trkpt>
      <trkpt lat="50.58182" lon="3.42566">
        <ele>74</ele>
        <time>2017-09-17T09:27:56.000Z</time>
      </trkpt>
      <trkpt lat="50.5818" lon="3.42573">
        <ele>74</ele>
        <time>2017-09-17T09:27:59.000Z</time>
      </trkpt>
      <trkpt lat="50.58177" lon="3.42582">
        <ele>73</ele>
        <time>2017-09-17T09:28:02.000Z</time>
      </trkpt>
      <trkpt lat="50.58171" lon="3.42594">
        <ele>71</ele>
        <time>2017-09-17T09:28:08.000Z</time>
      </trkpt>
      <trkpt lat="50.58165" lon="3.42602">
        <ele>69</ele>
        <time>2017-09-17T09:28:11.000Z</time>
      </trkpt>
      <trkpt lat="50.58156" lon="3.42614">
        <ele>67</ele>
        <time>2017-09-17T09:28:17.000Z</time>
      </trkpt>
      <trkpt lat="50.58155" lon="3.42625">
        <ele>67</ele>
        <time>2017-09-17T09:28:23.000Z</time>
      </trkpt>
      <trkpt lat="50.58157" lon="3.42632">
        <ele>69</ele>
        <time>2017-09-17T09:28:32.000Z</time>
      </trkpt>
      <trkpt lat="50.58152" lon="3.42639">
        <ele>73</ele>
        <time>2017-09-17T09:28:53.000Z</time>
      </trkpt>
      <trkpt lat="50.58146" lon="3.42639">
        <ele>73</ele>
        <time>2017-09-17T09:28:56.000Z</time>
      </trkpt>
      <trkpt lat="50.5813" lon="3.42643">
        <ele>76</ele>
        <time>2017-09-17T09:29:02.000Z</time>
      </trkpt>
      <trkpt lat="50.58125" lon="3.42639">
        <ele>74</ele>
        <time>2017-09-17T09:29:05.000Z</time>
      </trkpt>
      <trkpt lat="50.58119" lon="3.42641">
        <ele>74</ele>
        <time>2017-09-17T09:29:08.000Z</time>
      </trkpt>
      <trkpt lat="50.58107" lon="3.42635">
        <ele>71</ele>
        <time>2017-09-17T09:29:14.000Z</time>
      </trkpt>
      <trkpt lat="50.58099" lon="3.42632">
        <ele>72</ele>
        <time>2017-09-17T09:29:20.000Z</time>
      </trkpt>
      <trkpt lat="50.58089" lon="3.42626">
        <ele>77</ele>
        <time>2017-09-17T09:29:26.000Z</time>
      </trkpt>
      <trkpt lat="50.58075" lon="3.42617">
        <ele>79</ele>
        <time>2017-09-17T09:29:32.000Z</time>
      </trkpt>
      <trkpt lat="50.58064" lon="3.42613">
        <ele>76</ele>
        <time>2017-09-17T09:29:38.000Z</time>
      </trkpt>
      <trkpt lat="50.58059" lon="3.42601">
        <ele>73</ele>
        <time>2017-09-17T09:29:41.000Z</time>
      </trkpt>
      <trkpt lat="50.58051" lon="3.42599">
        <ele>72</ele>
        <time>2017-09-17T09:29:44.000Z</time>
      </trkpt>
      <trkpt lat="50.58041" lon="3.42595">
        <ele>69</ele>
        <time>2017-09-17T09:29:50.000Z</time>
      </trkpt>
      <trkpt lat="50.58031" lon="3.42594">
        <ele>71</ele>
        <time>2017-09-17T09:29:56.000Z</time>
      </trkpt>
      <trkpt lat="50.58027" lon="3.42597">
        <ele>71</ele>
        <time>2017-09-17T09:29:59.000Z</time>
      </trkpt>
      <trkpt lat="50.5802" lon="3.42599">
        <ele>76</ele>
        <time>2017-09-17T09:30:02.000Z</time>
      </trkpt>
      <trkpt lat="50.58009" lon="3.42617">
        <ele>75</ele>
        <time>2017-09-17T09:30:09.000Z</time>
      </trkpt>
      <trkpt lat="50.58" lon="3.42627">
        <ele>68</ele>
        <time>2017-09-17T09:30:15.000Z</time>
      </trkpt>
      <trkpt lat="50.57993" lon="3.42636">
        <ele>65</ele>
        <time>2017-09-17T09:30:20.000Z</time>
      </trkpt>
      <trkpt lat="50.57986" lon="3.42647">
        <ele>66</ele>
        <time>2017-09-17T09:30:24.000Z</time>
      </trkpt>
      <trkpt lat="50.57978" lon="3.42665">
        <ele>68</ele>
        <time>2017-09-17T09:30:29.000Z</time>
      </trkpt>
      <trkpt lat="50.57974" lon="3.42673">
        <ele>65</ele>
        <time>2017-09-17T09:30:32.000Z</time>
      </trkpt>
      <trkpt lat="50.57967" lon="3.42684">
        <ele>62</ele>
        <time>2017-09-17T09:30:36.000Z</time>
      </trkpt>
      <trkpt lat="50.57961" lon="3.42694">
        <ele>58</ele>
        <time>2017-09-17T09:30:41.000Z</time>
      </trkpt>
      <trkpt lat="50.57951" lon="3.42707">
        <ele>59</ele>
        <time>2017-09-17T09:30:45.000Z</time>
      </trkpt>
      <trkpt lat="50.57941" lon="3.42729">
        <ele>74</ele>
        <time>2017-09-17T09:30:50.000Z</time>
      </trkpt>
      <trkpt lat="50.5793" lon="3.42753">
        <ele>84</ele>
        <time>2017-09-17T09:30:56.000Z</time>
      </trkpt>
      <trkpt lat="50.57933" lon="3.42785">
        <ele>81</ele>
        <time>2017-09-17T09:31:02.000Z</time>
      </trkpt>
      <trkpt lat="50.57937" lon="3.42798">
        <ele>83</ele>
        <time>2017-09-17T09:31:05.000Z</time>
      </trkpt>
      <trkpt lat="50.57938" lon="3.42808">
        <ele>83</ele>
        <time>2017-09-17T09:31:08.000Z</time>
      </trkpt>
      <trkpt lat="50.57951" lon="3.42826">
        <ele>82</ele>
        <time>2017-09-17T09:31:14.000Z</time>
      </trkpt>
      <trkpt lat="50.57957" lon="3.42839">
        <ele>84</ele>
        <time>2017-09-17T09:31:20.000Z</time>
      </trkpt>
      <trkpt lat="50.57958" lon="3.42846">
        <ele>85</ele>
        <time>2017-09-17T09:31:23.000Z</time>
      </trkpt>
      <trkpt lat="50.57964" lon="3.42871">
        <ele>85</ele>
        <time>2017-09-17T09:31:29.000Z</time>
      </trkpt>
      <trkpt lat="50.57973" lon="3.4288">
        <ele>86</ele>
        <time>2017-09-17T09:31:32.000Z</time>
      </trkpt>
      <trkpt lat="50.57977" lon="3.42891">
        <ele>84</ele>
        <time>2017-09-17T09:31:35.000Z</time>
      </trkpt>
      <trkpt lat="50.57972" lon="3.42913">
        <ele>84</ele>
        <time>2017-09-17T09:31:41.000Z</time>
      </trkpt>
      <trkpt lat="50.57969" lon="3.42919">
        <ele>82</ele>
        <time>2017-09-17T09:31:44.000Z</time>
      </trkpt>
      <trkpt lat="50.57966" lon="3.4293">
        <ele>80</ele>
        <time>2017-09-17T09:31:47.000Z</time>
      </trkpt>
      <trkpt lat="50.57964" lon="3.42943">
        <ele>82</ele>
        <time>2017-09-17T09:31:50.000Z</time>
      </trkpt>
      <trkpt lat="50.57959" lon="3.42961">
        <ele>84</ele>
        <time>2017-09-17T09:31:53.000Z</time>
      </trkpt>
      <trkpt lat="50.57948" lon="3.42998">
        <ele>83</ele>
        <time>2017-09-17T09:31:59.000Z</time>
      </trkpt>
      <trkpt lat="50.57945" lon="3.43019">
        <ele>80</ele>
        <time>2017-09-17T09:32:02.000Z</time>
      </trkpt>
      <trkpt lat="50.57933" lon="3.43062">
        <ele>83</ele>
        <time>2017-09-17T09:32:08.000Z</time>
      </trkpt>
      <trkpt lat="50.57914" lon="3.43091">
        <ele>83</ele>
        <time>2017-09-17T09:32:14.000Z</time>
      </trkpt>
      <trkpt lat="50.57888" lon="3.43099">
        <ele>82</ele>
        <time>2017-09-17T09:32:20.000Z</time>
      </trkpt>
      <trkpt lat="50.57864" lon="3.43117">
        <ele>83</ele>
        <time>2017-09-17T09:32:26.000Z</time>
      </trkpt>
      <trkpt lat="50.5785" lon="3.43132">
        <ele>84</ele>
        <time>2017-09-17T09:32:29.000Z</time>
      </trkpt>
      <trkpt lat="50.57836" lon="3.43145">
        <ele>86</ele>
        <time>2017-09-17T09:32:32.000Z</time>
      </trkpt>
      <trkpt lat="50.57812" lon="3.43166">
        <ele>83</ele>
        <time>2017-09-17T09:32:38.000Z</time>
      </trkpt>
      <trkpt lat="50.57787" lon="3.43203">
        <ele>83</ele>
        <time>2017-09-17T09:32:44.000Z</time>
      </trkpt>
      <trkpt lat="50.57761" lon="3.43233">
        <ele>82</ele>
        <time>2017-09-17T09:32:50.000Z</time>
      </trkpt>
      <trkpt lat="50.57735" lon="3.43272">
        <ele>82</ele>
        <time>2017-09-17T09:32:56.000Z</time>
      </trkpt>
      <trkpt lat="50.5771" lon="3.43304">
        <ele>79</ele>
        <time>2017-09-17T09:33:02.000Z</time>
      </trkpt>
      <trkpt lat="50.57687" lon="3.4334">
        <ele>78</ele>
        <time>2017-09-17T09:33:08.000Z</time>
      </trkpt>
      <trkpt lat="50.57667" lon="3.43361">
        <ele>82</ele>
        <time>2017-09-17T09:33:14.000Z</time>
      </trkpt>
      <trkpt lat="50.57655" lon="3.43372">
        <ele>79</ele>
        <time>2017-09-17T09:33:17.000Z</time>
      </trkpt>
      <trkpt lat="50.57629" lon="3.43401">
        <ele>81</ele>
        <time>2017-09-17T09:33:23.000Z</time>
      </trkpt>
      <trkpt lat="50.57604" lon="3.43429">
        <ele>82</ele>
        <time>2017-09-17T09:33:29.000Z</time>
      </trkpt>
      <trkpt lat="50.5759" lon="3.43459">
        <ele>81</ele>
        <time>2017-09-17T09:33:35.000Z</time>
      </trkpt>
      <trkpt lat="50.57607" lon="3.43509">
        <ele>78</ele>
        <time>2017-09-17T09:33:41.000Z</time>
      </trkpt>
      <trkpt lat="50.57613" lon="3.43534">
        <ele>78</ele>
        <time>2017-09-17T09:33:44.000Z</time>
      </trkpt>
      <trkpt lat="50.57622" lon="3.43558">
        <ele>78</ele>
        <time>2017-09-17T09:33:47.000Z</time>
      </trkpt>
      <trkpt lat="50.57632" lon="3.4358">
        <ele>77</ele>
        <time>2017-09-17T09:33:50.000Z</time>
      </trkpt>
      <trkpt lat="50.57636" lon="3.43629">
        <ele>74</ele>
        <time>2017-09-17T09:33:56.000Z</time>
      </trkpt>
      <trkpt lat="50.57616" lon="3.43649">
        <ele>74</ele>
        <time>2017-09-17T09:34:02.000Z</time>
      </trkpt>
      <trkpt lat="50.57604" lon="3.43649">
        <ele>75</ele>
        <time>2017-09-17T09:34:05.000Z</time>
      </trkpt>
      <trkpt lat="50.57586" lon="3.43647">
        <ele>78</ele>
        <time>2017-09-17T09:34:11.000Z</time>
      </trkpt>
      <trkpt lat="50.57578" lon="3.43648">
        <ele>77</ele>
        <time>2017-09-17T09:34:14.000Z</time>
      </trkpt>
      <trkpt lat="50.57557" lon="3.43647">
        <ele>77</ele>
        <time>2017-09-17T09:34:20.000Z</time>
      </trkpt>
      <trkpt lat="50.57547" lon="3.43645">
        <ele>77</ele>
        <time>2017-09-17T09:34:23.000Z</time>
      </trkpt>
      <trkpt lat="50.5754" lon="3.43646">
        <ele>76</ele>
        <time>2017-09-17T09:34:26.000Z</time>
      </trkpt>
      <trkpt lat="50.57526" lon="3.43644">
        <ele>76</ele>
        <time>2017-09-17T09:34:32.000Z</time>
      </trkpt>
      <trkpt lat="50.57515" lon="3.43645">
        <ele>76</ele>
        <time>2017-09-17T09:34:35.000Z</time>
      </trkpt>
      <trkpt lat="50.57505" lon="3.43646">
        <ele>76</ele>
        <time>2017-09-17T09:34:38.000Z</time>
      </trkpt>
      <trkpt lat="50.57483" lon="3.43643">
        <ele>75</ele>
        <time>2017-09-17T09:34:44.000Z</time>
      </trkpt>
      <trkpt lat="50.57474" lon="3.4364">
        <ele>74</ele>
        <time>2017-09-17T09:34:47.000Z</time>
      </trkpt>
      <trkpt lat="50.57452" lon="3.43636">
        <ele>74</ele>
        <time>2017-09-17T09:34:53.000Z</time>
      </trkpt>
      <trkpt lat="50.5744" lon="3.4364">
        <ele>74</ele>
        <time>2017-09-17T09:34:56.000Z</time>
      </trkpt>
      <trkpt lat="50.57428" lon="3.43643">
        <ele>75</ele>
        <time>2017-09-17T09:34:59.000Z</time>
      </trkpt>
      <trkpt lat="50.57406" lon="3.43655">
        <ele>74</ele>
        <time>2017-09-17T09:35:05.000Z</time>
      </trkpt>
      <trkpt lat="50.57386" lon="3.43671">
        <ele>75</ele>
        <time>2017-09-17T09:35:11.000Z</time>
      </trkpt>
      <trkpt lat="50.57375" lon="3.43683">
        <ele>76</ele>
        <time>2017-09-17T09:35:14.000Z</time>
      </trkpt>
      <trkpt lat="50.57369" lon="3.43685">
        <ele>69</ele>
        <time>2017-09-17T09:35:17.000Z</time>
      </trkpt>
      <trkpt lat="50.57348" lon="3.43704">
        <ele>69</ele>
        <time>2017-09-17T09:35:23.000Z</time>
      </trkpt>
      <trkpt lat="50.57338" lon="3.43707">
        <ele>68</ele>
        <time>2017-09-17T09:35:26.000Z</time>
      </trkpt>
      <trkpt lat="50.57329" lon="3.43708">
        <ele>74</ele>
        <time>2017-09-17T09:35:29.000Z</time>
      </trkpt>
      <trkpt lat="50.57322" lon="3.437">
        <ele>74</ele>
        <time>2017-09-17T09:35:32.000Z</time>
      </trkpt>
      <trkpt lat="50.57321" lon="3.4367">
        <ele>72</ele>
        <time>2017-09-17T09:35:38.000Z</time>
      </trkpt>
      <trkpt lat="50.57321" lon="3.43639">
        <ele>73</ele>
        <time>2017-09-17T09:35:44.000Z</time>
      </trkpt>
      <trkpt lat="50.57325" lon="3.43605">
        <ele>77</ele>
        <time>2017-09-17T09:35:50.000Z</time>
      </trkpt>
      <trkpt lat="50.57325" lon="3.43588">
        <ele>77</ele>
        <time>2017-09-17T09:35:53.000Z</time>
      </trkpt>
      <trkpt lat="50.57318" lon="3.43559">
        <ele>80</ele>
        <time>2017-09-17T09:35:59.000Z</time>
      </trkpt>
      <trkpt lat="50.57312" lon="3.43545">
        <ele>80</ele>
        <time>2017-09-17T09:36:02.000Z</time>
      </trkpt>
      <trkpt lat="50.57306" lon="3.43531">
        <ele>79</ele>
        <time>2017-09-17T09:36:05.000Z</time>
      </trkpt>
      <trkpt lat="50.57297" lon="3.43511">
        <ele>80</ele>
        <time>2017-09-17T09:36:11.000Z</time>
      </trkpt>
      <trkpt lat="50.5729" lon="3.43501">
        <ele>79</ele>
        <time>2017-09-17T09:36:14.000Z</time>
      </trkpt>
      <trkpt lat="50.5728" lon="3.43483">
        <ele>79</ele>
        <time>2017-09-17T09:36:20.000Z</time>
      </trkpt>
      <trkpt lat="50.57272" lon="3.43471">
        <ele>80</ele>
        <time>2017-09-17T09:36:23.000Z</time>
      </trkpt>
      <trkpt lat="50.57267" lon="3.43462">
        <ele>79</ele>
        <time>2017-09-17T09:36:26.000Z</time>
      </trkpt>
      <trkpt lat="50.57264" lon="3.43451">
        <ele>80</ele>
        <time>2017-09-17T09:36:29.000Z</time>
      </trkpt>
      <trkpt lat="50.57254" lon="3.43433">
        <ele>80</ele>
        <time>2017-09-17T09:36:35.000Z</time>
      </trkpt>
      <trkpt lat="50.57248" lon="3.43423">
        <ele>83</ele>
        <time>2017-09-17T09:36:38.000Z</time>
      </trkpt>
      <trkpt lat="50.57233" lon="3.43398">
        <ele>85</ele>
        <time>2017-09-17T09:36:44.000Z</time>
      </trkpt>
      <trkpt lat="50.5723" lon="3.43392">
        <ele>84</ele>
        <time>2017-09-17T09:36:47.000Z</time>
      </trkpt>
      <trkpt lat="50.57221" lon="3.43372">
        <ele>83</ele>
        <time>2017-09-17T09:36:53.000Z</time>
      </trkpt>
      <trkpt lat="50.57216" lon="3.43352">
        <ele>84</ele>
        <time>2017-09-17T09:36:59.000Z</time>
      </trkpt>
      <trkpt lat="50.57204" lon="3.43334">
        <ele>83</ele>
        <time>2017-09-17T09:37:05.000Z</time>
      </trkpt>
      <trkpt lat="50.57196" lon="3.43324">
        <ele>83</ele>
        <time>2017-09-17T09:37:08.000Z</time>
      </trkpt>
      <trkpt lat="50.57193" lon="3.43314">
        <ele>83</ele>
        <time>2017-09-17T09:37:11.000Z</time>
      </trkpt>
      <trkpt lat="50.57184" lon="3.43295">
        <ele>86</ele>
        <time>2017-09-17T09:37:17.000Z</time>
      </trkpt>
      <trkpt lat="50.57174" lon="3.43277">
        <ele>87</ele>
        <time>2017-09-17T09:37:23.000Z</time>
      </trkpt>
      <trkpt lat="50.57169" lon="3.4327">
        <ele>87</ele>
        <time>2017-09-17T09:37:26.000Z</time>
      </trkpt>
      <trkpt lat="50.5716" lon="3.43251">
        <ele>87</ele>
        <time>2017-09-17T09:37:32.000Z</time>
      </trkpt>
      <trkpt lat="50.57151" lon="3.43233">
        <ele>87</ele>
        <time>2017-09-17T09:37:38.000Z</time>
      </trkpt>
      <trkpt lat="50.57138" lon="3.4323">
        <ele>91</ele>
        <time>2017-09-17T09:37:44.000Z</time>
      </trkpt>
      <trkpt lat="50.57133" lon="3.43234">
        <ele>90</ele>
        <time>2017-09-17T09:37:47.000Z</time>
      </trkpt>
      <trkpt lat="50.57127" lon="3.43239">
        <ele>92</ele>
        <time>2017-09-17T09:37:50.000Z</time>
      </trkpt>
      <trkpt lat="50.57119" lon="3.43245">
        <ele>92</ele>
        <time>2017-09-17T09:37:53.000Z</time>
      </trkpt>
      <trkpt lat="50.57103" lon="3.43255">
        <ele>89</ele>
        <time>2017-09-17T09:37:59.000Z</time>
      </trkpt>
      <trkpt lat="50.57094" lon="3.43261">
        <ele>87</ele>
        <time>2017-09-17T09:38:02.000Z</time>
      </trkpt>
      <trkpt lat="50.57084" lon="3.43273">
        <ele>86</ele>
        <time>2017-09-17T09:38:05.000Z</time>
      </trkpt>
      <trkpt lat="50.57066" lon="3.43287">
        <ele>87</ele>
        <time>2017-09-17T09:38:11.000Z</time>
      </trkpt>
      <trkpt lat="50.5705" lon="3.43298">
        <ele>83</ele>
        <time>2017-09-17T09:38:17.000Z</time>
      </trkpt>
      <trkpt lat="50.57044" lon="3.43303">
        <ele>82</ele>
        <time>2017-09-17T09:38:20.000Z</time>
      </trkpt>
      <trkpt lat="50.57038" lon="3.43305">
        <ele>85</ele>
        <time>2017-09-17T09:38:23.000Z</time>
      </trkpt>
      <trkpt lat="50.57022" lon="3.43316">
        <ele>87</ele>
        <time>2017-09-17T09:38:29.000Z</time>
      </trkpt>
      <trkpt lat="50.57013" lon="3.43323">
        <ele>87</ele>
        <time>2017-09-17T09:38:32.000Z</time>
      </trkpt>
      <trkpt lat="50.56994" lon="3.43335">
        <ele>87</ele>
        <time>2017-09-17T09:38:38.000Z</time>
      </trkpt>
      <trkpt lat="50.56974" lon="3.4335">
        <ele>87</ele>
        <time>2017-09-17T09:38:44.000Z</time>
      </trkpt>
      <trkpt lat="50.56958" lon="3.43364">
        <ele>88</ele>
        <time>2017-09-17T09:38:50.000Z</time>
      </trkpt>
      <trkpt lat="50.56949" lon="3.43373">
        <ele>88</ele>
        <time>2017-09-17T09:38:56.000Z</time>
      </trkpt>
      <trkpt lat="50.56941" lon="3.43377">
        <ele>87</ele>
        <time>2017-09-17T09:39:02.000Z</time>
      </trkpt>
      <trkpt lat="50.56933" lon="3.43386">
        <ele>90</ele>
        <time>2017-09-17T09:39:08.000Z</time>
      </trkpt>
      <trkpt lat="50.56929" lon="3.4339">
        <ele>89</ele>
        <time>2017-09-17T09:39:11.000Z</time>
      </trkpt>
      <trkpt lat="50.56923" lon="3.43395">
        <ele>89</ele>
        <time>2017-09-17T09:39:14.000Z</time>
      </trkpt>
      <trkpt lat="50.56912" lon="3.43394">
        <ele>95</ele>
        <time>2017-09-17T09:39:23.000Z</time>
      </trkpt>
      <trkpt lat="50.56906" lon="3.43399">
        <ele>95</ele>
        <time>2017-09-17T09:39:26.000Z</time>
      </trkpt>
      <trkpt lat="50.56899" lon="3.43406">
        <ele>93</ele>
        <time>2017-09-17T09:39:29.000Z</time>
      </trkpt>
      <trkpt lat="50.56892" lon="3.43411">
        <ele>88</ele>
        <time>2017-09-17T09:39:32.000Z</time>
      </trkpt>
      <trkpt lat="50.56884" lon="3.43419">
        <ele>90</ele>
        <time>2017-09-17T09:39:35.000Z</time>
      </trkpt>
      <trkpt lat="50.56867" lon="3.43431">
        <ele>88</ele>
        <time>2017-09-17T09:39:41.000Z</time>
      </trkpt>
      <trkpt lat="50.56847" lon="3.43444">
        <ele>88</ele>
        <time>2017-09-17T09:39:47.000Z</time>
      </trkpt>
      <trkpt lat="50.56827" lon="3.43457">
        <ele>88</ele>
        <time>2017-09-17T09:39:53.000Z</time>
      </trkpt>
      <trkpt lat="50.56816" lon="3.43464">
        <ele>89</ele>
        <time>2017-09-17T09:39:56.000Z</time>
      </trkpt>
      <trkpt lat="50.56795" lon="3.43466">
        <ele>89</ele>
        <time>2017-09-17T09:40:02.000Z</time>
      </trkpt>
      <trkpt lat="50.56788" lon="3.43461">
        <ele>87</ele>
        <time>2017-09-17T09:40:05.000Z</time>
      </trkpt>
      <trkpt lat="50.5678" lon="3.43453">
        <ele>87</ele>
        <time>2017-09-17T09:40:11.000Z</time>
      </trkpt>
      <trkpt lat="50.56773" lon="3.43444">
        <ele>88</ele>
        <time>2017-09-17T09:40:17.000Z</time>
      </trkpt>
      <trkpt lat="50.5676" lon="3.43434">
        <ele>88</ele>
        <time>2017-09-17T09:40:23.000Z</time>
      </trkpt>
      <trkpt lat="50.56754" lon="3.43431">
        <ele>89</ele>
        <time>2017-09-17T09:40:26.000Z</time>
      </trkpt>
      <trkpt lat="50.56743" lon="3.43426">
        <ele>91</ele>
        <time>2017-09-17T09:40:32.000Z</time>
      </trkpt>
      <trkpt lat="50.56738" lon="3.43426">
        <ele>91</ele>
        <time>2017-09-17T09:40:35.000Z</time>
      </trkpt>
      <trkpt lat="50.56732" lon="3.43424">
        <ele>90</ele>
        <time>2017-09-17T09:40:38.000Z</time>
      </trkpt>
      <trkpt lat="50.56724" lon="3.43419">
        <ele>91</ele>
        <time>2017-09-17T09:40:41.000Z</time>
      </trkpt>
      <trkpt lat="50.56715" lon="3.43417">
        <ele>90</ele>
        <time>2017-09-17T09:40:44.000Z</time>
      </trkpt>
      <trkpt lat="50.56706" lon="3.43411">
        <ele>90</ele>
        <time>2017-09-17T09:40:47.000Z</time>
      </trkpt>
      <trkpt lat="50.56688" lon="3.434">
        <ele>92</ele>
        <time>2017-09-17T09:40:53.000Z</time>
      </trkpt>
      <trkpt lat="50.56672" lon="3.43389">
        <ele>89</ele>
        <time>2017-09-17T09:40:59.000Z</time>
      </trkpt>
      <trkpt lat="50.56655" lon="3.43377">
        <ele>91</ele>
        <time>2017-09-17T09:41:05.000Z</time>
      </trkpt>
      <trkpt lat="50.56646" lon="3.43373">
        <ele>90</ele>
        <time>2017-09-17T09:41:08.000Z</time>
      </trkpt>
      <trkpt lat="50.56628" lon="3.43363">
        <ele>88</ele>
        <time>2017-09-17T09:41:14.000Z</time>
      </trkpt>
      <trkpt lat="50.56618" lon="3.43355">
        <ele>89</ele>
        <time>2017-09-17T09:41:17.000Z</time>
      </trkpt>
      <trkpt lat="50.56603" lon="3.43338">
        <ele>93</ele>
        <time>2017-09-17T09:41:23.000Z</time>
      </trkpt>
      <trkpt lat="50.56597" lon="3.43336">
        <ele>95</ele>
        <time>2017-09-17T09:41:29.000Z</time>
      </trkpt>
      <trkpt lat="50.56592" lon="3.43332">
        <ele>90</ele>
        <time>2017-09-17T09:42:30.000Z</time>
      </trkpt>
      <trkpt lat="50.56577" lon="3.43313">
        <ele>96</ele>
        <time>2017-09-17T09:42:36.000Z</time>
      </trkpt>
      <trkpt lat="50.56563" lon="3.43291">
        <ele>97</ele>
        <time>2017-09-17T09:42:42.000Z</time>
      </trkpt>
      <trkpt lat="50.56546" lon="3.43267">
        <ele>105</ele>
        <time>2017-09-17T09:42:48.000Z</time>
      </trkpt>
      <trkpt lat="50.56537" lon="3.43259">
        <ele>101</ele>
        <time>2017-09-17T09:42:51.000Z</time>
      </trkpt>
      <trkpt lat="50.56529" lon="3.43254">
        <ele>101</ele>
        <time>2017-09-17T09:42:54.000Z</time>
      </trkpt>
      <trkpt lat="50.56518" lon="3.43228">
        <ele>109</ele>
        <time>2017-09-17T09:43:00.000Z</time>
      </trkpt>
      <trkpt lat="50.56511" lon="3.43214">
        <ele>107</ele>
        <time>2017-09-17T09:43:03.000Z</time>
      </trkpt>
      <trkpt lat="50.56503" lon="3.43208">
        <ele>108</ele>
        <time>2017-09-17T09:43:06.000Z</time>
      </trkpt>
      <trkpt lat="50.56495" lon="3.43197">
        <ele>107</ele>
        <time>2017-09-17T09:43:09.000Z</time>
      </trkpt>
      <trkpt lat="50.56491" lon="3.4319">
        <ele>103</ele>
        <time>2017-09-17T09:43:15.000Z</time>
      </trkpt>
      <trkpt lat="50.56487" lon="3.43173">
        <ele>96</ele>
        <time>2017-09-17T09:44:15.000Z</time>
      </trkpt>
      <trkpt lat="50.56481" lon="3.43152">
        <ele>95</ele>
        <time>2017-09-17T09:44:19.000Z</time>
      </trkpt>
      <trkpt lat="50.56471" lon="3.43123">
        <ele>93</ele>
        <time>2017-09-17T09:44:22.000Z</time>
      </trkpt>
      <trkpt lat="50.56461" lon="3.43093">
        <ele>92</ele>
        <time>2017-09-17T09:44:27.000Z</time>
      </trkpt>
      <trkpt lat="50.56457" lon="3.43073">
        <ele>95</ele>
        <time>2017-09-17T09:44:31.000Z</time>
      </trkpt>
      <trkpt lat="50.56452" lon="3.4305">
        <ele>94</ele>
        <time>2017-09-17T09:44:34.000Z</time>
      </trkpt>
      <trkpt lat="50.5644" lon="3.43017">
        <ele>88</ele>
        <time>2017-09-17T09:44:40.000Z</time>
      </trkpt>
      <trkpt lat="50.56435" lon="3.4298">
        <ele>93</ele>
        <time>2017-09-17T09:44:46.000Z</time>
      </trkpt>
      <trkpt lat="50.56425" lon="3.42955">
        <ele>94</ele>
        <time>2017-09-17T09:44:51.000Z</time>
      </trkpt>
      <trkpt lat="50.56409" lon="3.42939">
        <ele>95</ele>
        <time>2017-09-17T09:44:55.000Z</time>
      </trkpt>
      <trkpt lat="50.56395" lon="3.42932">
        <ele>94</ele>
        <time>2017-09-17T09:44:58.000Z</time>
      </trkpt>
      <trkpt lat="50.56374" lon="3.42919">
        <ele>90</ele>
        <time>2017-09-17T09:45:04.000Z</time>
      </trkpt>
      <trkpt lat="50.56349" lon="3.42909">
        <ele>88</ele>
        <time>2017-09-17T09:45:09.000Z</time>
      </trkpt>
      <trkpt lat="50.56319" lon="3.42881">
        <ele>87</ele>
        <time>2017-09-17T09:45:16.000Z</time>
      </trkpt>
      <trkpt lat="50.56296" lon="3.4286">
        <ele>89</ele>
        <time>2017-09-17T09:45:22.000Z</time>
      </trkpt>
      <trkpt lat="50.56282" lon="3.42832">
        <ele>88</ele>
        <time>2017-09-17T09:45:27.000Z</time>
      </trkpt>
      <trkpt lat="50.56271" lon="3.42813">
        <ele>87</ele>
        <time>2017-09-17T09:45:31.000Z</time>
      </trkpt>
      <trkpt lat="50.56258" lon="3.42794">
        <ele>86</ele>
        <time>2017-09-17T09:45:37.000Z</time>
      </trkpt>
      <trkpt lat="50.56257" lon="3.42784">
        <ele>83</ele>
        <time>2017-09-17T09:45:42.000Z</time>
      </trkpt>
      <trkpt lat="50.56233" lon="3.42799">
        <ele>84</ele>
        <time>2017-09-17T09:46:37.000Z</time>
      </trkpt>
      <trkpt lat="50.56211" lon="3.42808">
        <ele>83</ele>
        <time>2017-09-17T09:46:43.000Z</time>
      </trkpt>
      <trkpt lat="50.56196" lon="3.42819">
        <ele>76</ele>
        <time>2017-09-17T09:46:46.000Z</time>
      </trkpt>
      <trkpt lat="50.56187" lon="3.42816">
        <ele>75</ele>
        <time>2017-09-17T09:46:49.000Z</time>
      </trkpt>
      <trkpt lat="50.56173" lon="3.42826">
        <ele>78</ele>
        <time>2017-09-17T09:46:55.000Z</time>
      </trkpt>
      <trkpt lat="50.56165" lon="3.42823">
        <ele>77</ele>
        <time>2017-09-17T09:46:58.000Z</time>
      </trkpt>
      <trkpt lat="50.5615" lon="3.42839">
        <ele>74</ele>
        <time>2017-09-17T09:47:04.000Z</time>
      </trkpt>
      <trkpt lat="50.5614" lon="3.42853">
        <ele>75</ele>
        <time>2017-09-17T09:47:07.000Z</time>
      </trkpt>
      <trkpt lat="50.56128" lon="3.42861">
        <ele>75</ele>
        <time>2017-09-17T09:47:10.000Z</time>
      </trkpt>
      <trkpt lat="50.56117" lon="3.42854">
        <ele>81</ele>
        <time>2017-09-17T09:47:16.000Z</time>
      </trkpt>
      <trkpt lat="50.56106" lon="3.42844">
        <ele>75</ele>
        <time>2017-09-17T09:47:22.000Z</time>
      </trkpt>
      <trkpt lat="50.56097" lon="3.4284">
        <ele>78</ele>
        <time>2017-09-17T09:47:25.000Z</time>
      </trkpt>
      <trkpt lat="50.56092" lon="3.42836">
        <ele>74</ele>
        <time>2017-09-17T09:47:28.000Z</time>
      </trkpt>
      <trkpt lat="50.56091" lon="3.42843">
        <ele>70</ele>
        <time>2017-09-17T09:47:40.000Z</time>
      </trkpt>
      <trkpt lat="50.56083" lon="3.42834">
        <ele>69</ele>
        <time>2017-09-17T09:48:30.000Z</time>
      </trkpt>
      <trkpt lat="50.56073" lon="3.42817">
        <ele>66</ele>
        <time>2017-09-17T09:48:35.000Z</time>
      </trkpt>
      <trkpt lat="50.56067" lon="3.42802">
        <ele>62</ele>
        <time>2017-09-17T09:48:38.000Z</time>
      </trkpt>
      <trkpt lat="50.56065" lon="3.42795">
        <ele>62</ele>
        <time>2017-09-17T09:48:41.000Z</time>
      </trkpt>
      <trkpt lat="50.56048" lon="3.42785">
        <ele>60</ele>
        <time>2017-09-17T09:48:47.000Z</time>
      </trkpt>
      <trkpt lat="50.56041" lon="3.42778">
        <ele>60</ele>
        <time>2017-09-17T09:48:50.000Z</time>
      </trkpt>
      <trkpt lat="50.56032" lon="3.42755">
        <ele>62</ele>
        <time>2017-09-17T09:48:56.000Z</time>
      </trkpt>
      <trkpt lat="50.56032" lon="3.42741">
        <ele>63</ele>
        <time>2017-09-17T09:48:59.000Z</time>
      </trkpt>
      <trkpt lat="50.56034" lon="3.42725">
        <ele>66</ele>
        <time>2017-09-17T09:49:02.000Z</time>
      </trkpt>
      <trkpt lat="50.56021" lon="3.42698">
        <ele>77</ele>
        <time>2017-09-17T09:49:08.000Z</time>
      </trkpt>
      <trkpt lat="50.56013" lon="3.42652">
        <ele>72</ele>
        <time>2017-09-17T09:49:14.000Z</time>
      </trkpt>
      <trkpt lat="50.56006" lon="3.4264">
        <ele>72</ele>
        <time>2017-09-17T09:49:17.000Z</time>
      </trkpt>
      <trkpt lat="50.55995" lon="3.42614">
        <ele>77</ele>
        <time>2017-09-17T09:49:23.000Z</time>
      </trkpt>
      <trkpt lat="50.55988" lon="3.42586">
        <ele>87</ele>
        <time>2017-09-17T09:49:29.000Z</time>
      </trkpt>
      <trkpt lat="50.56" lon="3.42571">
        <ele>80</ele>
        <time>2017-09-17T09:49:35.000Z</time>
      </trkpt>
      <trkpt lat="50.56003" lon="3.42545">
        <ele>75</ele>
        <time>2017-09-17T09:49:41.000Z</time>
      </trkpt>
      <trkpt lat="50.55999" lon="3.42531">
        <ele>77</ele>
        <time>2017-09-17T09:49:44.000Z</time>
      </trkpt>
      <trkpt lat="50.5599" lon="3.42514">
        <ele>82</ele>
        <time>2017-09-17T09:49:50.000Z</time>
      </trkpt>
      <trkpt lat="50.5597" lon="3.42515">
        <ele>78</ele>
        <time>2017-09-17T09:49:56.000Z</time>
      </trkpt>
      <trkpt lat="50.5596" lon="3.4252">
        <ele>76</ele>
        <time>2017-09-17T09:49:59.000Z</time>
      </trkpt>
      <trkpt lat="50.55951" lon="3.42496">
        <ele>77</ele>
        <time>2017-09-17T09:50:05.000Z</time>
      </trkpt>
      <trkpt lat="50.55948" lon="3.4248">
        <ele>76</ele>
        <time>2017-09-17T09:50:08.000Z</time>
      </trkpt>
      <trkpt lat="50.55955" lon="3.42456">
        <ele>73</ele>
        <time>2017-09-17T09:50:14.000Z</time>
      </trkpt>
      <trkpt lat="50.55955" lon="3.4242">
        <ele>72</ele>
        <time>2017-09-17T09:50:20.000Z</time>
      </trkpt>
      <trkpt lat="50.55948" lon="3.42376">
        <ele>73</ele>
        <time>2017-09-17T09:50:26.000Z</time>
      </trkpt>
      <trkpt lat="50.55928" lon="3.42341">
        <ele>80</ele>
        <time>2017-09-17T09:50:32.000Z</time>
      </trkpt>
      <trkpt lat="50.55924" lon="3.42326">
        <ele>81</ele>
        <time>2017-09-17T09:50:35.000Z</time>
      </trkpt>
      <trkpt lat="50.55921" lon="3.42305">
        <ele>81</ele>
        <time>2017-09-17T09:50:38.000Z</time>
      </trkpt>
      <trkpt lat="50.55919" lon="3.42263">
        <ele>81</ele>
        <time>2017-09-17T09:50:44.000Z</time>
      </trkpt>
      <trkpt lat="50.55917" lon="3.42218">
        <ele>78</ele>
        <time>2017-09-17T09:50:50.000Z</time>
      </trkpt>
      <trkpt lat="50.55916" lon="3.42185">
        <ele>80</ele>
        <time>2017-09-17T09:50:56.000Z</time>
      </trkpt>
      <trkpt lat="50.55914" lon="3.42143">
        <ele>75</ele>
        <time>2017-09-17T09:51:02.000Z</time>
      </trkpt>
      <trkpt lat="50.55915" lon="3.42124">
        <ele>76</ele>
        <time>2017-09-17T09:51:05.000Z</time>
      </trkpt>
      <trkpt lat="50.55915" lon="3.42104">
        <ele>76</ele>
        <time>2017-09-17T09:51:08.000Z</time>
      </trkpt>
      <trkpt lat="50.55915" lon="3.42081">
        <ele>78</ele>
        <time>2017-09-17T09:51:11.000Z</time>
      </trkpt>
      <trkpt lat="50.55917" lon="3.42059">
        <ele>76</ele>
        <time>2017-09-17T09:51:17.000Z</time>
      </trkpt>
      <trkpt lat="50.55918" lon="3.42051">
        <ele>77</ele>
        <time>2017-09-17T09:51:20.000Z</time>
      </trkpt>
      <trkpt lat="50.5592" lon="3.42026">
        <ele>79</ele>
        <time>2017-09-17T09:51:26.000Z</time>
      </trkpt>
      <trkpt lat="50.55928" lon="3.42016">
        <ele>66</ele>
        <time>2017-09-17T09:51:29.000Z</time>
      </trkpt>
      <trkpt lat="50.55926" lon="3.41989">
        <ele>66</ele>
        <time>2017-09-17T09:51:35.000Z</time>
      </trkpt>
      <trkpt lat="50.55923" lon="3.41955">
        <ele>70</ele>
        <time>2017-09-17T09:51:41.000Z</time>
      </trkpt>
      <trkpt lat="50.55925" lon="3.4193">
        <ele>82</ele>
        <time>2017-09-17T09:51:47.000Z</time>
      </trkpt>
      <trkpt lat="50.55933" lon="3.41926">
        <ele>85</ele>
        <time>2017-09-17T09:51:53.000Z</time>
      </trkpt>
      <trkpt lat="50.55914" lon="3.41905">
        <ele>88</ele>
        <time>2017-09-17T09:52:00.000Z</time>
      </trkpt>
      <trkpt lat="50.559" lon="3.41919">
        <ele>86</ele>
        <time>2017-09-17T09:52:05.000Z</time>
      </trkpt>
      <trkpt lat="50.5589" lon="3.41936">
        <ele>85</ele>
        <time>2017-09-17T09:52:08.000Z</time>
      </trkpt>
      <trkpt lat="50.55884" lon="3.41939">
        <ele>84</ele>
        <time>2017-09-17T09:52:11.000Z</time>
      </trkpt>
      <trkpt lat="50.55881" lon="3.41933">
        <ele>80</ele>
        <time>2017-09-17T09:52:17.000Z</time>
      </trkpt>
      <trkpt lat="50.55877" lon="3.41936">
        <ele>74</ele>
        <time>2017-09-17T09:52:38.274Z</time>
      </trkpt>
      <trkpt lat="50.55883" lon="3.41935">
        <ele>75</ele>
        <time>2017-09-17T09:52:40.000Z</time>
      </trkpt>
      <trkpt lat="50.55879" lon="3.41938">
        <ele>76</ele>
        <time>2017-09-17T09:52:50.000Z</time>
      </trkpt>
      <trkpt lat="50.55861" lon="3.41955">
        <ele>75</ele>
        <time>2017-09-17T09:53:02.000Z</time>
      </trkpt>
      <trkpt lat="50.55849" lon="3.41977">
        <ele>78</ele>
        <time>2017-09-17T09:53:05.000Z</time>
      </trkpt>
      <trkpt lat="50.55833" lon="3.41998">
        <ele>79</ele>
        <time>2017-09-17T09:53:11.000Z</time>
      </trkpt>
      <trkpt lat="50.55817" lon="3.42007">
        <ele>75</ele>
        <time>2017-09-17T09:53:17.000Z</time>
      </trkpt>
      <trkpt lat="50.55814" lon="3.42017">
        <ele>71</ele>
        <time>2017-09-17T09:53:20.000Z</time>
      </trkpt>
      <trkpt lat="50.55796" lon="3.42038">
        <ele>71</ele>
        <time>2017-09-17T09:53:26.000Z</time>
      </trkpt>
      <trkpt lat="50.55786" lon="3.42062">
        <ele>70</ele>
        <time>2017-09-17T09:53:32.000Z</time>
      </trkpt>
      <trkpt lat="50.55779" lon="3.42071">
        <ele>68</ele>
        <time>2017-09-17T09:53:35.000Z</time>
      </trkpt>
      <trkpt lat="50.55772" lon="3.4208">
        <ele>68</ele>
        <time>2017-09-17T09:53:38.000Z</time>
      </trkpt>
      <trkpt lat="50.55766" lon="3.4209">
        <ele>68</ele>
        <time>2017-09-17T09:53:41.000Z</time>
      </trkpt>
      <trkpt lat="50.55758" lon="3.42097">
        <ele>67</ele>
        <time>2017-09-17T09:53:44.000Z</time>
      </trkpt>
      <trkpt lat="50.55747" lon="3.42108">
        <ele>64</ele>
        <time>2017-09-17T09:53:50.000Z</time>
      </trkpt>
      <trkpt lat="50.55736" lon="3.42116">
        <ele>69</ele>
        <time>2017-09-17T09:53:56.000Z</time>
      </trkpt>
      <trkpt lat="50.55727" lon="3.42132">
        <ele>71</ele>
        <time>2017-09-17T09:54:05.000Z</time>
      </trkpt>
      <trkpt lat="50.55722" lon="3.42142">
        <ele>72</ele>
        <time>2017-09-17T09:54:08.000Z</time>
      </trkpt>
      <trkpt lat="50.55711" lon="3.42152">
        <ele>72</ele>
        <time>2017-09-17T09:54:26.000Z</time>
      </trkpt>
      <trkpt lat="50.55703" lon="3.42163">
        <ele>71</ele>
        <time>2017-09-17T09:54:29.000Z</time>
      </trkpt>
      <trkpt lat="50.5569" lon="3.4218">
        <ele>72</ele>
        <time>2017-09-17T09:54:35.000Z</time>
      </trkpt>
      <trkpt lat="50.55681" lon="3.42203">
        <ele>75</ele>
        <time>2017-09-17T09:54:41.000Z</time>
      </trkpt>
      <trkpt lat="50.55673" lon="3.42214">
        <ele>73</ele>
        <time>2017-09-17T09:54:53.000Z</time>
      </trkpt>
      <trkpt lat="50.55661" lon="3.42237">
        <ele>71</ele>
        <time>2017-09-17T09:55:02.000Z</time>
      </trkpt>
      <trkpt lat="50.55649" lon="3.42243">
        <ele>69</ele>
        <time>2017-09-17T09:55:08.000Z</time>
      </trkpt>
      <trkpt lat="50.55639" lon="3.42261">
        <ele>75</ele>
        <time>2017-09-17T09:55:14.000Z</time>
      </trkpt>
      <trkpt lat="50.55629" lon="3.42275">
        <ele>75</ele>
        <time>2017-09-17T09:55:20.000Z</time>
      </trkpt>
      <trkpt lat="50.55624" lon="3.42287">
        <ele>71</ele>
        <time>2017-09-17T09:55:23.000Z</time>
      </trkpt>
      <trkpt lat="50.55618" lon="3.42302">
        <ele>70</ele>
        <time>2017-09-17T09:55:26.000Z</time>
      </trkpt>
      <trkpt lat="50.556" lon="3.42337">
        <ele>68</ele>
        <time>2017-09-17T09:55:32.000Z</time>
      </trkpt>
      <trkpt lat="50.55585" lon="3.42372">
        <ele>66</ele>
        <time>2017-09-17T09:55:38.000Z</time>
      </trkpt>
      <trkpt lat="50.55581" lon="3.42393">
        <ele>66</ele>
        <time>2017-09-17T09:55:41.000Z</time>
      </trkpt>
      <trkpt lat="50.55574" lon="3.42411">
        <ele>64</ele>
        <time>2017-09-17T09:55:44.000Z</time>
      </trkpt>
      <trkpt lat="50.55557" lon="3.42444">
        <ele>64</ele>
        <time>2017-09-17T09:55:50.000Z</time>
      </trkpt>
      <trkpt lat="50.55544" lon="3.42447">
        <ele>67</ele>
        <time>2017-09-17T09:55:53.000Z</time>
      </trkpt>
      <trkpt lat="50.55532" lon="3.42451">
        <ele>68</ele>
        <time>2017-09-17T09:55:56.000Z</time>
      </trkpt>
      <trkpt lat="50.55507" lon="3.42446">
        <ele>66</ele>
        <time>2017-09-17T09:56:02.000Z</time>
      </trkpt>
      <trkpt lat="50.55494" lon="3.42438">
        <ele>65</ele>
        <time>2017-09-17T09:56:05.000Z</time>
      </trkpt>
      <trkpt lat="50.5548" lon="3.42435">
        <ele>65</ele>
        <time>2017-09-17T09:56:08.000Z</time>
      </trkpt>
      <trkpt lat="50.55454" lon="3.42428">
        <ele>61</ele>
        <time>2017-09-17T09:56:14.000Z</time>
      </trkpt>
      <trkpt lat="50.55429" lon="3.42413">
        <ele>62</ele>
        <time>2017-09-17T09:56:20.000Z</time>
      </trkpt>
      <trkpt lat="50.5542" lon="3.42406">
        <ele>61</ele>
        <time>2017-09-17T09:56:23.000Z</time>
      </trkpt>
      <trkpt lat="50.554" lon="3.42389">
        <ele>67</ele>
        <time>2017-09-17T09:56:29.000Z</time>
      </trkpt>
      <trkpt lat="50.55379" lon="3.42384">
        <ele>68</ele>
        <time>2017-09-17T09:56:35.000Z</time>
      </trkpt>
      <trkpt lat="50.55366" lon="3.42391">
        <ele>69</ele>
        <time>2017-09-17T09:56:38.000Z</time>
      </trkpt>
      <trkpt lat="50.55339" lon="3.42416">
        <ele>67</ele>
        <time>2017-09-17T09:56:44.000Z</time>
      </trkpt>
      <trkpt lat="50.55324" lon="3.4243">
        <ele>68</ele>
        <time>2017-09-17T09:56:48.000Z</time>
      </trkpt>
      <trkpt lat="50.55309" lon="3.42446">
        <ele>66</ele>
        <time>2017-09-17T09:56:53.000Z</time>
      </trkpt>
      <trkpt lat="50.55304" lon="3.42452">
        <ele>68</ele>
        <time>2017-09-17T09:56:56.000Z</time>
      </trkpt>
      <trkpt lat="50.55294" lon="3.4245">
        <ele>66</ele>
        <time>2017-09-17T09:56:59.000Z</time>
      </trkpt>
      <trkpt lat="50.55272" lon="3.42448">
        <ele>65</ele>
        <time>2017-09-17T09:57:05.000Z</time>
      </trkpt>
      <trkpt lat="50.5526" lon="3.4246">
        <ele>65</ele>
        <time>2017-09-17T09:57:11.000Z</time>
      </trkpt>
      <trkpt lat="50.5524" lon="3.4248">
        <ele>68</ele>
        <time>2017-09-17T09:57:18.000Z</time>
      </trkpt>
      <trkpt lat="50.55219" lon="3.42491">
        <ele>66</ele>
        <time>2017-09-17T09:57:23.000Z</time>
      </trkpt>
      <trkpt lat="50.55208" lon="3.42491">
        <ele>64</ele>
        <time>2017-09-17T09:57:26.000Z</time>
      </trkpt>
      <trkpt lat="50.55193" lon="3.42503">
        <ele>66</ele>
        <time>2017-09-17T09:57:32.000Z</time>
      </trkpt>
      <trkpt lat="50.55178" lon="3.42516">
        <ele>67</ele>
        <time>2017-09-17T09:57:36.000Z</time>
      </trkpt>
      <trkpt lat="50.55167" lon="3.42522">
        <ele>64</ele>
        <time>2017-09-17T09:57:41.000Z</time>
      </trkpt>
      <trkpt lat="50.55156" lon="3.42528">
        <ele>66</ele>
        <time>2017-09-17T09:57:47.000Z</time>
      </trkpt>
      <trkpt lat="50.55144" lon="3.42534">
        <ele>66</ele>
        <time>2017-09-17T09:57:53.000Z</time>
      </trkpt>
      <trkpt lat="50.5513" lon="3.42538">
        <ele>70</ele>
        <time>2017-09-17T09:57:59.000Z</time>
      </trkpt>
      <trkpt lat="50.55124" lon="3.42542">
        <ele>71</ele>
        <time>2017-09-17T09:58:02.000Z</time>
      </trkpt>
      <trkpt lat="50.55114" lon="3.42557">
        <ele>73</ele>
        <time>2017-09-17T09:58:08.000Z</time>
      </trkpt>
      <trkpt lat="50.55107" lon="3.42563">
        <ele>75</ele>
        <time>2017-09-17T09:58:11.000Z</time>
      </trkpt>
      <trkpt lat="50.55103" lon="3.42572">
        <ele>75</ele>
        <time>2017-09-17T09:58:14.000Z</time>
      </trkpt>
      <trkpt lat="50.55098" lon="3.42577">
        <ele>74</ele>
        <time>2017-09-17T09:58:17.000Z</time>
      </trkpt>
      <trkpt lat="50.55084" lon="3.42589">
        <ele>71</ele>
        <time>2017-09-17T09:58:23.000Z</time>
      </trkpt>
      <trkpt lat="50.55073" lon="3.42592">
        <ele>70</ele>
        <time>2017-09-17T09:58:29.000Z</time>
      </trkpt>
      <trkpt lat="50.55058" lon="3.42592">
        <ele>70</ele>
        <time>2017-09-17T09:58:35.000Z</time>
      </trkpt>
      <trkpt lat="50.55041" lon="3.42611">
        <ele>73</ele>
        <time>2017-09-17T09:58:42.000Z</time>
      </trkpt>
      <trkpt lat="50.55032" lon="3.4262">
        <ele>74</ele>
        <time>2017-09-17T09:58:48.000Z</time>
      </trkpt>
      <trkpt lat="50.55028" lon="3.42624">
        <ele>73</ele>
        <time>2017-09-17T09:58:51.000Z</time>
      </trkpt>
      <trkpt lat="50.55023" lon="3.42633">
        <ele>70</ele>
        <time>2017-09-17T09:58:56.000Z</time>
      </trkpt>
      <trkpt lat="50.55018" lon="3.42637">
        <ele>71</ele>
        <time>2017-09-17T09:58:59.000Z</time>
      </trkpt>
      <trkpt lat="50.55012" lon="3.42639">
        <ele>73</ele>
        <time>2017-09-17T09:59:05.000Z</time>
      </trkpt>
      <trkpt lat="50.55005" lon="3.42641">
        <ele>74</ele>
        <time>2017-09-17T09:59:11.000Z</time>
      </trkpt>
      <trkpt lat="50.54999" lon="3.42653">
        <ele>69</ele>
        <time>2017-09-17T09:59:17.000Z</time>
      </trkpt>
      <trkpt lat="50.54987" lon="3.42655">
        <ele>71</ele>
        <time>2017-09-17T09:59:42.000Z</time>
      </trkpt>
      <trkpt lat="50.54965" lon="3.42672">
        <ele>68</ele>
        <time>2017-09-17T09:59:47.000Z</time>
      </trkpt>
      <trkpt lat="50.5496" lon="3.42677">
        <ele>70</ele>
        <time>2017-09-17T09:59:50.000Z</time>
      </trkpt>
      <trkpt lat="50.54946" lon="3.42682">
        <ele>70</ele>
        <time>2017-09-17T09:59:56.000Z</time>
      </trkpt>
      <trkpt lat="50.5494" lon="3.42682">
        <ele>70</ele>
        <time>2017-09-17T09:59:59.000Z</time>
      </trkpt>
      <trkpt lat="50.54926" lon="3.42689">
        <ele>73</ele>
        <time>2017-09-17T10:00:05.000Z</time>
      </trkpt>
      <trkpt lat="50.54916" lon="3.42711">
        <ele>71</ele>
        <time>2017-09-17T10:00:09.000Z</time>
      </trkpt>
      <trkpt lat="50.54905" lon="3.42724">
        <ele>69</ele>
        <time>2017-09-17T10:00:14.000Z</time>
      </trkpt>
      <trkpt lat="50.54889" lon="3.42744">
        <ele>69</ele>
        <time>2017-09-17T10:00:20.000Z</time>
      </trkpt>
      <trkpt lat="50.54879" lon="3.42755">
        <ele>69</ele>
        <time>2017-09-17T10:00:24.000Z</time>
      </trkpt>
      <trkpt lat="50.54874" lon="3.42761">
        <ele>71</ele>
        <time>2017-09-17T10:00:27.000Z</time>
      </trkpt>
      <trkpt lat="50.54862" lon="3.42789">
        <ele>72</ele>
        <time>2017-09-17T10:00:32.000Z</time>
      </trkpt>
      <trkpt lat="50.54851" lon="3.4281">
        <ele>71</ele>
        <time>2017-09-17T10:00:35.000Z</time>
      </trkpt>
      <trkpt lat="50.54845" lon="3.4282">
        <ele>70</ele>
        <time>2017-09-17T10:00:38.000Z</time>
      </trkpt>
      <trkpt lat="50.5483" lon="3.42827">
        <ele>69</ele>
        <time>2017-09-17T10:00:44.000Z</time>
      </trkpt>
      <trkpt lat="50.54822" lon="3.42818">
        <ele>68</ele>
        <time>2017-09-17T10:00:47.000Z</time>
      </trkpt>
      <trkpt lat="50.54815" lon="3.42819">
        <ele>70</ele>
        <time>2017-09-17T10:00:50.000Z</time>
      </trkpt>
      <trkpt lat="50.548" lon="3.42809">
        <ele>67</ele>
        <time>2017-09-17T10:00:56.000Z</time>
      </trkpt>
      <trkpt lat="50.54786" lon="3.42783">
        <ele>65</ele>
        <time>2017-09-17T10:01:02.000Z</time>
      </trkpt>
      <trkpt lat="50.54781" lon="3.42769">
        <ele>63</ele>
        <time>2017-09-17T10:01:05.000Z</time>
      </trkpt>
      <trkpt lat="50.54763" lon="3.42742">
        <ele>63</ele>
        <time>2017-09-17T10:01:11.000Z</time>
      </trkpt>
      <trkpt lat="50.54755" lon="3.42729">
        <ele>62</ele>
        <time>2017-09-17T10:01:14.000Z</time>
      </trkpt>
      <trkpt lat="50.5474" lon="3.42699">
        <ele>62</ele>
        <time>2017-09-17T10:01:20.000Z</time>
      </trkpt>
      <trkpt lat="50.5473" lon="3.42686">
        <ele>61</ele>
        <time>2017-09-17T10:01:23.000Z</time>
      </trkpt>
      <trkpt lat="50.54721" lon="3.42674">
        <ele>61</ele>
        <time>2017-09-17T10:01:26.000Z</time>
      </trkpt>
      <trkpt lat="50.5471" lon="3.42667">
        <ele>59</ele>
        <time>2017-09-17T10:01:29.000Z</time>
      </trkpt>
      <trkpt lat="50.54692" lon="3.4265">
        <ele>57</ele>
        <time>2017-09-17T10:01:35.000Z</time>
      </trkpt>
      <trkpt lat="50.54683" lon="3.42638">
        <ele>55</ele>
        <time>2017-09-17T10:01:38.000Z</time>
      </trkpt>
      <trkpt lat="50.54665" lon="3.42624">
        <ele>48</ele>
        <time>2017-09-17T10:01:44.000Z</time>
      </trkpt>
      <trkpt lat="50.54656" lon="3.42616">
        <ele>45</ele>
        <time>2017-09-17T10:01:47.000Z</time>
      </trkpt>
      <trkpt lat="50.54635" lon="3.42596">
        <ele>40</ele>
        <time>2017-09-17T10:01:53.000Z</time>
      </trkpt>
      <trkpt lat="50.54609" lon="3.42585">
        <ele>42</ele>
        <time>2017-09-17T10:01:59.000Z</time>
      </trkpt>
      <trkpt lat="50.54594" lon="3.42578">
        <ele>52</ele>
        <time>2017-09-17T10:02:03.000Z</time>
      </trkpt>
      <trkpt lat="50.54571" lon="3.42565">
        <ele>52</ele>
        <time>2017-09-17T10:02:08.000Z</time>
      </trkpt>
      <trkpt lat="50.54548" lon="3.42556">
        <ele>50</ele>
        <time>2017-09-17T10:02:14.000Z</time>
      </trkpt>
      <trkpt lat="50.54516" lon="3.42543">
        <ele>52</ele>
        <time>2017-09-17T10:02:20.000Z</time>
      </trkpt>
      <trkpt lat="50.54502" lon="3.4253">
        <ele>52</ele>
        <time>2017-09-17T10:02:23.000Z</time>
      </trkpt>
      <trkpt lat="50.54474" lon="3.42524">
        <ele>58</ele>
        <time>2017-09-17T10:02:29.000Z</time>
      </trkpt>
      <trkpt lat="50.54445" lon="3.42507">
        <ele>56</ele>
        <time>2017-09-17T10:02:35.000Z</time>
      </trkpt>
      <trkpt lat="50.5441" lon="3.42512">
        <ele>59</ele>
        <time>2017-09-17T10:02:41.000Z</time>
      </trkpt>
      <trkpt lat="50.54376" lon="3.42504">
        <ele>64</ele>
        <time>2017-09-17T10:02:47.000Z</time>
      </trkpt>
      <trkpt lat="50.54352" lon="3.42486">
        <ele>67</ele>
        <time>2017-09-17T10:02:53.000Z</time>
      </trkpt>
      <trkpt lat="50.5433" lon="3.42469">
        <ele>63</ele>
        <time>2017-09-17T10:02:59.000Z</time>
      </trkpt>
      <trkpt lat="50.54311" lon="3.42461">
        <ele>60</ele>
        <time>2017-09-17T10:03:02.000Z</time>
      </trkpt>
      <trkpt lat="50.54298" lon="3.42456">
        <ele>62</ele>
        <time>2017-09-17T10:03:05.000Z</time>
      </trkpt>
      <trkpt lat="50.5427" lon="3.42443">
        <ele>62</ele>
        <time>2017-09-17T10:03:11.000Z</time>
      </trkpt>
      <trkpt lat="50.54248" lon="3.42433">
        <ele>64</ele>
        <time>2017-09-17T10:03:17.000Z</time>
      </trkpt>
      <trkpt lat="50.54229" lon="3.42428">
        <ele>63</ele>
        <time>2017-09-17T10:03:23.000Z</time>
      </trkpt>
      <trkpt lat="50.54219" lon="3.42424">
        <ele>63</ele>
        <time>2017-09-17T10:03:26.000Z</time>
      </trkpt>
      <trkpt lat="50.54192" lon="3.42419">
        <ele>59</ele>
        <time>2017-09-17T10:03:32.000Z</time>
      </trkpt>
      <trkpt lat="50.54181" lon="3.42406">
        <ele>60</ele>
        <time>2017-09-17T10:03:35.000Z</time>
      </trkpt>
      <trkpt lat="50.54154" lon="3.4239">
        <ele>58</ele>
        <time>2017-09-17T10:03:41.000Z</time>
      </trkpt>
      <trkpt lat="50.54131" lon="3.42373">
        <ele>65</ele>
        <time>2017-09-17T10:03:47.000Z</time>
      </trkpt>
      <trkpt lat="50.5412" lon="3.42365">
        <ele>67</ele>
        <time>2017-09-17T10:03:50.000Z</time>
      </trkpt>
      <trkpt lat="50.54091" lon="3.42352">
        <ele>65</ele>
        <time>2017-09-17T10:03:56.000Z</time>
      </trkpt>
      <trkpt lat="50.54075" lon="3.42349">
        <ele>65</ele>
        <time>2017-09-17T10:03:59.000Z</time>
      </trkpt>
      <trkpt lat="50.54063" lon="3.42347">
        <ele>65</ele>
        <time>2017-09-17T10:04:02.000Z</time>
      </trkpt>
      <trkpt lat="50.5405" lon="3.42339">
        <ele>64</ele>
        <time>2017-09-17T10:04:05.000Z</time>
      </trkpt>
      <trkpt lat="50.54036" lon="3.42335">
        <ele>64</ele>
        <time>2017-09-17T10:04:08.000Z</time>
      </trkpt>
      <trkpt lat="50.5402" lon="3.42333">
        <ele>65</ele>
        <time>2017-09-17T10:04:11.000Z</time>
      </trkpt>
      <trkpt lat="50.54006" lon="3.42333">
        <ele>68</ele>
        <time>2017-09-17T10:04:14.000Z</time>
      </trkpt>
      <trkpt lat="50.53992" lon="3.42341">
        <ele>71</ele>
        <time>2017-09-17T10:04:17.000Z</time>
      </trkpt>
      <trkpt lat="50.53964" lon="3.42341">
        <ele>70</ele>
        <time>2017-09-17T10:04:23.000Z</time>
      </trkpt>
      <trkpt lat="50.5394" lon="3.42324">
        <ele>66</ele>
        <time>2017-09-17T10:04:29.000Z</time>
      </trkpt>
      <trkpt lat="50.53927" lon="3.42321">
        <ele>68</ele>
        <time>2017-09-17T10:04:32.000Z</time>
      </trkpt>
      <trkpt lat="50.53912" lon="3.42326">
        <ele>67</ele>
        <time>2017-09-17T10:04:35.000Z</time>
      </trkpt>
      <trkpt lat="50.53885" lon="3.42324">
        <ele>67</ele>
        <time>2017-09-17T10:04:41.000Z</time>
      </trkpt>
      <trkpt lat="50.53867" lon="3.42305">
        <ele>69</ele>
        <time>2017-09-17T10:04:47.000Z</time>
      </trkpt>
      <trkpt lat="50.53853" lon="3.42309">
        <ele>69</ele>
        <time>2017-09-17T10:04:50.000Z</time>
      </trkpt>
      <trkpt lat="50.53829" lon="3.42306">
        <ele>68</ele>
        <time>2017-09-17T10:04:56.000Z</time>
      </trkpt>
      <trkpt lat="50.53812" lon="3.42311">
        <ele>75</ele>
        <time>2017-09-17T10:04:59.000Z</time>
      </trkpt>
      <trkpt lat="50.53785" lon="3.42295">
        <ele>74</ele>
        <time>2017-09-17T10:05:05.000Z</time>
      </trkpt>
      <trkpt lat="50.53777" lon="3.42291">
        <ele>69</ele>
        <time>2017-09-17T10:05:08.000Z</time>
      </trkpt>
      <trkpt lat="50.53764" lon="3.42288">
        <ele>69</ele>
        <time>2017-09-17T10:05:11.000Z</time>
      </trkpt>
      <trkpt lat="50.53733" lon="3.42288">
        <ele>69</ele>
        <time>2017-09-17T10:05:17.000Z</time>
      </trkpt>
      <trkpt lat="50.53723" lon="3.42286">
        <ele>69</ele>
        <time>2017-09-17T10:05:20.000Z</time>
      </trkpt>
      <trkpt lat="50.537" lon="3.42273">
        <ele>69</ele>
        <time>2017-09-17T10:05:26.000Z</time>
      </trkpt>
      <trkpt lat="50.53675" lon="3.42258">
        <ele>68</ele>
        <time>2017-09-17T10:05:32.000Z</time>
      </trkpt>
      <trkpt lat="50.53647" lon="3.42271">
        <ele>68</ele>
        <time>2017-09-17T10:05:38.000Z</time>
      </trkpt>
      <trkpt lat="50.53635" lon="3.42271">
        <ele>68</ele>
        <time>2017-09-17T10:05:41.000Z</time>
      </trkpt>
      <trkpt lat="50.53621" lon="3.42263">
        <ele>67</ele>
        <time>2017-09-17T10:05:44.000Z</time>
      </trkpt>
      <trkpt lat="50.53597" lon="3.42261">
        <ele>65</ele>
        <time>2017-09-17T10:05:50.000Z</time>
      </trkpt>
      <trkpt lat="50.53587" lon="3.42251">
        <ele>68</ele>
        <time>2017-09-17T10:05:53.000Z</time>
      </trkpt>
      <trkpt lat="50.53559" lon="3.42245">
        <ele>70</ele>
        <time>2017-09-17T10:05:59.000Z</time>
      </trkpt>
      <trkpt lat="50.53532" lon="3.42243">
        <ele>75</ele>
        <time>2017-09-17T10:06:05.000Z</time>
      </trkpt>
      <trkpt lat="50.53521" lon="3.4224">
        <ele>74</ele>
        <time>2017-09-17T10:06:08.000Z</time>
      </trkpt>
      <trkpt lat="50.53492" lon="3.4224">
        <ele>74</ele>
        <time>2017-09-17T10:06:14.000Z</time>
      </trkpt>
      <trkpt lat="50.53466" lon="3.42228">
        <ele>74</ele>
        <time>2017-09-17T10:06:20.000Z</time>
      </trkpt>
      <trkpt lat="50.5345" lon="3.42221">
        <ele>68</ele>
        <time>2017-09-17T10:06:23.000Z</time>
      </trkpt>
      <trkpt lat="50.53422" lon="3.42218">
        <ele>68</ele>
        <time>2017-09-17T10:06:29.000Z</time>
      </trkpt>
      <trkpt lat="50.5341" lon="3.42211">
        <ele>69</ele>
        <time>2017-09-17T10:06:32.000Z</time>
      </trkpt>
      <trkpt lat="50.53382" lon="3.42197">
        <ele>72</ele>
        <time>2017-09-17T10:06:38.000Z</time>
      </trkpt>
      <trkpt lat="50.5337" lon="3.42197">
        <ele>75</ele>
        <time>2017-09-17T10:06:41.000Z</time>
      </trkpt>
      <trkpt lat="50.53357" lon="3.42196">
        <ele>73</ele>
        <time>2017-09-17T10:06:44.000Z</time>
      </trkpt>
      <trkpt lat="50.53331" lon="3.42193">
        <ele>74</ele>
        <time>2017-09-17T10:06:50.000Z</time>
      </trkpt>
      <trkpt lat="50.53318" lon="3.42197">
        <ele>78</ele>
        <time>2017-09-17T10:06:53.000Z</time>
      </trkpt>
      <trkpt lat="50.53306" lon="3.42199">
        <ele>78</ele>
        <time>2017-09-17T10:06:56.000Z</time>
      </trkpt>
      <trkpt lat="50.53282" lon="3.4218">
        <ele>80</ele>
        <time>2017-09-17T10:07:02.000Z</time>
      </trkpt>
      <trkpt lat="50.5327" lon="3.42181">
        <ele>79</ele>
        <time>2017-09-17T10:07:05.000Z</time>
      </trkpt>
      <trkpt lat="50.53263" lon="3.42177">
        <ele>75</ele>
        <time>2017-09-17T10:07:08.000Z</time>
      </trkpt>
      <trkpt lat="50.53251" lon="3.42176">
        <ele>73</ele>
        <time>2017-09-17T10:07:11.000Z</time>
      </trkpt>
      <trkpt lat="50.53239" lon="3.42177">
        <ele>71</ele>
        <time>2017-09-17T10:07:14.000Z</time>
      </trkpt>
      <trkpt lat="50.53226" lon="3.42168">
        <ele>76</ele>
        <time>2017-09-17T10:07:17.000Z</time>
      </trkpt>
      <trkpt lat="50.53206" lon="3.42164">
        <ele>76</ele>
        <time>2017-09-17T10:07:23.000Z</time>
      </trkpt>
      <trkpt lat="50.53182" lon="3.42162">
        <ele>77</ele>
        <time>2017-09-17T10:07:29.000Z</time>
      </trkpt>
      <trkpt lat="50.53166" lon="3.42163">
        <ele>80</ele>
        <time>2017-09-17T10:07:32.000Z</time>
      </trkpt>
      <trkpt lat="50.53154" lon="3.42152">
        <ele>80</ele>
        <time>2017-09-17T10:07:35.000Z</time>
      </trkpt>
      <trkpt lat="50.53146" lon="3.42158">
        <ele>81</ele>
        <time>2017-09-17T10:07:38.000Z</time>
      </trkpt>
      <trkpt lat="50.53134" lon="3.42158">
        <ele>79</ele>
        <time>2017-09-17T10:07:41.000Z</time>
      </trkpt>
      <trkpt lat="50.53126" lon="3.42149">
        <ele>79</ele>
        <time>2017-09-17T10:07:44.000Z</time>
      </trkpt>
      <trkpt lat="50.53103" lon="3.42133">
        <ele>78</ele>
        <time>2017-09-17T10:07:50.000Z</time>
      </trkpt>
      <trkpt lat="50.5309" lon="3.42131">
        <ele>79</ele>
        <time>2017-09-17T10:07:53.000Z</time>
      </trkpt>
      <trkpt lat="50.5306" lon="3.42134">
        <ele>82</ele>
        <time>2017-09-17T10:07:59.000Z</time>
      </trkpt>
      <trkpt lat="50.53049" lon="3.42129">
        <ele>82</ele>
        <time>2017-09-17T10:08:02.000Z</time>
      </trkpt>
      <trkpt lat="50.53023" lon="3.42126">
        <ele>82</ele>
        <time>2017-09-17T10:08:08.000Z</time>
      </trkpt>
      <trkpt lat="50.53013" lon="3.42123">
        <ele>86</ele>
        <time>2017-09-17T10:08:11.000Z</time>
      </trkpt>
      <trkpt lat="50.5299" lon="3.42112">
        <ele>83</ele>
        <time>2017-09-17T10:08:17.000Z</time>
      </trkpt>
      <trkpt lat="50.52977" lon="3.4211">
        <ele>82</ele>
        <time>2017-09-17T10:08:20.000Z</time>
      </trkpt>
      <trkpt lat="50.52958" lon="3.42083">
        <ele>78</ele>
        <time>2017-09-17T10:08:26.000Z</time>
      </trkpt>
      <trkpt lat="50.52951" lon="3.4207">
        <ele>78</ele>
        <time>2017-09-17T10:08:29.000Z</time>
      </trkpt>
      <trkpt lat="50.52918" lon="3.42072">
        <ele>82</ele>
        <time>2017-09-17T10:08:35.000Z</time>
      </trkpt>
      <trkpt lat="50.52899" lon="3.4209">
        <ele>83</ele>
        <time>2017-09-17T10:08:38.000Z</time>
      </trkpt>
      <trkpt lat="50.52886" lon="3.42089">
        <ele>83</ele>
        <time>2017-09-17T10:08:41.000Z</time>
      </trkpt>
      <trkpt lat="50.52872" lon="3.42093">
        <ele>86</ele>
        <time>2017-09-17T10:08:44.000Z</time>
      </trkpt>
      <trkpt lat="50.52847" lon="3.42099">
        <ele>85</ele>
        <time>2017-09-17T10:08:50.000Z</time>
      </trkpt>
      <trkpt lat="50.52836" lon="3.42097">
        <ele>83</ele>
        <time>2017-09-17T10:08:53.000Z</time>
      </trkpt>
      <trkpt lat="50.52828" lon="3.42088">
        <ele>82</ele>
        <time>2017-09-17T10:08:56.000Z</time>
      </trkpt>
      <trkpt lat="50.52824" lon="3.42086">
        <ele>82</ele>
        <time>2017-09-17T10:09:02.000Z</time>
      </trkpt>
      <trkpt lat="50.52821" lon="3.42081">
        <ele>77</ele>
        <time>2017-09-17T10:09:17.000Z</time>
      </trkpt>
      <trkpt lat="50.52827" lon="3.42066">
        <ele>79</ele>
        <time>2017-09-17T10:26:57.000Z</time>
      </trkpt>
      <trkpt lat="50.52822" lon="3.42076">
        <ele>81</ele>
        <time>2017-09-17T10:27:08.000Z</time>
      </trkpt>
      <trkpt lat="50.52794" lon="3.42078">
        <ele>78</ele>
        <time>2017-09-17T10:27:21.000Z</time>
      </trkpt>
      <trkpt lat="50.52768" lon="3.42077">
        <ele>79</ele>
        <time>2017-09-17T10:27:26.000Z</time>
      </trkpt>
      <trkpt lat="50.5275" lon="3.4207">
        <ele>75</ele>
        <time>2017-09-17T10:27:29.000Z</time>
      </trkpt>
      <trkpt lat="50.52722" lon="3.42065">
        <ele>81</ele>
        <time>2017-09-17T10:27:35.000Z</time>
      </trkpt>
      <trkpt lat="50.52707" lon="3.42062">
        <ele>82</ele>
        <time>2017-09-17T10:27:38.000Z</time>
      </trkpt>
      <trkpt lat="50.52681" lon="3.42054">
        <ele>82</ele>
        <time>2017-09-17T10:27:44.000Z</time>
      </trkpt>
      <trkpt lat="50.52657" lon="3.42044">
        <ele>80</ele>
        <time>2017-09-17T10:27:50.000Z</time>
      </trkpt>
      <trkpt lat="50.52644" lon="3.42039">
        <ele>80</ele>
        <time>2017-09-17T10:27:53.000Z</time>
      </trkpt>
      <trkpt lat="50.52614" lon="3.42039">
        <ele>78</ele>
        <time>2017-09-17T10:27:59.000Z</time>
      </trkpt>
      <trkpt lat="50.52599" lon="3.4204">
        <ele>76</ele>
        <time>2017-09-17T10:28:02.000Z</time>
      </trkpt>
      <trkpt lat="50.52582" lon="3.42042">
        <ele>73</ele>
        <time>2017-09-17T10:28:05.000Z</time>
      </trkpt>
      <trkpt lat="50.52568" lon="3.42038">
        <ele>75</ele>
        <time>2017-09-17T10:28:08.000Z</time>
      </trkpt>
      <trkpt lat="50.52556" lon="3.42037">
        <ele>79</ele>
        <time>2017-09-17T10:28:11.000Z</time>
      </trkpt>
      <trkpt lat="50.52534" lon="3.42027">
        <ele>79</ele>
        <time>2017-09-17T10:28:17.000Z</time>
      </trkpt>
      <trkpt lat="50.52507" lon="3.42015">
        <ele>81</ele>
        <time>2017-09-17T10:28:23.000Z</time>
      </trkpt>
      <trkpt lat="50.52489" lon="3.42012">
        <ele>80</ele>
        <time>2017-09-17T10:28:26.000Z</time>
      </trkpt>
      <trkpt lat="50.52463" lon="3.42008">
        <ele>78</ele>
        <time>2017-09-17T10:28:32.000Z</time>
      </trkpt>
      <trkpt lat="50.52428" lon="3.42006">
        <ele>77</ele>
        <time>2017-09-17T10:28:38.000Z</time>
      </trkpt>
      <trkpt lat="50.52415" lon="3.41999">
        <ele>76</ele>
        <time>2017-09-17T10:28:41.000Z</time>
      </trkpt>
      <trkpt lat="50.52401" lon="3.41998">
        <ele>76</ele>
        <time>2017-09-17T10:28:44.000Z</time>
      </trkpt>
      <trkpt lat="50.52388" lon="3.41991">
        <ele>76</ele>
        <time>2017-09-17T10:28:47.000Z</time>
      </trkpt>
      <trkpt lat="50.52361" lon="3.41981">
        <ele>72</ele>
        <time>2017-09-17T10:28:53.000Z</time>
      </trkpt>
      <trkpt lat="50.52348" lon="3.41982">
        <ele>70</ele>
        <time>2017-09-17T10:28:56.000Z</time>
      </trkpt>
      <trkpt lat="50.52337" lon="3.41971">
        <ele>69</ele>
        <time>2017-09-17T10:28:59.000Z</time>
      </trkpt>
      <trkpt lat="50.52321" lon="3.41973">
        <ele>68</ele>
        <time>2017-09-17T10:29:02.000Z</time>
      </trkpt>
      <trkpt lat="50.52287" lon="3.41967">
        <ele>70</ele>
        <time>2017-09-17T10:29:08.000Z</time>
      </trkpt>
      <trkpt lat="50.52276" lon="3.41962">
        <ele>71</ele>
        <time>2017-09-17T10:29:11.000Z</time>
      </trkpt>
      <trkpt lat="50.52264" lon="3.4196">
        <ele>71</ele>
        <time>2017-09-17T10:29:14.000Z</time>
      </trkpt>
      <trkpt lat="50.5225" lon="3.41961">
        <ele>73</ele>
        <time>2017-09-17T10:29:17.000Z</time>
      </trkpt>
      <trkpt lat="50.52237" lon="3.41964">
        <ele>74</ele>
        <time>2017-09-17T10:29:20.000Z</time>
      </trkpt>
      <trkpt lat="50.52207" lon="3.41953">
        <ele>73</ele>
        <time>2017-09-17T10:29:26.000Z</time>
      </trkpt>
      <trkpt lat="50.52193" lon="3.41954">
        <ele>74</ele>
        <time>2017-09-17T10:29:29.000Z</time>
      </trkpt>
      <trkpt lat="50.52181" lon="3.41952">
        <ele>74</ele>
        <time>2017-09-17T10:29:32.000Z</time>
      </trkpt>
      <trkpt lat="50.52147" lon="3.41937">
        <ele>75</ele>
        <time>2017-09-17T10:29:39.000Z</time>
      </trkpt>
      <trkpt lat="50.52116" lon="3.41937">
        <ele>72</ele>
        <time>2017-09-17T10:29:45.000Z</time>
      </trkpt>
      <trkpt lat="50.52102" lon="3.41937">
        <ele>72</ele>
        <time>2017-09-17T10:29:48.000Z</time>
      </trkpt>
      <trkpt lat="50.52087" lon="3.41935">
        <ele>73</ele>
        <time>2017-09-17T10:29:51.000Z</time>
      </trkpt>
      <trkpt lat="50.52074" lon="3.41927">
        <ele>74</ele>
        <time>2017-09-17T10:29:54.000Z</time>
      </trkpt>
      <trkpt lat="50.52061" lon="3.41922">
        <ele>73</ele>
        <time>2017-09-17T10:29:57.000Z</time>
      </trkpt>
      <trkpt lat="50.52031" lon="3.41914">
        <ele>72</ele>
        <time>2017-09-17T10:30:03.000Z</time>
      </trkpt>
      <trkpt lat="50.52004" lon="3.41909">
        <ele>73</ele>
        <time>2017-09-17T10:30:09.000Z</time>
      </trkpt>
      <trkpt lat="50.51978" lon="3.41907">
        <ele>73</ele>
        <time>2017-09-17T10:30:14.000Z</time>
      </trkpt>
      <trkpt lat="50.51952" lon="3.41905">
        <ele>73</ele>
        <time>2017-09-17T10:30:20.000Z</time>
      </trkpt>
      <trkpt lat="50.51935" lon="3.41905">
        <ele>75</ele>
        <time>2017-09-17T10:30:23.000Z</time>
      </trkpt>
      <trkpt lat="50.51914" lon="3.41901">
        <ele>73</ele>
        <time>2017-09-17T10:30:29.000Z</time>
      </trkpt>
      <trkpt lat="50.51896" lon="3.41907">
        <ele>76</ele>
        <time>2017-09-17T10:30:32.000Z</time>
      </trkpt>
      <trkpt lat="50.51869" lon="3.41911">
        <ele>75</ele>
        <time>2017-09-17T10:30:38.000Z</time>
      </trkpt>
      <trkpt lat="50.51834" lon="3.41905">
        <ele>75</ele>
        <time>2017-09-17T10:30:44.000Z</time>
      </trkpt>
      <trkpt lat="50.518" lon="3.41913">
        <ele>75</ele>
        <time>2017-09-17T10:30:50.000Z</time>
      </trkpt>
      <trkpt lat="50.51784" lon="3.41919">
        <ele>73</ele>
        <time>2017-09-17T10:30:53.000Z</time>
      </trkpt>
      <trkpt lat="50.51771" lon="3.41921">
        <ele>74</ele>
        <time>2017-09-17T10:30:56.000Z</time>
      </trkpt>
      <trkpt lat="50.51742" lon="3.41922">
        <ele>74</ele>
        <time>2017-09-17T10:31:02.000Z</time>
      </trkpt>
      <trkpt lat="50.51722" lon="3.41918">
        <ele>73</ele>
        <time>2017-09-17T10:31:05.000Z</time>
      </trkpt>
      <trkpt lat="50.5168" lon="3.41928">
        <ele>66</ele>
        <time>2017-09-17T10:31:12.000Z</time>
      </trkpt>
      <trkpt lat="50.5165" lon="3.41933">
        <ele>69</ele>
        <time>2017-09-17T10:31:18.000Z</time>
      </trkpt>
      <trkpt lat="50.51617" lon="3.41941">
        <ele>69</ele>
        <time>2017-09-17T10:31:24.000Z</time>
      </trkpt>
      <trkpt lat="50.51601" lon="3.41941">
        <ele>69</ele>
        <time>2017-09-17T10:31:27.000Z</time>
      </trkpt>
      <trkpt lat="50.51577" lon="3.41924">
        <ele>74</ele>
        <time>2017-09-17T10:31:33.000Z</time>
      </trkpt>
      <trkpt lat="50.51562" lon="3.41929">
        <ele>74</ele>
        <time>2017-09-17T10:31:36.000Z</time>
      </trkpt>
      <trkpt lat="50.51536" lon="3.41924">
        <ele>72</ele>
        <time>2017-09-17T10:31:42.000Z</time>
      </trkpt>
      <trkpt lat="50.51511" lon="3.41927">
        <ele>72</ele>
        <time>2017-09-17T10:31:48.000Z</time>
      </trkpt>
      <trkpt lat="50.51492" lon="3.41947">
        <ele>73</ele>
        <time>2017-09-17T10:31:54.000Z</time>
      </trkpt>
      <trkpt lat="50.51484" lon="3.41954">
        <ele>73</ele>
        <time>2017-09-17T10:31:57.000Z</time>
      </trkpt>
      <trkpt lat="50.51465" lon="3.41961">
        <ele>71</ele>
        <time>2017-09-17T10:32:03.000Z</time>
      </trkpt>
      <trkpt lat="50.51446" lon="3.4197">
        <ele>72</ele>
        <time>2017-09-17T10:32:08.000Z</time>
      </trkpt>
      <trkpt lat="50.51429" lon="3.41977">
        <ele>72</ele>
        <time>2017-09-17T10:32:12.000Z</time>
      </trkpt>
      <trkpt lat="50.51401" lon="3.41977">
        <ele>74</ele>
        <time>2017-09-17T10:32:18.000Z</time>
      </trkpt>
      <trkpt lat="50.51374" lon="3.41984">
        <ele>74</ele>
        <time>2017-09-17T10:32:24.000Z</time>
      </trkpt>
      <trkpt lat="50.51349" lon="3.41984">
        <ele>72</ele>
        <time>2017-09-17T10:32:30.000Z</time>
      </trkpt>
      <trkpt lat="50.51323" lon="3.41993">
        <ele>71</ele>
        <time>2017-09-17T10:32:36.000Z</time>
      </trkpt>
      <trkpt lat="50.51294" lon="3.41996">
        <ele>70</ele>
        <time>2017-09-17T10:32:42.000Z</time>
      </trkpt>
      <trkpt lat="50.51279" lon="3.42005">
        <ele>72</ele>
        <time>2017-09-17T10:32:45.000Z</time>
      </trkpt>
      <trkpt lat="50.51256" lon="3.4202">
        <ele>73</ele>
        <time>2017-09-17T10:32:50.000Z</time>
      </trkpt>
      <trkpt lat="50.51234" lon="3.42035">
        <ele>72</ele>
        <time>2017-09-17T10:32:54.000Z</time>
      </trkpt>
      <trkpt lat="50.51206" lon="3.42055">
        <ele>69</ele>
        <time>2017-09-17T10:33:00.000Z</time>
      </trkpt>
      <trkpt lat="50.51183" lon="3.42073">
        <ele>70</ele>
        <time>2017-09-17T10:33:05.000Z</time>
      </trkpt>
      <trkpt lat="50.5117" lon="3.42083">
        <ele>68</ele>
        <time>2017-09-17T10:33:08.000Z</time>
      </trkpt>
      <trkpt lat="50.51149" lon="3.42119">
        <ele>67</ele>
        <time>2017-09-17T10:33:12.000Z</time>
      </trkpt>
      <trkpt lat="50.51136" lon="3.42127">
        <ele>73</ele>
        <time>2017-09-17T10:33:15.000Z</time>
      </trkpt>
      <trkpt lat="50.51121" lon="3.42147">
        <ele>73</ele>
        <time>2017-09-17T10:33:20.000Z</time>
      </trkpt>
      <trkpt lat="50.51104" lon="3.4217">
        <ele>72</ele>
        <time>2017-09-17T10:33:24.000Z</time>
      </trkpt>
      <trkpt lat="50.51093" lon="3.4219">
        <ele>71</ele>
        <time>2017-09-17T10:33:27.000Z</time>
      </trkpt>
      <trkpt lat="50.51067" lon="3.42216">
        <ele>69</ele>
        <time>2017-09-17T10:33:33.000Z</time>
      </trkpt>
      <trkpt lat="50.51057" lon="3.42228">
        <ele>69</ele>
        <time>2017-09-17T10:33:36.000Z</time>
      </trkpt>
      <trkpt lat="50.5105" lon="3.42248">
        <ele>69</ele>
        <time>2017-09-17T10:33:39.000Z</time>
      </trkpt>
      <trkpt lat="50.51041" lon="3.42263">
        <ele>67</ele>
        <time>2017-09-17T10:33:42.000Z</time>
      </trkpt>
      <trkpt lat="50.51045" lon="3.42276">
        <ele>66</ele>
        <time>2017-09-17T10:33:48.000Z</time>
      </trkpt>
      <trkpt lat="50.51036" lon="3.42288">
        <ele>63</ele>
        <time>2017-09-17T10:33:54.000Z</time>
      </trkpt>
      <trkpt lat="50.51025" lon="3.42297">
        <ele>64</ele>
        <time>2017-09-17T10:33:59.000Z</time>
      </trkpt>
      <trkpt lat="50.51022" lon="3.42309">
        <ele>64</ele>
        <time>2017-09-17T10:34:05.000Z</time>
      </trkpt>
      <trkpt lat="50.51025" lon="3.42302">
        <ele>68</ele>
        <time>2017-09-17T10:34:18.000Z</time>
      </trkpt>
      <trkpt lat="50.5104" lon="3.4229">
        <ele>69</ele>
        <time>2017-09-17T10:34:24.000Z</time>
      </trkpt>
      <trkpt lat="50.51063" lon="3.42278">
        <ele>67</ele>
        <time>2017-09-17T10:34:30.000Z</time>
      </trkpt>
      <trkpt lat="50.51086" lon="3.42271">
        <ele>64</ele>
        <time>2017-09-17T10:34:36.000Z</time>
      </trkpt>
      <trkpt lat="50.51104" lon="3.42258">
        <ele>63</ele>
        <time>2017-09-17T10:34:42.000Z</time>
      </trkpt>
      <trkpt lat="50.51134" lon="3.42246">
        <ele>64</ele>
        <time>2017-09-17T10:34:48.000Z</time>
      </trkpt>
      <trkpt lat="50.51162" lon="3.42233">
        <ele>65</ele>
        <time>2017-09-17T10:34:54.000Z</time>
      </trkpt>
      <trkpt lat="50.51177" lon="3.42226">
        <ele>64</ele>
        <time>2017-09-17T10:34:57.000Z</time>
      </trkpt>
      <trkpt lat="50.51202" lon="3.42211">
        <ele>67</ele>
        <time>2017-09-17T10:35:03.000Z</time>
      </trkpt>
      <trkpt lat="50.51218" lon="3.42211">
        <ele>63</ele>
        <time>2017-09-17T10:35:06.000Z</time>
      </trkpt>
      <trkpt lat="50.51249" lon="3.42208">
        <ele>64</ele>
        <time>2017-09-17T10:35:12.000Z</time>
      </trkpt>
      <trkpt lat="50.51265" lon="3.42201">
        <ele>63</ele>
        <time>2017-09-17T10:35:15.000Z</time>
      </trkpt>
      <trkpt lat="50.51283" lon="3.42198">
        <ele>65</ele>
        <time>2017-09-17T10:35:18.000Z</time>
      </trkpt>
      <trkpt lat="50.51305" lon="3.4218">
        <ele>65</ele>
        <time>2017-09-17T10:35:24.000Z</time>
      </trkpt>
      <trkpt lat="50.51335" lon="3.42172">
        <ele>68</ele>
        <time>2017-09-17T10:35:30.000Z</time>
      </trkpt>
      <trkpt lat="50.51349" lon="3.42162">
        <ele>68</ele>
        <time>2017-09-17T10:35:33.000Z</time>
      </trkpt>
      <trkpt lat="50.51365" lon="3.42176">
        <ele>68</ele>
        <time>2017-09-17T10:35:38.000Z</time>
      </trkpt>
      <trkpt lat="50.51371" lon="3.42196">
        <ele>69</ele>
        <time>2017-09-17T10:35:41.000Z</time>
      </trkpt>
      <trkpt lat="50.51373" lon="3.42222">
        <ele>70</ele>
        <time>2017-09-17T10:35:44.000Z</time>
      </trkpt>
      <trkpt lat="50.51376" lon="3.42251">
        <ele>69</ele>
        <time>2017-09-17T10:35:47.000Z</time>
      </trkpt>
      <trkpt lat="50.51387" lon="3.42318">
        <ele>67</ele>
        <time>2017-09-17T10:35:54.000Z</time>
      </trkpt>
      <trkpt lat="50.51395" lon="3.42361">
        <ele>67</ele>
        <time>2017-09-17T10:35:59.000Z</time>
      </trkpt>
      <trkpt lat="50.514" lon="3.42376">
        <ele>69</ele>
        <time>2017-09-17T10:36:02.000Z</time>
      </trkpt>
      <trkpt lat="50.51376" lon="3.42401">
        <ele>69</ele>
        <time>2017-09-17T10:36:08.000Z</time>
      </trkpt>
      <trkpt lat="50.51363" lon="3.42409">
        <ele>66</ele>
        <time>2017-09-17T10:36:11.000Z</time>
      </trkpt>
      <trkpt lat="50.51351" lon="3.42418">
        <ele>66</ele>
        <time>2017-09-17T10:36:14.000Z</time>
      </trkpt>
      <trkpt lat="50.51327" lon="3.42451">
        <ele>67</ele>
        <time>2017-09-17T10:36:20.000Z</time>
      </trkpt>
      <trkpt lat="50.51313" lon="3.42467">
        <ele>66</ele>
        <time>2017-09-17T10:36:23.000Z</time>
      </trkpt>
      <trkpt lat="50.513" lon="3.42488">
        <ele>64</ele>
        <time>2017-09-17T10:36:26.000Z</time>
      </trkpt>
      <trkpt lat="50.51289" lon="3.42504">
        <ele>63</ele>
        <time>2017-09-17T10:36:29.000Z</time>
      </trkpt>
      <trkpt lat="50.51268" lon="3.42526">
        <ele>63</ele>
        <time>2017-09-17T10:36:35.000Z</time>
      </trkpt>
      <trkpt lat="50.51259" lon="3.42542">
        <ele>64</ele>
        <time>2017-09-17T10:36:38.000Z</time>
      </trkpt>
      <trkpt lat="50.51244" lon="3.42558">
        <ele>66</ele>
        <time>2017-09-17T10:36:41.000Z</time>
      </trkpt>
      <trkpt lat="50.51233" lon="3.42576">
        <ele>66</ele>
        <time>2017-09-17T10:36:44.000Z</time>
      </trkpt>
      <trkpt lat="50.51211" lon="3.42599">
        <ele>63</ele>
        <time>2017-09-17T10:36:50.000Z</time>
      </trkpt>
      <trkpt lat="50.51189" lon="3.42634">
        <ele>69</ele>
        <time>2017-09-17T10:36:56.000Z</time>
      </trkpt>
      <trkpt lat="50.51173" lon="3.42657">
        <ele>67</ele>
        <time>2017-09-17T10:36:59.000Z</time>
      </trkpt>
      <trkpt lat="50.51161" lon="3.42678">
        <ele>67</ele>
        <time>2017-09-17T10:37:03.000Z</time>
      </trkpt>
      <trkpt lat="50.51138" lon="3.42711">
        <ele>64</ele>
        <time>2017-09-17T10:37:09.000Z</time>
      </trkpt>
      <trkpt lat="50.51127" lon="3.42728">
        <ele>62</ele>
        <time>2017-09-17T10:37:12.000Z</time>
      </trkpt>
      <trkpt lat="50.51118" lon="3.42745">
        <ele>64</ele>
        <time>2017-09-17T10:37:15.000Z</time>
      </trkpt>
      <trkpt lat="50.51109" lon="3.42763">
        <ele>63</ele>
        <time>2017-09-17T10:37:18.000Z</time>
      </trkpt>
      <trkpt lat="50.51099" lon="3.42781">
        <ele>65</ele>
        <time>2017-09-17T10:37:21.000Z</time>
      </trkpt>
      <trkpt lat="50.51078" lon="3.42812">
        <ele>63</ele>
        <time>2017-09-17T10:37:27.000Z</time>
      </trkpt>
      <trkpt lat="50.51065" lon="3.42828">
        <ele>62</ele>
        <time>2017-09-17T10:37:30.000Z</time>
      </trkpt>
      <trkpt lat="50.51044" lon="3.42863">
        <ele>65</ele>
        <time>2017-09-17T10:37:36.000Z</time>
      </trkpt>
      <trkpt lat="50.51033" lon="3.42881">
        <ele>68</ele>
        <time>2017-09-17T10:37:39.000Z</time>
      </trkpt>
      <trkpt lat="50.51025" lon="3.42898">
        <ele>71</ele>
        <time>2017-09-17T10:37:42.000Z</time>
      </trkpt>
      <trkpt lat="50.51004" lon="3.42928">
        <ele>66</ele>
        <time>2017-09-17T10:37:48.000Z</time>
      </trkpt>
      <trkpt lat="50.50993" lon="3.42946">
        <ele>66</ele>
        <time>2017-09-17T10:37:51.000Z</time>
      </trkpt>
      <trkpt lat="50.50972" lon="3.42982">
        <ele>65</ele>
        <time>2017-09-17T10:37:57.000Z</time>
      </trkpt>
      <trkpt lat="50.5095" lon="3.43017">
        <ele>63</ele>
        <time>2017-09-17T10:38:03.000Z</time>
      </trkpt>
      <trkpt lat="50.50943" lon="3.43031">
        <ele>64</ele>
        <time>2017-09-17T10:38:06.000Z</time>
      </trkpt>
      <trkpt lat="50.5093" lon="3.43048">
        <ele>65</ele>
        <time>2017-09-17T10:38:09.000Z</time>
      </trkpt>
      <trkpt lat="50.50917" lon="3.43066">
        <ele>64</ele>
        <time>2017-09-17T10:38:12.000Z</time>
      </trkpt>
      <trkpt lat="50.50906" lon="3.43084">
        <ele>63</ele>
        <time>2017-09-17T10:38:15.000Z</time>
      </trkpt>
      <trkpt lat="50.50893" lon="3.43098">
        <ele>63</ele>
        <time>2017-09-17T10:38:18.000Z</time>
      </trkpt>
      <trkpt lat="50.50868" lon="3.43135">
        <ele>63</ele>
        <time>2017-09-17T10:38:24.000Z</time>
      </trkpt>
      <trkpt lat="50.50858" lon="3.43152">
        <ele>65</ele>
        <time>2017-09-17T10:38:27.000Z</time>
      </trkpt>
      <trkpt lat="50.50847" lon="3.43168">
        <ele>64</ele>
        <time>2017-09-17T10:38:30.000Z</time>
      </trkpt>
      <trkpt lat="50.50827" lon="3.43202">
        <ele>66</ele>
        <time>2017-09-17T10:38:36.000Z</time>
      </trkpt>
      <trkpt lat="50.50804" lon="3.43232">
        <ele>66</ele>
        <time>2017-09-17T10:38:42.000Z</time>
      </trkpt>
      <trkpt lat="50.50791" lon="3.43245">
        <ele>65</ele>
        <time>2017-09-17T10:38:45.000Z</time>
      </trkpt>
      <trkpt lat="50.50775" lon="3.43268">
        <ele>65</ele>
        <time>2017-09-17T10:38:51.000Z</time>
      </trkpt>
      <trkpt lat="50.50767" lon="3.43278">
        <ele>67</ele>
        <time>2017-09-17T10:38:54.000Z</time>
      </trkpt>
      <trkpt lat="50.50755" lon="3.43298">
        <ele>66</ele>
        <time>2017-09-17T10:39:00.000Z</time>
      </trkpt>
      <trkpt lat="50.50739" lon="3.43316">
        <ele>62</ele>
        <time>2017-09-17T10:39:05.000Z</time>
      </trkpt>
      <trkpt lat="50.50722" lon="3.43348">
        <ele>59</ele>
        <time>2017-09-17T10:39:12.000Z</time>
      </trkpt>
      <trkpt lat="50.50704" lon="3.43377">
        <ele>63</ele>
        <time>2017-09-17T10:39:18.000Z</time>
      </trkpt>
      <trkpt lat="50.50695" lon="3.4339">
        <ele>63</ele>
        <time>2017-09-17T10:39:21.000Z</time>
      </trkpt>
      <trkpt lat="50.50676" lon="3.43418">
        <ele>62</ele>
        <time>2017-09-17T10:39:27.000Z</time>
      </trkpt>
      <trkpt lat="50.50657" lon="3.43447">
        <ele>63</ele>
        <time>2017-09-17T10:39:33.000Z</time>
      </trkpt>
      <trkpt lat="50.50638" lon="3.43476">
        <ele>65</ele>
        <time>2017-09-17T10:39:39.000Z</time>
      </trkpt>
      <trkpt lat="50.50629" lon="3.43486">
        <ele>67</ele>
        <time>2017-09-17T10:39:42.000Z</time>
      </trkpt>
      <trkpt lat="50.50612" lon="3.43519">
        <ele>68</ele>
        <time>2017-09-17T10:39:48.000Z</time>
      </trkpt>
      <trkpt lat="50.50592" lon="3.43548">
        <ele>68</ele>
        <time>2017-09-17T10:39:54.000Z</time>
      </trkpt>
      <trkpt lat="50.50572" lon="3.43577">
        <ele>69</ele>
        <time>2017-09-17T10:40:00.000Z</time>
      </trkpt>
      <trkpt lat="50.50555" lon="3.436">
        <ele>67</ele>
        <time>2017-09-17T10:40:05.000Z</time>
      </trkpt>
      <trkpt lat="50.50546" lon="3.43612">
        <ele>64</ele>
        <time>2017-09-17T10:40:08.000Z</time>
      </trkpt>
      <trkpt lat="50.50529" lon="3.43592">
        <ele>62</ele>
        <time>2017-09-17T10:40:14.000Z</time>
      </trkpt>
      <trkpt lat="50.50518" lon="3.43571">
        <ele>63</ele>
        <time>2017-09-17T10:40:20.000Z</time>
      </trkpt>
      <trkpt lat="50.50514" lon="3.43553">
        <ele>66</ele>
        <time>2017-09-17T10:40:23.000Z</time>
      </trkpt>
      <trkpt lat="50.50506" lon="3.43554">
        <ele>66</ele>
        <time>2017-09-17T10:40:26.000Z</time>
      </trkpt>
      <trkpt lat="50.50497" lon="3.43548">
        <ele>64</ele>
        <time>2017-09-17T10:40:29.000Z</time>
      </trkpt>
      <trkpt lat="50.50486" lon="3.43546">
        <ele>69</ele>
        <time>2017-09-17T10:40:35.000Z</time>
      </trkpt>
      <trkpt lat="50.5047" lon="3.43526">
        <ele>67</ele>
        <time>2017-09-17T10:40:41.000Z</time>
      </trkpt>
      <trkpt lat="50.50465" lon="3.43513">
        <ele>64</ele>
        <time>2017-09-17T10:40:44.000Z</time>
      </trkpt>
      <trkpt lat="50.50461" lon="3.43495">
        <ele>61</ele>
        <time>2017-09-17T10:40:47.000Z</time>
      </trkpt>
      <trkpt lat="50.50453" lon="3.43488">
        <ele>61</ele>
        <time>2017-09-17T10:40:50.000Z</time>
      </trkpt>
      <trkpt lat="50.5044" lon="3.43463">
        <ele>60</ele>
        <time>2017-09-17T10:40:56.000Z</time>
      </trkpt>
      <trkpt lat="50.50433" lon="3.43458">
        <ele>63</ele>
        <time>2017-09-17T10:40:59.000Z</time>
      </trkpt>
      <trkpt lat="50.50426" lon="3.43453">
        <ele>65</ele>
        <time>2017-09-17T10:41:02.000Z</time>
      </trkpt>
      <trkpt lat="50.50413" lon="3.43446">
        <ele>66</ele>
        <time>2017-09-17T10:41:08.000Z</time>
      </trkpt>
      <trkpt lat="50.50407" lon="3.43449">
        <ele>67</ele>
        <time>2017-09-17T10:41:11.000Z</time>
      </trkpt>
      <trkpt lat="50.50393" lon="3.43469">
        <ele>66</ele>
        <time>2017-09-17T10:41:17.000Z</time>
      </trkpt>
      <trkpt lat="50.50388" lon="3.43483">
        <ele>66</ele>
        <time>2017-09-17T10:41:20.000Z</time>
      </trkpt>
      <trkpt lat="50.50378" lon="3.435">
        <ele>66</ele>
        <time>2017-09-17T10:41:26.000Z</time>
      </trkpt>
      <trkpt lat="50.50371" lon="3.43509">
        <ele>65</ele>
        <time>2017-09-17T10:41:29.000Z</time>
      </trkpt>
      <trkpt lat="50.50356" lon="3.43529">
        <ele>59</ele>
        <time>2017-09-17T10:41:35.000Z</time>
      </trkpt>
      <trkpt lat="50.50351" lon="3.43542">
        <ele>60</ele>
        <time>2017-09-17T10:41:38.000Z</time>
      </trkpt>
      <trkpt lat="50.50334" lon="3.43564">
        <ele>63</ele>
        <time>2017-09-17T10:41:44.000Z</time>
      </trkpt>
      <trkpt lat="50.50328" lon="3.43572">
        <ele>65</ele>
        <time>2017-09-17T10:41:47.000Z</time>
      </trkpt>
      <trkpt lat="50.50322" lon="3.43584">
        <ele>65</ele>
        <time>2017-09-17T10:41:50.000Z</time>
      </trkpt>
      <trkpt lat="50.50309" lon="3.43599">
        <ele>60</ele>
        <time>2017-09-17T10:41:56.000Z</time>
      </trkpt>
      <trkpt lat="50.50303" lon="3.43607">
        <ele>59</ele>
        <time>2017-09-17T10:41:59.000Z</time>
      </trkpt>
      <trkpt lat="50.50288" lon="3.43621">
        <ele>60</ele>
        <time>2017-09-17T10:42:05.000Z</time>
      </trkpt>
      <trkpt lat="50.5028" lon="3.43626">
        <ele>60</ele>
        <time>2017-09-17T10:42:08.000Z</time>
      </trkpt>
      <trkpt lat="50.50259" lon="3.43651">
        <ele>67</ele>
        <time>2017-09-17T10:42:15.000Z</time>
      </trkpt>
      <trkpt lat="50.50245" lon="3.43667">
        <ele>69</ele>
        <time>2017-09-17T10:42:21.000Z</time>
      </trkpt>
      <trkpt lat="50.50238" lon="3.43675">
        <ele>66</ele>
        <time>2017-09-17T10:42:24.000Z</time>
      </trkpt>
      <trkpt lat="50.50218" lon="3.43695">
        <ele>65</ele>
        <time>2017-09-17T10:42:30.000Z</time>
      </trkpt>
      <trkpt lat="50.50211" lon="3.43705">
        <ele>66</ele>
        <time>2017-09-17T10:42:33.000Z</time>
      </trkpt>
      <trkpt lat="50.50197" lon="3.43722">
        <ele>67</ele>
        <time>2017-09-17T10:42:39.000Z</time>
      </trkpt>
      <trkpt lat="50.50185" lon="3.43738">
        <ele>67</ele>
        <time>2017-09-17T10:42:44.000Z</time>
      </trkpt>
      <trkpt lat="50.50176" lon="3.43765">
        <ele>70</ele>
        <time>2017-09-17T10:42:50.000Z</time>
      </trkpt>
      <trkpt lat="50.50165" lon="3.43765">
        <ele>66</ele>
        <time>2017-09-17T10:42:53.000Z</time>
      </trkpt>
      <trkpt lat="50.50151" lon="3.43763">
        <ele>67</ele>
        <time>2017-09-17T10:42:59.000Z</time>
      </trkpt>
      <trkpt lat="50.50146" lon="3.43736">
        <ele>66</ele>
        <time>2017-09-17T10:43:02.000Z</time>
      </trkpt>
      <trkpt lat="50.50139" lon="3.43724">
        <ele>69</ele>
        <time>2017-09-17T10:43:05.000Z</time>
      </trkpt>
      <trkpt lat="50.50125" lon="3.437">
        <ele>66</ele>
        <time>2017-09-17T10:43:11.000Z</time>
      </trkpt>
      <trkpt lat="50.50114" lon="3.4367">
        <ele>64</ele>
        <time>2017-09-17T10:43:17.000Z</time>
      </trkpt>
      <trkpt lat="50.50105" lon="3.43654">
        <ele>64</ele>
        <time>2017-09-17T10:43:21.000Z</time>
      </trkpt>
      <trkpt lat="50.50099" lon="3.43633">
        <ele>61</ele>
        <time>2017-09-17T10:43:26.000Z</time>
      </trkpt>
      <trkpt lat="50.5009" lon="3.43627">
        <ele>63</ele>
        <time>2017-09-17T10:43:32.000Z</time>
      </trkpt>
      <trkpt lat="50.50074" lon="3.43649">
        <ele>66</ele>
        <time>2017-09-17T10:43:38.000Z</time>
      </trkpt>
      <trkpt lat="50.50058" lon="3.43675">
        <ele>67</ele>
        <time>2017-09-17T10:43:44.000Z</time>
      </trkpt>
      <trkpt lat="50.50052" lon="3.43681">
        <ele>63</ele>
        <time>2017-09-17T10:43:47.000Z</time>
      </trkpt>
      <trkpt lat="50.50044" lon="3.43696">
        <ele>61</ele>
        <time>2017-09-17T10:43:50.000Z</time>
      </trkpt>
      <trkpt lat="50.50021" lon="3.43729">
        <ele>61</ele>
        <time>2017-09-17T10:43:56.000Z</time>
      </trkpt>
      <trkpt lat="50.50011" lon="3.43745">
        <ele>65</ele>
        <time>2017-09-17T10:43:59.000Z</time>
      </trkpt>
      <trkpt lat="50.49992" lon="3.43775">
        <ele>67</ele>
        <time>2017-09-17T10:44:05.000Z</time>
      </trkpt>
      <trkpt lat="50.49978" lon="3.43786">
        <ele>66</ele>
        <time>2017-09-17T10:44:08.000Z</time>
      </trkpt>
      <trkpt lat="50.49971" lon="3.43806">
        <ele>68</ele>
        <time>2017-09-17T10:44:11.000Z</time>
      </trkpt>
      <trkpt lat="50.49965" lon="3.43821">
        <ele>71</ele>
        <time>2017-09-17T10:44:14.000Z</time>
      </trkpt>
      <trkpt lat="50.49954" lon="3.43841">
        <ele>72</ele>
        <time>2017-09-17T10:44:17.000Z</time>
      </trkpt>
      <trkpt lat="50.49944" lon="3.43858">
        <ele>73</ele>
        <time>2017-09-17T10:44:20.000Z</time>
      </trkpt>
      <trkpt lat="50.49916" lon="3.43892">
        <ele>70</ele>
        <time>2017-09-17T10:44:26.000Z</time>
      </trkpt>
      <trkpt lat="50.49892" lon="3.43923">
        <ele>65</ele>
        <time>2017-09-17T10:44:32.000Z</time>
      </trkpt>
      <trkpt lat="50.49879" lon="3.43941">
        <ele>66</ele>
        <time>2017-09-17T10:44:36.000Z</time>
      </trkpt>
      <trkpt lat="50.49868" lon="3.43956">
        <ele>68</ele>
        <time>2017-09-17T10:44:39.000Z</time>
      </trkpt>
      <trkpt lat="50.49852" lon="3.43969">
        <ele>66</ele>
        <time>2017-09-17T10:44:42.000Z</time>
      </trkpt>
      <trkpt lat="50.49828" lon="3.43987">
        <ele>68</ele>
        <time>2017-09-17T10:44:48.000Z</time>
      </trkpt>
      <trkpt lat="50.49812" lon="3.43999">
        <ele>66</ele>
        <time>2017-09-17T10:44:51.000Z</time>
      </trkpt>
      <trkpt lat="50.49786" lon="3.44014">
        <ele>63</ele>
        <time>2017-09-17T10:44:57.000Z</time>
      </trkpt>
      <trkpt lat="50.49765" lon="3.44033">
        <ele>62</ele>
        <time>2017-09-17T10:45:03.000Z</time>
      </trkpt>
      <trkpt lat="50.49748" lon="3.44047">
        <ele>62</ele>
        <time>2017-09-17T10:45:06.000Z</time>
      </trkpt>
      <trkpt lat="50.4974" lon="3.44059">
        <ele>64</ele>
        <time>2017-09-17T10:45:09.000Z</time>
      </trkpt>
      <trkpt lat="50.49716" lon="3.44084">
        <ele>70</ele>
        <time>2017-09-17T10:45:15.000Z</time>
      </trkpt>
      <trkpt lat="50.49697" lon="3.44105">
        <ele>68</ele>
        <time>2017-09-17T10:45:20.000Z</time>
      </trkpt>
      <trkpt lat="50.49677" lon="3.4413">
        <ele>70</ele>
        <time>2017-09-17T10:45:26.000Z</time>
      </trkpt>
      <trkpt lat="50.49665" lon="3.44159">
        <ele>66</ele>
        <time>2017-09-17T10:45:30.000Z</time>
      </trkpt>
      <trkpt lat="50.49653" lon="3.44176">
        <ele>63</ele>
        <time>2017-09-17T10:45:33.000Z</time>
      </trkpt>
      <trkpt lat="50.49638" lon="3.44215">
        <ele>64</ele>
        <time>2017-09-17T10:45:39.000Z</time>
      </trkpt>
      <trkpt lat="50.49627" lon="3.44234">
        <ele>63</ele>
        <time>2017-09-17T10:45:42.000Z</time>
      </trkpt>
      <trkpt lat="50.4961" lon="3.4427">
        <ele>66</ele>
        <time>2017-09-17T10:45:48.000Z</time>
      </trkpt>
      <trkpt lat="50.49606" lon="3.44284">
        <ele>67</ele>
        <time>2017-09-17T10:45:51.000Z</time>
      </trkpt>
      <trkpt lat="50.49612" lon="3.44325">
        <ele>69</ele>
        <time>2017-09-17T10:45:57.000Z</time>
      </trkpt>
      <trkpt lat="50.49628" lon="3.44357">
        <ele>70</ele>
        <time>2017-09-17T10:46:03.000Z</time>
      </trkpt>
      <trkpt lat="50.49649" lon="3.44374">
        <ele>69</ele>
        <time>2017-09-17T10:46:08.000Z</time>
      </trkpt>
      <trkpt lat="50.49659" lon="3.44385">
        <ele>68</ele>
        <time>2017-09-17T10:46:11.000Z</time>
      </trkpt>
      <trkpt lat="50.49672" lon="3.44414">
        <ele>68</ele>
        <time>2017-09-17T10:46:17.000Z</time>
      </trkpt>
      <trkpt lat="50.49679" lon="3.44431">
        <ele>67</ele>
        <time>2017-09-17T10:46:20.000Z</time>
      </trkpt>
      <trkpt lat="50.49691" lon="3.44448">
        <ele>67</ele>
        <time>2017-09-17T10:46:23.000Z</time>
      </trkpt>
      <trkpt lat="50.49698" lon="3.44468">
        <ele>64</ele>
        <time>2017-09-17T10:46:26.000Z</time>
      </trkpt>
      <trkpt lat="50.49715" lon="3.44512">
        <ele>64</ele>
        <time>2017-09-17T10:46:32.000Z</time>
      </trkpt>
      <trkpt lat="50.49728" lon="3.44535">
        <ele>66</ele>
        <time>2017-09-17T10:46:35.000Z</time>
      </trkpt>
      <trkpt lat="50.49729" lon="3.4455">
        <ele>69</ele>
        <time>2017-09-17T10:46:38.000Z</time>
      </trkpt>
      <trkpt lat="50.4973" lon="3.44583">
        <ele>70</ele>
        <time>2017-09-17T10:46:44.000Z</time>
      </trkpt>
      <trkpt lat="50.49744" lon="3.44606">
        <ele>68</ele>
        <time>2017-09-17T10:46:47.000Z</time>
      </trkpt>
      <trkpt lat="50.49756" lon="3.44654">
        <ele>63</ele>
        <time>2017-09-17T10:46:53.000Z</time>
      </trkpt>
      <trkpt lat="50.4977" lon="3.447">
        <ele>59</ele>
        <time>2017-09-17T10:46:59.000Z</time>
      </trkpt>
      <trkpt lat="50.49772" lon="3.44725">
        <ele>54</ele>
        <time>2017-09-17T10:47:02.000Z</time>
      </trkpt>
      <trkpt lat="50.49787" lon="3.44782">
        <ele>57</ele>
        <time>2017-09-17T10:47:08.000Z</time>
      </trkpt>
      <trkpt lat="50.49812" lon="3.44821">
        <ele>60</ele>
        <time>2017-09-17T10:47:15.000Z</time>
      </trkpt>
      <trkpt lat="50.4983" lon="3.44861">
        <ele>64</ele>
        <time>2017-09-17T10:47:21.000Z</time>
      </trkpt>
      <trkpt lat="50.49835" lon="3.44878">
        <ele>66</ele>
        <time>2017-09-17T10:47:24.000Z</time>
      </trkpt>
      <trkpt lat="50.49861" lon="3.44899">
        <ele>55</ele>
        <time>2017-09-17T10:47:30.000Z</time>
      </trkpt>
      <trkpt lat="50.49859" lon="3.44915">
        <ele>61</ele>
        <time>2017-09-17T10:47:33.000Z</time>
      </trkpt>
      <trkpt lat="50.49863" lon="3.44934">
        <ele>64</ele>
        <time>2017-09-17T10:47:39.000Z</time>
      </trkpt>
      <trkpt lat="50.49871" lon="3.44957">
        <ele>63</ele>
        <time>2017-09-17T10:47:45.000Z</time>
      </trkpt>
      <trkpt lat="50.49884" lon="3.44977">
        <ele>62</ele>
        <time>2017-09-17T10:47:51.000Z</time>
      </trkpt>
      <trkpt lat="50.49887" lon="3.44998">
        <ele>59</ele>
        <time>2017-09-17T10:47:57.000Z</time>
      </trkpt>
      <trkpt lat="50.49892" lon="3.45006">
        <ele>59</ele>
        <time>2017-09-17T10:48:00.000Z</time>
      </trkpt>
      <trkpt lat="50.49899" lon="3.45017">
        <ele>59</ele>
        <time>2017-09-17T10:48:06.000Z</time>
      </trkpt>
      <trkpt lat="50.49902" lon="3.45024">
        <ele>59</ele>
        <time>2017-09-17T10:48:09.000Z</time>
      </trkpt>
      <trkpt lat="50.49907" lon="3.4504">
        <ele>60</ele>
        <time>2017-09-17T10:48:15.000Z</time>
      </trkpt>
      <trkpt lat="50.49914" lon="3.45046">
        <ele>59</ele>
        <time>2017-09-17T10:48:18.000Z</time>
      </trkpt>
      <trkpt lat="50.49919" lon="3.45051">
        <ele>60</ele>
        <time>2017-09-17T10:48:21.000Z</time>
      </trkpt>
      <trkpt lat="50.49923" lon="3.45063">
        <ele>60</ele>
        <time>2017-09-17T10:48:27.000Z</time>
      </trkpt>
      <trkpt lat="50.49932" lon="3.45076">
        <ele>63</ele>
        <time>2017-09-17T10:48:33.000Z</time>
      </trkpt>
      <trkpt lat="50.49934" lon="3.45085">
        <ele>61</ele>
        <time>2017-09-17T10:48:36.000Z</time>
      </trkpt>
      <trkpt lat="50.49926" lon="3.45102">
        <ele>64</ele>
        <time>2017-09-17T10:48:42.000Z</time>
      </trkpt>
      <trkpt lat="50.49945" lon="3.4513">
        <ele>63</ele>
        <time>2017-09-17T10:48:54.000Z</time>
      </trkpt>
      <trkpt lat="50.49961" lon="3.4516">
        <ele>62</ele>
        <time>2017-09-17T10:49:00.000Z</time>
      </trkpt>
      <trkpt lat="50.49971" lon="3.45173">
        <ele>61</ele>
        <time>2017-09-17T10:49:03.000Z</time>
      </trkpt>
      <trkpt lat="50.49979" lon="3.45184">
        <ele>61</ele>
        <time>2017-09-17T10:49:06.000Z</time>
      </trkpt>
      <trkpt lat="50.49992" lon="3.45192">
        <ele>61</ele>
        <time>2017-09-17T10:49:09.000Z</time>
      </trkpt>
      <trkpt lat="50.5001" lon="3.45196">
        <ele>63</ele>
        <time>2017-09-17T10:49:14.000Z</time>
      </trkpt>
      <trkpt lat="50.50023" lon="3.45202">
        <ele>59</ele>
        <time>2017-09-17T10:49:17.000Z</time>
      </trkpt>
      <trkpt lat="50.50031" lon="3.452">
        <ele>62</ele>
        <time>2017-09-17T10:49:20.000Z</time>
      </trkpt>
      <trkpt lat="50.50047" lon="3.45196">
        <ele>65</ele>
        <time>2017-09-17T10:49:26.000Z</time>
      </trkpt>
      <trkpt lat="50.50054" lon="3.45204">
        <ele>65</ele>
        <time>2017-09-17T10:49:29.000Z</time>
      </trkpt>
      <trkpt lat="50.50071" lon="3.45212">
        <ele>62</ele>
        <time>2017-09-17T10:49:35.000Z</time>
      </trkpt>
      <trkpt lat="50.50083" lon="3.45217">
        <ele>61</ele>
        <time>2017-09-17T10:49:39.000Z</time>
      </trkpt>
      <trkpt lat="50.50094" lon="3.45212">
        <ele>64</ele>
        <time>2017-09-17T10:49:42.000Z</time>
      </trkpt>
      <trkpt lat="50.50095" lon="3.45178">
        <ele>64</ele>
        <time>2017-09-17T10:49:47.000Z</time>
      </trkpt>
      <trkpt lat="50.50103" lon="3.45125">
        <ele>64</ele>
        <time>2017-09-17T10:49:53.000Z</time>
      </trkpt>
      <trkpt lat="50.50108" lon="3.451">
        <ele>63</ele>
        <time>2017-09-17T10:49:56.000Z</time>
      </trkpt>
      <trkpt lat="50.50108" lon="3.45046">
        <ele>61</ele>
        <time>2017-09-17T10:50:02.000Z</time>
      </trkpt>
      <trkpt lat="50.50116" lon="3.44995">
        <ele>61</ele>
        <time>2017-09-17T10:50:08.000Z</time>
      </trkpt>
      <trkpt lat="50.50119" lon="3.44967">
        <ele>62</ele>
        <time>2017-09-17T10:50:11.000Z</time>
      </trkpt>
      <trkpt lat="50.50124" lon="3.44926">
        <ele>60</ele>
        <time>2017-09-17T10:50:17.000Z</time>
      </trkpt>
      <trkpt lat="50.50126" lon="3.44903">
        <ele>62</ele>
        <time>2017-09-17T10:50:20.000Z</time>
      </trkpt>
      <trkpt lat="50.5014" lon="3.44858">
        <ele>65</ele>
        <time>2017-09-17T10:50:26.000Z</time>
      </trkpt>
      <trkpt lat="50.50147" lon="3.44842">
        <ele>63</ele>
        <time>2017-09-17T10:50:29.000Z</time>
      </trkpt>
      <trkpt lat="50.50155" lon="3.44828">
        <ele>63</ele>
        <time>2017-09-17T10:50:32.000Z</time>
      </trkpt>
      <trkpt lat="50.50165" lon="3.44807">
        <ele>64</ele>
        <time>2017-09-17T10:50:35.000Z</time>
      </trkpt>
      <trkpt lat="50.50172" lon="3.44787">
        <ele>67</ele>
        <time>2017-09-17T10:50:38.000Z</time>
      </trkpt>
      <trkpt lat="50.50183" lon="3.44768">
        <ele>66</ele>
        <time>2017-09-17T10:50:41.000Z</time>
      </trkpt>
      <trkpt lat="50.50198" lon="3.44715">
        <ele>65</ele>
        <time>2017-09-17T10:50:47.000Z</time>
      </trkpt>
      <trkpt lat="50.50199" lon="3.44697">
        <ele>63</ele>
        <time>2017-09-17T10:50:50.000Z</time>
      </trkpt>
      <trkpt lat="50.50202" lon="3.44678">
        <ele>65</ele>
        <time>2017-09-17T10:50:53.000Z</time>
      </trkpt>
      <trkpt lat="50.50205" lon="3.44659">
        <ele>67</ele>
        <time>2017-09-17T10:50:56.000Z</time>
      </trkpt>
      <trkpt lat="50.50217" lon="3.44632">
        <ele>64</ele>
        <time>2017-09-17T10:50:59.000Z</time>
      </trkpt>
      <trkpt lat="50.50231" lon="3.44589">
        <ele>63</ele>
        <time>2017-09-17T10:51:05.000Z</time>
      </trkpt>
      <trkpt lat="50.50232" lon="3.44569">
        <ele>64</ele>
        <time>2017-09-17T10:51:08.000Z</time>
      </trkpt>
      <trkpt lat="50.50245" lon="3.44519">
        <ele>65</ele>
        <time>2017-09-17T10:51:14.000Z</time>
      </trkpt>
      <trkpt lat="50.50251" lon="3.44496">
        <ele>65</ele>
        <time>2017-09-17T10:51:17.000Z</time>
      </trkpt>
      <trkpt lat="50.50256" lon="3.44479">
        <ele>68</ele>
        <time>2017-09-17T10:51:20.000Z</time>
      </trkpt>
      <trkpt lat="50.50266" lon="3.44437">
        <ele>70</ele>
        <time>2017-09-17T10:51:26.000Z</time>
      </trkpt>
      <trkpt lat="50.50275" lon="3.44419">
        <ele>71</ele>
        <time>2017-09-17T10:51:29.000Z</time>
      </trkpt>
      <trkpt lat="50.5028" lon="3.44399">
        <ele>73</ele>
        <time>2017-09-17T10:51:32.000Z</time>
      </trkpt>
      <trkpt lat="50.50291" lon="3.44352">
        <ele>70</ele>
        <time>2017-09-17T10:51:38.000Z</time>
      </trkpt>
      <trkpt lat="50.50299" lon="3.44329">
        <ele>69</ele>
        <time>2017-09-17T10:51:41.000Z</time>
      </trkpt>
      <trkpt lat="50.50305" lon="3.44306">
        <ele>67</ele>
        <time>2017-09-17T10:51:44.000Z</time>
      </trkpt>
      <trkpt lat="50.50315" lon="3.44288">
        <ele>64</ele>
        <time>2017-09-17T10:51:47.000Z</time>
      </trkpt>
      <trkpt lat="50.50332" lon="3.4425">
        <ele>64</ele>
        <time>2017-09-17T10:51:53.000Z</time>
      </trkpt>
      <trkpt lat="50.50349" lon="3.4421">
        <ele>65</ele>
        <time>2017-09-17T10:51:59.000Z</time>
      </trkpt>
      <trkpt lat="50.50367" lon="3.44167">
        <ele>64</ele>
        <time>2017-09-17T10:52:05.000Z</time>
      </trkpt>
      <trkpt lat="50.50381" lon="3.44129">
        <ele>67</ele>
        <time>2017-09-17T10:52:11.000Z</time>
      </trkpt>
      <trkpt lat="50.50413" lon="3.44098">
        <ele>65</ele>
        <time>2017-09-17T10:52:17.000Z</time>
      </trkpt>
      <trkpt lat="50.50421" lon="3.44088">
        <ele>66</ele>
        <time>2017-09-17T10:52:21.000Z</time>
      </trkpt>
      <trkpt lat="50.5043" lon="3.44085">
        <ele>65</ele>
        <time>2017-09-17T10:52:29.000Z</time>
      </trkpt>
      <trkpt lat="50.50435" lon="3.44083">
        <ele>64</ele>
        <time>2017-09-17T10:52:32.000Z</time>
      </trkpt>
      <trkpt lat="50.50443" lon="3.44079">
        <ele>67</ele>
        <time>2017-09-17T10:52:35.000Z</time>
      </trkpt>
      <trkpt lat="50.5046" lon="3.44073">
        <ele>64</ele>
        <time>2017-09-17T10:52:41.000Z</time>
      </trkpt>
      <trkpt lat="50.50473" lon="3.44074">
        <ele>61</ele>
        <time>2017-09-17T10:52:44.000Z</time>
      </trkpt>
      <trkpt lat="50.50485" lon="3.44069">
        <ele>64</ele>
        <time>2017-09-17T10:52:50.000Z</time>
      </trkpt>
      <trkpt lat="50.5049" lon="3.44065">
        <ele>65</ele>
        <time>2017-09-17T10:52:53.000Z</time>
      </trkpt>
      <trkpt lat="50.50499" lon="3.4407">
        <ele>69</ele>
        <time>2017-09-17T10:52:57.000Z</time>
      </trkpt>
      <trkpt lat="50.50511" lon="3.44074">
        <ele>70</ele>
        <time>2017-09-17T10:53:02.000Z</time>
      </trkpt>
      <trkpt lat="50.50517" lon="3.44076">
        <ele>70</ele>
        <time>2017-09-17T10:53:05.000Z</time>
      </trkpt>
      <trkpt lat="50.50526" lon="3.44073">
        <ele>71</ele>
        <time>2017-09-17T10:53:09.000Z</time>
      </trkpt>
      <trkpt lat="50.50542" lon="3.4407">
        <ele>75</ele>
        <time>2017-09-17T10:53:15.000Z</time>
      </trkpt>
      <trkpt lat="50.50551" lon="3.44068">
        <ele>74</ele>
        <time>2017-09-17T10:53:18.000Z</time>
      </trkpt>
      <trkpt lat="50.50562" lon="3.44057">
        <ele>67</ele>
        <time>2017-09-17T10:53:24.000Z</time>
      </trkpt>
      <trkpt lat="50.50568" lon="3.44053">
        <ele>68</ele>
        <time>2017-09-17T10:53:27.000Z</time>
      </trkpt>
      <trkpt lat="50.50573" lon="3.44044">
        <ele>73</ele>
        <time>2017-09-17T10:53:30.000Z</time>
      </trkpt>
      <trkpt lat="50.50584" lon="3.44044">
        <ele>67</ele>
        <time>2017-09-17T10:53:36.000Z</time>
      </trkpt>
      <trkpt lat="50.50592" lon="3.44039">
        <ele>67</ele>
        <time>2017-09-17T10:53:39.000Z</time>
      </trkpt>
      <trkpt lat="50.50598" lon="3.44033">
        <ele>66</ele>
        <time>2017-09-17T10:53:42.000Z</time>
      </trkpt>
      <trkpt lat="50.50606" lon="3.4403">
        <ele>63</ele>
        <time>2017-09-17T10:53:45.000Z</time>
      </trkpt>
      <trkpt lat="50.50619" lon="3.44024">
        <ele>62</ele>
        <time>2017-09-17T10:53:51.000Z</time>
      </trkpt>
      <trkpt lat="50.50628" lon="3.44022">
        <ele>58</ele>
        <time>2017-09-17T10:53:54.000Z</time>
      </trkpt>
      <trkpt lat="50.50633" lon="3.44014">
        <ele>60</ele>
        <time>2017-09-17T10:53:57.000Z</time>
      </trkpt>
      <trkpt lat="50.5064" lon="3.44008">
        <ele>57</ele>
        <time>2017-09-17T10:54:00.000Z</time>
      </trkpt>
      <trkpt lat="50.50645" lon="3.44005">
        <ele>56</ele>
        <time>2017-09-17T10:54:03.000Z</time>
      </trkpt>
      <trkpt lat="50.50654" lon="3.44002">
        <ele>56</ele>
        <time>2017-09-17T10:54:09.000Z</time>
      </trkpt>
      <trkpt lat="50.5066" lon="3.44002">
        <ele>56</ele>
        <time>2017-09-17T10:54:12.000Z</time>
      </trkpt>
      <trkpt lat="50.50667" lon="3.44004">
        <ele>55</ele>
        <time>2017-09-17T10:54:15.000Z</time>
      </trkpt>
      <trkpt lat="50.50673" lon="3.44002">
        <ele>58</ele>
        <time>2017-09-17T10:54:21.000Z</time>
      </trkpt>
      <trkpt lat="50.50679" lon="3.43991">
        <ele>54</ele>
        <time>2017-09-17T10:54:24.000Z</time>
      </trkpt>
      <trkpt lat="50.50681" lon="3.43982">
        <ele>54</ele>
        <time>2017-09-17T10:54:27.000Z</time>
      </trkpt>
      <trkpt lat="50.50687" lon="3.43976">
        <ele>55</ele>
        <time>2017-09-17T10:54:30.000Z</time>
      </trkpt>
      <trkpt lat="50.50692" lon="3.43972">
        <ele>54</ele>
        <time>2017-09-17T10:54:33.000Z</time>
      </trkpt>
      <trkpt lat="50.50708" lon="3.4397">
        <ele>54</ele>
        <time>2017-09-17T10:54:39.000Z</time>
      </trkpt>
      <trkpt lat="50.50715" lon="3.43959">
        <ele>54</ele>
        <time>2017-09-17T10:54:45.000Z</time>
      </trkpt>
      <trkpt lat="50.50725" lon="3.43951">
        <ele>57</ele>
        <time>2017-09-17T10:54:51.000Z</time>
      </trkpt>
      <trkpt lat="50.50737" lon="3.43948">
        <ele>52</ele>
        <time>2017-09-17T10:54:56.000Z</time>
      </trkpt>
      <trkpt lat="50.50741" lon="3.43955">
        <ele>53</ele>
        <time>2017-09-17T10:55:00.000Z</time>
      </trkpt>
      <trkpt lat="50.50744" lon="3.43973">
        <ele>53</ele>
        <time>2017-09-17T10:55:06.000Z</time>
      </trkpt>
      <trkpt lat="50.5075" lon="3.43984">
        <ele>54</ele>
        <time>2017-09-17T10:55:09.000Z</time>
      </trkpt>
      <trkpt lat="50.50758" lon="3.43991">
        <ele>57</ele>
        <time>2017-09-17T10:55:12.000Z</time>
      </trkpt>
      <trkpt lat="50.50768" lon="3.44009">
        <ele>62</ele>
        <time>2017-09-17T10:55:18.000Z</time>
      </trkpt>
      <trkpt lat="50.50762" lon="3.44025">
        <ele>60</ele>
        <time>2017-09-17T10:55:21.000Z</time>
      </trkpt>
      <trkpt lat="50.5077" lon="3.44055">
        <ele>59</ele>
        <time>2017-09-17T10:55:27.000Z</time>
      </trkpt>
      <trkpt lat="50.50774" lon="3.44068">
        <ele>60</ele>
        <time>2017-09-17T10:55:30.000Z</time>
      </trkpt>
      <trkpt lat="50.50775" lon="3.44083">
        <ele>58</ele>
        <time>2017-09-17T10:55:33.000Z</time>
      </trkpt>
      <trkpt lat="50.50782" lon="3.44104">
        <ele>57</ele>
        <time>2017-09-17T10:55:38.000Z</time>
      </trkpt>
      <trkpt lat="50.50792" lon="3.44132">
        <ele>61</ele>
        <time>2017-09-17T10:55:44.000Z</time>
      </trkpt>
      <trkpt lat="50.50795" lon="3.44138">
        <ele>61</ele>
        <time>2017-09-17T10:55:47.000Z</time>
      </trkpt>
      <trkpt lat="50.50805" lon="3.44166">
        <ele>62</ele>
        <time>2017-09-17T10:55:53.000Z</time>
      </trkpt>
      <trkpt lat="50.50814" lon="3.44197">
        <ele>58</ele>
        <time>2017-09-17T10:55:59.000Z</time>
      </trkpt>
      <trkpt lat="50.5083" lon="3.44223">
        <ele>59</ele>
        <time>2017-09-17T10:56:05.000Z</time>
      </trkpt>
      <trkpt lat="50.50835" lon="3.44237">
        <ele>59</ele>
        <time>2017-09-17T10:56:08.000Z</time>
      </trkpt>
      <trkpt lat="50.5084" lon="3.44246">
        <ele>60</ele>
        <time>2017-09-17T10:56:11.000Z</time>
      </trkpt>
      <trkpt lat="50.50844" lon="3.44258">
        <ele>63</ele>
        <time>2017-09-17T10:56:14.000Z</time>
      </trkpt>
      <trkpt lat="50.50849" lon="3.4427">
        <ele>62</ele>
        <time>2017-09-17T10:56:17.000Z</time>
      </trkpt>
      <trkpt lat="50.50848" lon="3.44288">
        <ele>58</ele>
        <time>2017-09-17T10:56:20.000Z</time>
      </trkpt>
      <trkpt lat="50.50855" lon="3.44308">
        <ele>58</ele>
        <time>2017-09-17T10:56:23.000Z</time>
      </trkpt>
      <trkpt lat="50.50859" lon="3.44323">
        <ele>55</ele>
        <time>2017-09-17T10:56:26.000Z</time>
      </trkpt>
      <trkpt lat="50.50866" lon="3.44355">
        <ele>51</ele>
        <time>2017-09-17T10:56:32.000Z</time>
      </trkpt>
      <trkpt lat="50.50868" lon="3.44368">
        <ele>51</ele>
        <time>2017-09-17T10:56:36.000Z</time>
      </trkpt>
      <trkpt lat="50.50881" lon="3.44382">
        <ele>58</ele>
        <time>2017-09-17T10:56:39.000Z</time>
      </trkpt>
      <trkpt lat="50.50884" lon="3.44395">
        <ele>60</ele>
        <time>2017-09-17T10:56:42.000Z</time>
      </trkpt>
      <trkpt lat="50.50893" lon="3.44418">
        <ele>60</ele>
        <time>2017-09-17T10:56:47.000Z</time>
      </trkpt>
      <trkpt lat="50.50898" lon="3.44432">
        <ele>58</ele>
        <time>2017-09-17T10:56:50.000Z</time>
      </trkpt>
      <trkpt lat="50.50904" lon="3.44441">
        <ele>58</ele>
        <time>2017-09-17T10:56:53.000Z</time>
      </trkpt>
      <trkpt lat="50.50915" lon="3.44434">
        <ele>58</ele>
        <time>2017-09-17T10:56:59.000Z</time>
      </trkpt>
      <trkpt lat="50.50921" lon="3.44422">
        <ele>60</ele>
        <time>2017-09-17T10:57:02.000Z</time>
      </trkpt>
      <trkpt lat="50.50929" lon="3.44416">
        <ele>60</ele>
        <time>2017-09-17T10:57:05.000Z</time>
      </trkpt>
      <trkpt lat="50.50944" lon="3.44395">
        <ele>63</ele>
        <time>2017-09-17T10:57:11.000Z</time>
      </trkpt>
      <trkpt lat="50.50953" lon="3.44386">
        <ele>63</ele>
        <time>2017-09-17T10:57:14.000Z</time>
      </trkpt>
      <trkpt lat="50.50958" lon="3.44369">
        <ele>66</ele>
        <time>2017-09-17T10:57:17.000Z</time>
      </trkpt>
      <trkpt lat="50.50968" lon="3.44356">
        <ele>64</ele>
        <time>2017-09-17T10:57:20.000Z</time>
      </trkpt>
      <trkpt lat="50.50984" lon="3.44349">
        <ele>67</ele>
        <time>2017-09-17T10:57:26.000Z</time>
      </trkpt>
      <trkpt lat="50.51" lon="3.44339">
        <ele>71</ele>
        <time>2017-09-17T10:57:32.000Z</time>
      </trkpt>
      <trkpt lat="50.51008" lon="3.44335">
        <ele>70</ele>
        <time>2017-09-17T10:57:35.000Z</time>
      </trkpt>
      <trkpt lat="50.51018" lon="3.44331">
        <ele>69</ele>
        <time>2017-09-17T10:57:38.000Z</time>
      </trkpt>
      <trkpt lat="50.51039" lon="3.44328">
        <ele>61</ele>
        <time>2017-09-17T10:57:44.000Z</time>
      </trkpt>
      <trkpt lat="50.51057" lon="3.44322">
        <ele>61</ele>
        <time>2017-09-17T10:57:50.000Z</time>
      </trkpt>
      <trkpt lat="50.51067" lon="3.44322">
        <ele>61</ele>
        <time>2017-09-17T10:57:53.000Z</time>
      </trkpt>
      <trkpt lat="50.51079" lon="3.44325">
        <ele>61</ele>
        <time>2017-09-17T10:57:56.000Z</time>
      </trkpt>
      <trkpt lat="50.51088" lon="3.44321">
        <ele>59</ele>
        <time>2017-09-17T10:57:59.000Z</time>
      </trkpt>
      <trkpt lat="50.51098" lon="3.44319">
        <ele>59</ele>
        <time>2017-09-17T10:58:02.000Z</time>
      </trkpt>
      <trkpt lat="50.51119" lon="3.44316">
        <ele>61</ele>
        <time>2017-09-17T10:58:08.000Z</time>
      </trkpt>
      <trkpt lat="50.5113" lon="3.44318">
        <ele>60</ele>
        <time>2017-09-17T10:58:11.000Z</time>
      </trkpt>
      <trkpt lat="50.51145" lon="3.44324">
        <ele>60</ele>
        <time>2017-09-17T10:58:17.000Z</time>
      </trkpt>
      <trkpt lat="50.51158" lon="3.44359">
        <ele>60</ele>
        <time>2017-09-17T10:58:23.000Z</time>
      </trkpt>
      <trkpt lat="50.5117" lon="3.44386">
        <ele>60</ele>
        <time>2017-09-17T10:58:29.000Z</time>
      </trkpt>
      <trkpt lat="50.51181" lon="3.44406">
        <ele>60</ele>
        <time>2017-09-17T10:58:35.000Z</time>
      </trkpt>
      <trkpt lat="50.51178" lon="3.44415">
        <ele>61</ele>
        <time>2017-09-17T10:58:38.000Z</time>
      </trkpt>
      <trkpt lat="50.51165" lon="3.44427">
        <ele>66</ele>
        <time>2017-09-17T10:58:44.000Z</time>
      </trkpt>
      <trkpt lat="50.51149" lon="3.44444">
        <ele>68</ele>
        <time>2017-09-17T10:58:50.000Z</time>
      </trkpt>
      <trkpt lat="50.51137" lon="3.4445">
        <ele>66</ele>
        <time>2017-09-17T10:58:53.000Z</time>
      </trkpt>
      <trkpt lat="50.51123" lon="3.44471">
        <ele>69</ele>
        <time>2017-09-17T10:58:59.000Z</time>
      </trkpt>
      <trkpt lat="50.51123" lon="3.44481">
        <ele>66</ele>
        <time>2017-09-17T10:59:02.000Z</time>
      </trkpt>
      <trkpt lat="50.51128" lon="3.445">
        <ele>65</ele>
        <time>2017-09-17T10:59:08.000Z</time>
      </trkpt>
      <trkpt lat="50.51131" lon="3.4451">
        <ele>62</ele>
        <time>2017-09-17T10:59:11.000Z</time>
      </trkpt>
      <trkpt lat="50.51139" lon="3.44532">
        <ele>54</ele>
        <time>2017-09-17T10:59:17.000Z</time>
      </trkpt>
      <trkpt lat="50.51147" lon="3.44558">
        <ele>54</ele>
        <time>2017-09-17T10:59:23.000Z</time>
      </trkpt>
      <trkpt lat="50.51156" lon="3.44585">
        <ele>61</ele>
        <time>2017-09-17T10:59:29.000Z</time>
      </trkpt>
      <trkpt lat="50.51159" lon="3.44616">
        <ele>56</ele>
        <time>2017-09-17T10:59:32.000Z</time>
      </trkpt>
      <trkpt lat="50.51168" lon="3.44648">
        <ele>55</ele>
        <time>2017-09-17T10:59:38.000Z</time>
      </trkpt>
      <trkpt lat="50.51175" lon="3.44677">
        <ele>57</ele>
        <time>2017-09-17T10:59:44.000Z</time>
      </trkpt>
      <trkpt lat="50.51179" lon="3.44694">
        <ele>58</ele>
        <time>2017-09-17T10:59:47.000Z</time>
      </trkpt>
      <trkpt lat="50.51194" lon="3.44719">
        <ele>54</ele>
        <time>2017-09-17T10:59:53.000Z</time>
      </trkpt>
      <trkpt lat="50.51198" lon="3.44731">
        <ele>59</ele>
        <time>2017-09-17T10:59:56.000Z</time>
      </trkpt>
      <trkpt lat="50.5121" lon="3.44763">
        <ele>60</ele>
        <time>2017-09-17T11:00:02.000Z</time>
      </trkpt>
      <trkpt lat="50.51221" lon="3.44784">
        <ele>59</ele>
        <time>2017-09-17T11:00:06.000Z</time>
      </trkpt>
      <trkpt lat="50.51228" lon="3.44799">
        <ele>58</ele>
        <time>2017-09-17T11:00:09.000Z</time>
      </trkpt>
      <trkpt lat="50.51231" lon="3.44815">
        <ele>60</ele>
        <time>2017-09-17T11:00:12.000Z</time>
      </trkpt>
      <trkpt lat="50.51237" lon="3.44825">
        <ele>60</ele>
        <time>2017-09-17T11:00:15.000Z</time>
      </trkpt>
      <trkpt lat="50.51251" lon="3.44857">
        <ele>63</ele>
        <time>2017-09-17T11:00:21.000Z</time>
      </trkpt>
      <trkpt lat="50.51255" lon="3.44889">
        <ele>56</ele>
        <time>2017-09-17T11:00:27.000Z</time>
      </trkpt>
      <trkpt lat="50.51261" lon="3.44891">
        <ele>58</ele>
        <time>2017-09-17T11:00:30.000Z</time>
      </trkpt>
      <trkpt lat="50.51279" lon="3.44874">
        <ele>64</ele>
        <time>2017-09-17T11:00:39.000Z</time>
      </trkpt>
      <trkpt lat="50.51291" lon="3.44869">
        <ele>65</ele>
        <time>2017-09-17T11:00:42.000Z</time>
      </trkpt>
      <trkpt lat="50.5131" lon="3.44864">
        <ele>67</ele>
        <time>2017-09-17T11:00:48.000Z</time>
      </trkpt>
      <trkpt lat="50.51331" lon="3.44852">
        <ele>65</ele>
        <time>2017-09-17T11:00:54.000Z</time>
      </trkpt>
      <trkpt lat="50.51346" lon="3.44843">
        <ele>64</ele>
        <time>2017-09-17T11:00:59.000Z</time>
      </trkpt>
      <trkpt lat="50.51366" lon="3.44831">
        <ele>65</ele>
        <time>2017-09-17T11:01:05.000Z</time>
      </trkpt>
      <trkpt lat="50.51373" lon="3.44844">
        <ele>63</ele>
        <time>2017-09-17T11:01:11.000Z</time>
      </trkpt>
      <trkpt lat="50.51382" lon="3.44838">
        <ele>59</ele>
        <time>2017-09-17T11:02:09.000Z</time>
      </trkpt>
      <trkpt lat="50.51409" lon="3.44836">
        <ele>62</ele>
        <time>2017-09-17T11:02:15.000Z</time>
      </trkpt>
      <trkpt lat="50.51434" lon="3.44849">
        <ele>64</ele>
        <time>2017-09-17T11:02:21.000Z</time>
      </trkpt>
      <trkpt lat="50.51457" lon="3.44855">
        <ele>65</ele>
        <time>2017-09-17T11:02:27.000Z</time>
      </trkpt>
      <trkpt lat="50.51469" lon="3.44858">
        <ele>65</ele>
        <time>2017-09-17T11:02:30.000Z</time>
      </trkpt>
      <trkpt lat="50.51484" lon="3.44862">
        <ele>66</ele>
        <time>2017-09-17T11:02:33.000Z</time>
      </trkpt>
      <trkpt lat="50.51517" lon="3.44868">
        <ele>64</ele>
        <time>2017-09-17T11:02:39.000Z</time>
      </trkpt>
      <trkpt lat="50.51531" lon="3.44874">
        <ele>64</ele>
        <time>2017-09-17T11:02:42.000Z</time>
      </trkpt>
      <trkpt lat="50.51544" lon="3.44876">
        <ele>66</ele>
        <time>2017-09-17T11:02:45.000Z</time>
      </trkpt>
      <trkpt lat="50.51552" lon="3.4487">
        <ele>66</ele>
        <time>2017-09-17T11:02:48.000Z</time>
      </trkpt>
      <trkpt lat="50.51554" lon="3.44833">
        <ele>62</ele>
        <time>2017-09-17T11:02:54.000Z</time>
      </trkpt>
      <trkpt lat="50.51559" lon="3.44813">
        <ele>63</ele>
        <time>2017-09-17T11:02:57.000Z</time>
      </trkpt>
      <trkpt lat="50.51564" lon="3.44768">
        <ele>61</ele>
        <time>2017-09-17T11:03:03.000Z</time>
      </trkpt>
      <trkpt lat="50.51568" lon="3.44722">
        <ele>58</ele>
        <time>2017-09-17T11:03:09.000Z</time>
      </trkpt>
      <trkpt lat="50.51571" lon="3.44701">
        <ele>59</ele>
        <time>2017-09-17T11:03:12.000Z</time>
      </trkpt>
      <trkpt lat="50.51574" lon="3.44679">
        <ele>58</ele>
        <time>2017-09-17T11:03:15.000Z</time>
      </trkpt>
      <trkpt lat="50.51577" lon="3.44653">
        <ele>58</ele>
        <time>2017-09-17T11:03:18.000Z</time>
      </trkpt>
      <trkpt lat="50.5158" lon="3.44631">
        <ele>57</ele>
        <time>2017-09-17T11:03:21.000Z</time>
      </trkpt>
      <trkpt lat="50.51587" lon="3.44587">
        <ele>58</ele>
        <time>2017-09-17T11:03:27.000Z</time>
      </trkpt>
      <trkpt lat="50.51592" lon="3.44538">
        <ele>59</ele>
        <time>2017-09-17T11:03:33.000Z</time>
      </trkpt>
      <trkpt lat="50.516" lon="3.44491">
        <ele>61</ele>
        <time>2017-09-17T11:03:39.000Z</time>
      </trkpt>
      <trkpt lat="50.51603" lon="3.4446">
        <ele>59</ele>
        <time>2017-09-17T11:03:45.000Z</time>
      </trkpt>
      <trkpt lat="50.51603" lon="3.4445">
        <ele>58</ele>
        <time>2017-09-17T11:03:48.000Z</time>
      </trkpt>
      <trkpt lat="50.51603" lon="3.44441">
        <ele>59</ele>
        <time>2017-09-17T11:03:51.000Z</time>
      </trkpt>
      <trkpt lat="50.51602" lon="3.44413">
        <ele>57</ele>
        <time>2017-09-17T11:03:57.000Z</time>
      </trkpt>
      <trkpt lat="50.51603" lon="3.44394">
        <ele>55</ele>
        <time>2017-09-17T11:04:00.000Z</time>
      </trkpt>
      <trkpt lat="50.51604" lon="3.44344">
        <ele>57</ele>
        <time>2017-09-17T11:04:06.000Z</time>
      </trkpt>
      <trkpt lat="50.51603" lon="3.4432">
        <ele>58</ele>
        <time>2017-09-17T11:04:09.000Z</time>
      </trkpt>
      <trkpt lat="50.51601" lon="3.44273">
        <ele>56</ele>
        <time>2017-09-17T11:04:15.000Z</time>
      </trkpt>
      <trkpt lat="50.51602" lon="3.44247">
        <ele>60</ele>
        <time>2017-09-17T11:04:18.000Z</time>
      </trkpt>
      <trkpt lat="50.51604" lon="3.44221">
        <ele>60</ele>
        <time>2017-09-17T11:04:21.000Z</time>
      </trkpt>
      <trkpt lat="50.51606" lon="3.44193">
        <ele>61</ele>
        <time>2017-09-17T11:04:24.000Z</time>
      </trkpt>
      <trkpt lat="50.51606" lon="3.44143">
        <ele>63</ele>
        <time>2017-09-17T11:04:30.000Z</time>
      </trkpt>
      <trkpt lat="50.51604" lon="3.44119">
        <ele>62</ele>
        <time>2017-09-17T11:04:33.000Z</time>
      </trkpt>
      <trkpt lat="50.51605" lon="3.44095">
        <ele>57</ele>
        <time>2017-09-17T11:04:36.000Z</time>
      </trkpt>
      <trkpt lat="50.51603" lon="3.44044">
        <ele>54</ele>
        <time>2017-09-17T11:04:42.000Z</time>
      </trkpt>
      <trkpt lat="50.516" lon="3.44018">
        <ele>55</ele>
        <time>2017-09-17T11:04:45.000Z</time>
      </trkpt>
      <trkpt lat="50.51598" lon="3.43995">
        <ele>56</ele>
        <time>2017-09-17T11:04:48.000Z</time>
      </trkpt>
      <trkpt lat="50.51593" lon="3.43969">
        <ele>56</ele>
        <time>2017-09-17T11:04:51.000Z</time>
      </trkpt>
      <trkpt lat="50.51592" lon="3.43946">
        <ele>56</ele>
        <time>2017-09-17T11:04:54.000Z</time>
      </trkpt>
      <trkpt lat="50.51585" lon="3.43904">
        <ele>58</ele>
        <time>2017-09-17T11:05:00.000Z</time>
      </trkpt>
      <trkpt lat="50.51582" lon="3.43881">
        <ele>59</ele>
        <time>2017-09-17T11:05:03.000Z</time>
      </trkpt>
      <trkpt lat="50.5158" lon="3.43857">
        <ele>59</ele>
        <time>2017-09-17T11:05:06.000Z</time>
      </trkpt>
      <trkpt lat="50.51583" lon="3.43803">
        <ele>60</ele>
        <time>2017-09-17T11:05:12.000Z</time>
      </trkpt>
      <trkpt lat="50.51586" lon="3.43781">
        <ele>59</ele>
        <time>2017-09-17T11:05:15.000Z</time>
      </trkpt>
      <trkpt lat="50.51595" lon="3.43734">
        <ele>60</ele>
        <time>2017-09-17T11:05:21.000Z</time>
      </trkpt>
      <trkpt lat="50.516" lon="3.43717">
        <ele>57</ele>
        <time>2017-09-17T11:05:24.000Z</time>
      </trkpt>
      <trkpt lat="50.51608" lon="3.43698">
        <ele>56</ele>
        <time>2017-09-17T11:05:27.000Z</time>
      </trkpt>
      <trkpt lat="50.51636" lon="3.43666">
        <ele>58</ele>
        <time>2017-09-17T11:05:33.000Z</time>
      </trkpt>
      <trkpt lat="50.51648" lon="3.43652">
        <ele>58</ele>
        <time>2017-09-17T11:05:36.000Z</time>
      </trkpt>
      <trkpt lat="50.51673" lon="3.43624">
        <ele>56</ele>
        <time>2017-09-17T11:05:42.000Z</time>
      </trkpt>
      <trkpt lat="50.51683" lon="3.43607">
        <ele>55</ele>
        <time>2017-09-17T11:05:45.000Z</time>
      </trkpt>
      <trkpt lat="50.51695" lon="3.43583">
        <ele>57</ele>
        <time>2017-09-17T11:05:51.000Z</time>
      </trkpt>
      <trkpt lat="50.51701" lon="3.43578">
        <ele>53</ele>
        <time>2017-09-17T11:05:54.000Z</time>
      </trkpt>
      <trkpt lat="50.51707" lon="3.43565">
        <ele>55</ele>
        <time>2017-09-17T11:05:57.000Z</time>
      </trkpt>
      <trkpt lat="50.51715" lon="3.43553">
        <ele>56</ele>
        <time>2017-09-17T11:06:00.000Z</time>
      </trkpt>
      <trkpt lat="50.51724" lon="3.43539">
        <ele>60</ele>
        <time>2017-09-17T11:06:03.000Z</time>
      </trkpt>
      <trkpt lat="50.51734" lon="3.43524">
        <ele>61</ele>
        <time>2017-09-17T11:06:06.000Z</time>
      </trkpt>
      <trkpt lat="50.5176" lon="3.43493">
        <ele>60</ele>
        <time>2017-09-17T11:06:12.000Z</time>
      </trkpt>
      <trkpt lat="50.51774" lon="3.43474">
        <ele>57</ele>
        <time>2017-09-17T11:06:15.000Z</time>
      </trkpt>
      <trkpt lat="50.51793" lon="3.43445">
        <ele>61</ele>
        <time>2017-09-17T11:06:21.000Z</time>
      </trkpt>
      <trkpt lat="50.51817" lon="3.43419">
        <ele>63</ele>
        <time>2017-09-17T11:06:27.000Z</time>
      </trkpt>
      <trkpt lat="50.51829" lon="3.43422">
        <ele>63</ele>
        <time>2017-09-17T11:06:30.000Z</time>
      </trkpt>
      <trkpt lat="50.51837" lon="3.43436">
        <ele>68</ele>
        <time>2017-09-17T11:06:33.000Z</time>
      </trkpt>
      <trkpt lat="50.51843" lon="3.43445">
        <ele>67</ele>
        <time>2017-09-17T11:06:36.000Z</time>
      </trkpt>
      <trkpt lat="50.51855" lon="3.43458">
        <ele>64</ele>
        <time>2017-09-17T11:06:39.000Z</time>
      </trkpt>
      <trkpt lat="50.51874" lon="3.43495">
        <ele>65</ele>
        <time>2017-09-17T11:06:45.000Z</time>
      </trkpt>
      <trkpt lat="50.51887" lon="3.43508">
        <ele>64</ele>
        <time>2017-09-17T11:06:48.000Z</time>
      </trkpt>
      <trkpt lat="50.51909" lon="3.43546">
        <ele>62</ele>
        <time>2017-09-17T11:06:54.000Z</time>
      </trkpt>
      <trkpt lat="50.51918" lon="3.43562">
        <ele>62</ele>
        <time>2017-09-17T11:06:57.000Z</time>
      </trkpt>
      <trkpt lat="50.51939" lon="3.43593">
        <ele>64</ele>
        <time>2017-09-17T11:07:03.000Z</time>
      </trkpt>
      <trkpt lat="50.51951" lon="3.43613">
        <ele>64</ele>
        <time>2017-09-17T11:07:06.000Z</time>
      </trkpt>
      <trkpt lat="50.5197" lon="3.43648">
        <ele>62</ele>
        <time>2017-09-17T11:07:12.000Z</time>
      </trkpt>
      <trkpt lat="50.51981" lon="3.43666">
        <ele>61</ele>
        <time>2017-09-17T11:07:15.000Z</time>
      </trkpt>
      <trkpt lat="50.51993" lon="3.43683">
        <ele>61</ele>
        <time>2017-09-17T11:07:18.000Z</time>
      </trkpt>
      <trkpt lat="50.52012" lon="3.43711">
        <ele>62</ele>
        <time>2017-09-17T11:07:24.000Z</time>
      </trkpt>
      <trkpt lat="50.52023" lon="3.43724">
        <ele>62</ele>
        <time>2017-09-17T11:07:27.000Z</time>
      </trkpt>
      <trkpt lat="50.52043" lon="3.43748">
        <ele>58</ele>
        <time>2017-09-17T11:07:33.000Z</time>
      </trkpt>
      <trkpt lat="50.52054" lon="3.43762">
        <ele>59</ele>
        <time>2017-09-17T11:07:36.000Z</time>
      </trkpt>
      <trkpt lat="50.52065" lon="3.43777">
        <ele>61</ele>
        <time>2017-09-17T11:07:39.000Z</time>
      </trkpt>
      <trkpt lat="50.52077" lon="3.43786">
        <ele>62</ele>
        <time>2017-09-17T11:07:42.000Z</time>
      </trkpt>
      <trkpt lat="50.52097" lon="3.43809">
        <ele>62</ele>
        <time>2017-09-17T11:07:48.000Z</time>
      </trkpt>
      <trkpt lat="50.52107" lon="3.43826">
        <ele>64</ele>
        <time>2017-09-17T11:07:51.000Z</time>
      </trkpt>
      <trkpt lat="50.52129" lon="3.43849">
        <ele>63</ele>
        <time>2017-09-17T11:07:57.000Z</time>
      </trkpt>
      <trkpt lat="50.52151" lon="3.43873">
        <ele>64</ele>
        <time>2017-09-17T11:08:03.000Z</time>
      </trkpt>
      <trkpt lat="50.52175" lon="3.43904">
        <ele>63</ele>
        <time>2017-09-17T11:08:09.000Z</time>
      </trkpt>
      <trkpt lat="50.5219" lon="3.43911">
        <ele>63</ele>
        <time>2017-09-17T11:08:12.000Z</time>
      </trkpt>
      <trkpt lat="50.52213" lon="3.4394">
        <ele>62</ele>
        <time>2017-09-17T11:08:18.000Z</time>
      </trkpt>
      <trkpt lat="50.52224" lon="3.43953">
        <ele>61</ele>
        <time>2017-09-17T11:08:21.000Z</time>
      </trkpt>
      <trkpt lat="50.52235" lon="3.43967">
        <ele>63</ele>
        <time>2017-09-17T11:08:24.000Z</time>
      </trkpt>
      <trkpt lat="50.52256" lon="3.43999">
        <ele>62</ele>
        <time>2017-09-17T11:08:30.000Z</time>
      </trkpt>
      <trkpt lat="50.52274" lon="3.44031">
        <ele>61</ele>
        <time>2017-09-17T11:08:36.000Z</time>
      </trkpt>
      <trkpt lat="50.52291" lon="3.44067">
        <ele>59</ele>
        <time>2017-09-17T11:08:42.000Z</time>
      </trkpt>
      <trkpt lat="50.52296" lon="3.44084">
        <ele>59</ele>
        <time>2017-09-17T11:08:45.000Z</time>
      </trkpt>
      <trkpt lat="50.523" lon="3.44102">
        <ele>59</ele>
        <time>2017-09-17T11:08:48.000Z</time>
      </trkpt>
      <trkpt lat="50.52306" lon="3.44115">
        <ele>60</ele>
        <time>2017-09-17T11:08:51.000Z</time>
      </trkpt>
      <trkpt lat="50.52326" lon="3.44132">
        <ele>57</ele>
        <time>2017-09-17T11:08:57.000Z</time>
      </trkpt>
      <trkpt lat="50.52338" lon="3.44138">
        <ele>58</ele>
        <time>2017-09-17T11:09:00.000Z</time>
      </trkpt>
      <trkpt lat="50.52361" lon="3.44154">
        <ele>58</ele>
        <time>2017-09-17T11:09:06.000Z</time>
      </trkpt>
      <trkpt lat="50.52377" lon="3.44161">
        <ele>60</ele>
        <time>2017-09-17T11:09:09.000Z</time>
      </trkpt>
      <trkpt lat="50.52401" lon="3.44189">
        <ele>61</ele>
        <time>2017-09-17T11:09:15.000Z</time>
      </trkpt>
      <trkpt lat="50.52413" lon="3.442">
        <ele>62</ele>
        <time>2017-09-17T11:09:18.000Z</time>
      </trkpt>
      <trkpt lat="50.5243" lon="3.4423">
        <ele>62</ele>
        <time>2017-09-17T11:09:24.000Z</time>
      </trkpt>
      <trkpt lat="50.52436" lon="3.44221">
        <ele>58</ele>
        <time>2017-09-17T11:09:30.000Z</time>
      </trkpt>
      <trkpt lat="50.52438" lon="3.44205">
        <ele>59</ele>
        <time>2017-09-17T11:09:33.000Z</time>
      </trkpt>
      <trkpt lat="50.5244" lon="3.44166">
        <ele>57</ele>
        <time>2017-09-17T11:09:39.000Z</time>
      </trkpt>
      <trkpt lat="50.5244" lon="3.44144">
        <ele>58</ele>
        <time>2017-09-17T11:09:42.000Z</time>
      </trkpt>
      <trkpt lat="50.52441" lon="3.44119">
        <ele>58</ele>
        <time>2017-09-17T11:09:45.000Z</time>
      </trkpt>
      <trkpt lat="50.52439" lon="3.44098">
        <ele>58</ele>
        <time>2017-09-17T11:09:48.000Z</time>
      </trkpt>
      <trkpt lat="50.52439" lon="3.44054">
        <ele>57</ele>
        <time>2017-09-17T11:09:54.000Z</time>
      </trkpt>
      <trkpt lat="50.52435" lon="3.44034">
        <ele>58</ele>
        <time>2017-09-17T11:09:57.000Z</time>
      </trkpt>
      <trkpt lat="50.52436" lon="3.44018">
        <ele>56</ele>
        <time>2017-09-17T11:10:03.000Z</time>
      </trkpt>
      <trkpt lat="50.5244" lon="3.44032">
        <ele>58</ele>
        <time>2017-09-17T11:10:46.000Z</time>
      </trkpt>
      <trkpt lat="50.52446" lon="3.44042">
        <ele>60</ele>
        <time>2017-09-17T11:10:49.000Z</time>
      </trkpt>
      <trkpt lat="50.52452" lon="3.44051">
        <ele>62</ele>
        <time>2017-09-17T11:10:52.000Z</time>
      </trkpt>
      <trkpt lat="50.52469" lon="3.44068">
        <ele>63</ele>
        <time>2017-09-17T11:10:58.000Z</time>
      </trkpt>
      <trkpt lat="50.52472" lon="3.44078">
        <ele>60</ele>
        <time>2017-09-17T11:11:01.000Z</time>
      </trkpt>
      <trkpt lat="50.52488" lon="3.44094">
        <ele>60</ele>
        <time>2017-09-17T11:11:07.000Z</time>
      </trkpt>
      <trkpt lat="50.52493" lon="3.44103">
        <ele>59</ele>
        <time>2017-09-17T11:11:10.000Z</time>
      </trkpt>
      <trkpt lat="50.52496" lon="3.44115">
        <ele>56</ele>
        <time>2017-09-17T11:11:13.000Z</time>
      </trkpt>
      <trkpt lat="50.52507" lon="3.44127">
        <ele>55</ele>
        <time>2017-09-17T11:11:19.000Z</time>
      </trkpt>
      <trkpt lat="50.52514" lon="3.44134">
        <ele>55</ele>
        <time>2017-09-17T11:11:22.000Z</time>
      </trkpt>
      <trkpt lat="50.52522" lon="3.44152">
        <ele>55</ele>
        <time>2017-09-17T11:11:28.000Z</time>
      </trkpt>
      <trkpt lat="50.52526" lon="3.4416">
        <ele>54</ele>
        <time>2017-09-17T11:11:31.000Z</time>
      </trkpt>
      <trkpt lat="50.52531" lon="3.44165">
        <ele>58</ele>
        <time>2017-09-17T11:11:34.000Z</time>
      </trkpt>
      <trkpt lat="50.52541" lon="3.44167">
        <ele>58</ele>
        <time>2017-09-17T11:11:37.000Z</time>
      </trkpt>
      <trkpt lat="50.52546" lon="3.44175">
        <ele>61</ele>
        <time>2017-09-17T11:11:40.000Z</time>
      </trkpt>
      <trkpt lat="50.52549" lon="3.44182">
        <ele>61</ele>
        <time>2017-09-17T11:11:43.000Z</time>
      </trkpt>
      <trkpt lat="50.52547" lon="3.44204">
        <ele>63</ele>
        <time>2017-09-17T11:11:46.000Z</time>
      </trkpt>
      <trkpt lat="50.52558" lon="3.44222">
        <ele>62</ele>
        <time>2017-09-17T11:11:52.000Z</time>
      </trkpt>
      <trkpt lat="50.5256" lon="3.44237">
        <ele>63</ele>
        <time>2017-09-17T11:11:55.000Z</time>
      </trkpt>
      <trkpt lat="50.52566" lon="3.44242">
        <ele>65</ele>
        <time>2017-09-17T11:11:58.000Z</time>
      </trkpt>
      <trkpt lat="50.52573" lon="3.44261">
        <ele>62</ele>
        <time>2017-09-17T11:12:04.000Z</time>
      </trkpt>
      <trkpt lat="50.52581" lon="3.44286">
        <ele>50</ele>
        <time>2017-09-17T11:12:10.000Z</time>
      </trkpt>
      <trkpt lat="50.52586" lon="3.44296">
        <ele>52</ele>
        <time>2017-09-17T11:12:13.000Z</time>
      </trkpt>
      <trkpt lat="50.52597" lon="3.44312">
        <ele>53</ele>
        <time>2017-09-17T11:12:19.000Z</time>
      </trkpt>
      <trkpt lat="50.52599" lon="3.44323">
        <ele>49</ele>
        <time>2017-09-17T11:12:22.000Z</time>
      </trkpt>
      <trkpt lat="50.52605" lon="3.44343">
        <ele>54</ele>
        <time>2017-09-17T11:12:28.000Z</time>
      </trkpt>
      <trkpt lat="50.52608" lon="3.44356">
        <ele>51</ele>
        <time>2017-09-17T11:12:31.000Z</time>
      </trkpt>
      <trkpt lat="50.52617" lon="3.44379">
        <ele>55</ele>
        <time>2017-09-17T11:12:37.000Z</time>
      </trkpt>
      <trkpt lat="50.52623" lon="3.44397">
        <ele>56</ele>
        <time>2017-09-17T11:12:44.000Z</time>
      </trkpt>
      <trkpt lat="50.52628" lon="3.44407">
        <ele>52</ele>
        <time>2017-09-17T11:12:49.000Z</time>
      </trkpt>
      <trkpt lat="50.52635" lon="3.44421">
        <ele>54</ele>
        <time>2017-09-17T11:12:55.000Z</time>
      </trkpt>
      <trkpt lat="50.52632" lon="3.44445">
        <ele>48</ele>
        <time>2017-09-17T11:13:04.000Z</time>
      </trkpt>
      <trkpt lat="50.52646" lon="3.44455">
        <ele>51</ele>
        <time>2017-09-17T11:13:07.000Z</time>
      </trkpt>
      <trkpt lat="50.52645" lon="3.44468">
        <ele>52</ele>
        <time>2017-09-17T11:13:13.000Z</time>
      </trkpt>
      <trkpt lat="50.52651" lon="3.44473">
        <ele>59</ele>
        <time>2017-09-17T11:13:19.000Z</time>
      </trkpt>
      <trkpt lat="50.52651" lon="3.44466">
        <ele>61</ele>
        <time>2017-09-17T11:13:28.000Z</time>
      </trkpt>
      <trkpt lat="50.52653" lon="3.44474">
        <ele>53</ele>
        <time>2017-09-17T11:13:47.000Z</time>
      </trkpt>
      <trkpt lat="50.52661" lon="3.44491">
        <ele>54</ele>
        <time>2017-09-17T11:13:52.000Z</time>
      </trkpt>
      <trkpt lat="50.52665" lon="3.44525">
        <ele>49</ele>
        <time>2017-09-17T11:13:55.000Z</time>
      </trkpt>
      <trkpt lat="50.52666" lon="3.44533">
        <ele>48</ele>
        <time>2017-09-17T11:13:58.000Z</time>
      </trkpt>
      <trkpt lat="50.52675" lon="3.44552">
        <ele>41</ele>
        <time>2017-09-17T11:14:05.000Z</time>
      </trkpt>
      <trkpt lat="50.52679" lon="3.44572">
        <ele>40</ele>
        <time>2017-09-17T11:14:10.000Z</time>
      </trkpt>
      <trkpt lat="50.52692" lon="3.446">
        <ele>50</ele>
        <time>2017-09-17T11:14:19.000Z</time>
      </trkpt>
      <trkpt lat="50.52704" lon="3.44614">
        <ele>53</ele>
        <time>2017-09-17T11:14:23.000Z</time>
      </trkpt>
      <trkpt lat="50.52712" lon="3.44631">
        <ele>54</ele>
        <time>2017-09-17T11:14:28.000Z</time>
      </trkpt>
      <trkpt lat="50.52718" lon="3.44639">
        <ele>54</ele>
        <time>2017-09-17T11:14:31.000Z</time>
      </trkpt>
      <trkpt lat="50.52725" lon="3.44663">
        <ele>54</ele>
        <time>2017-09-17T11:14:37.000Z</time>
      </trkpt>
      <trkpt lat="50.52731" lon="3.4467">
        <ele>57</ele>
        <time>2017-09-17T11:14:40.000Z</time>
      </trkpt>
      <trkpt lat="50.52739" lon="3.44691">
        <ele>55</ele>
        <time>2017-09-17T11:14:46.000Z</time>
      </trkpt>
      <trkpt lat="50.52745" lon="3.44701">
        <ele>54</ele>
        <time>2017-09-17T11:14:49.000Z</time>
      </trkpt>
      <trkpt lat="50.52752" lon="3.44729">
        <ele>57</ele>
        <time>2017-09-17T11:14:55.000Z</time>
      </trkpt>
      <trkpt lat="50.52756" lon="3.44738">
        <ele>55</ele>
        <time>2017-09-17T11:15:01.000Z</time>
      </trkpt>
      <trkpt lat="50.52766" lon="3.44748">
        <ele>53</ele>
        <time>2017-09-17T11:15:07.000Z</time>
      </trkpt>
      <trkpt lat="50.52763" lon="3.44765">
        <ele>50</ele>
        <time>2017-09-17T11:15:10.000Z</time>
      </trkpt>
      <trkpt lat="50.52767" lon="3.44777">
        <ele>49</ele>
        <time>2017-09-17T11:15:16.000Z</time>
      </trkpt>
      <trkpt lat="50.52774" lon="3.44783">
        <ele>49</ele>
        <time>2017-09-17T11:15:20.000Z</time>
      </trkpt>
      <trkpt lat="50.52785" lon="3.44803">
        <ele>44</ele>
        <time>2017-09-17T11:15:25.000Z</time>
      </trkpt>
      <trkpt lat="50.52788" lon="3.44812">
        <ele>47</ele>
        <time>2017-09-17T11:15:28.000Z</time>
      </trkpt>
      <trkpt lat="50.52793" lon="3.44835">
        <ele>43</ele>
        <time>2017-09-17T11:15:34.000Z</time>
      </trkpt>
      <trkpt lat="50.52798" lon="3.44843">
        <ele>45</ele>
        <time>2017-09-17T11:15:37.000Z</time>
      </trkpt>
      <trkpt lat="50.52807" lon="3.44881">
        <ele>47</ele>
        <time>2017-09-17T11:15:44.000Z</time>
      </trkpt>
      <trkpt lat="50.52816" lon="3.4489">
        <ele>48</ele>
        <time>2017-09-17T11:15:49.000Z</time>
      </trkpt>
      <trkpt lat="50.52826" lon="3.44917">
        <ele>55</ele>
        <time>2017-09-17T11:15:56.000Z</time>
      </trkpt>
      <trkpt lat="50.52836" lon="3.44934">
        <ele>56</ele>
        <time>2017-09-17T11:16:01.000Z</time>
      </trkpt>
      <trkpt lat="50.52845" lon="3.44933">
        <ele>62</ele>
        <time>2017-09-17T11:16:04.000Z</time>
      </trkpt>
      <trkpt lat="50.52847" lon="3.44949">
        <ele>66</ele>
        <time>2017-09-17T11:16:10.000Z</time>
      </trkpt>
      <trkpt lat="50.52846" lon="3.44958">
        <ele>65</ele>
        <time>2017-09-17T11:16:23.000Z</time>
      </trkpt>
      <trkpt lat="50.52844" lon="3.44948">
        <ele>63</ele>
        <time>2017-09-17T11:16:29.000Z</time>
      </trkpt>
      <trkpt lat="50.52845" lon="3.44959">
        <ele>59</ele>
        <time>2017-09-17T11:16:50.000Z</time>
      </trkpt>
      <trkpt lat="50.52856" lon="3.44992">
        <ele>60</ele>
        <time>2017-09-17T11:16:56.000Z</time>
      </trkpt>
      <trkpt lat="50.5286" lon="3.45007">
        <ele>58</ele>
        <time>2017-09-17T11:16:59.000Z</time>
      </trkpt>
      <trkpt lat="50.52864" lon="3.45017">
        <ele>60</ele>
        <time>2017-09-17T11:17:02.000Z</time>
      </trkpt>
      <trkpt lat="50.52868" lon="3.45033">
        <ele>57</ele>
        <time>2017-09-17T11:17:08.000Z</time>
      </trkpt>
      <trkpt lat="50.52872" lon="3.45045">
        <ele>55</ele>
        <time>2017-09-17T11:17:11.000Z</time>
      </trkpt>
      <trkpt lat="50.52879" lon="3.45061">
        <ele>56</ele>
        <time>2017-09-17T11:17:14.000Z</time>
      </trkpt>
      <trkpt lat="50.52893" lon="3.45091">
        <ele>52</ele>
        <time>2017-09-17T11:17:21.000Z</time>
      </trkpt>
      <trkpt lat="50.52905" lon="3.45114">
        <ele>53</ele>
        <time>2017-09-17T11:17:26.000Z</time>
      </trkpt>
      <trkpt lat="50.52908" lon="3.4512">
        <ele>58</ele>
        <time>2017-09-17T11:17:29.000Z</time>
      </trkpt>
      <trkpt lat="50.52915" lon="3.45123">
        <ele>62</ele>
        <time>2017-09-17T11:17:32.000Z</time>
      </trkpt>
      <trkpt lat="50.52922" lon="3.45123">
        <ele>60</ele>
        <time>2017-09-17T11:17:35.000Z</time>
      </trkpt>
      <trkpt lat="50.52931" lon="3.45125">
        <ele>59</ele>
        <time>2017-09-17T11:17:38.000Z</time>
      </trkpt>
      <trkpt lat="50.52949" lon="3.45136">
        <ele>58</ele>
        <time>2017-09-17T11:17:44.000Z</time>
      </trkpt>
      <trkpt lat="50.52957" lon="3.45143">
        <ele>60</ele>
        <time>2017-09-17T11:17:47.000Z</time>
      </trkpt>
      <trkpt lat="50.52976" lon="3.45154">
        <ele>61</ele>
        <time>2017-09-17T11:17:53.000Z</time>
      </trkpt>
      <trkpt lat="50.52985" lon="3.45159">
        <ele>62</ele>
        <time>2017-09-17T11:17:56.000Z</time>
      </trkpt>
      <trkpt lat="50.53003" lon="3.4517">
        <ele>62</ele>
        <time>2017-09-17T11:18:02.000Z</time>
      </trkpt>
      <trkpt lat="50.53013" lon="3.45168">
        <ele>61</ele>
        <time>2017-09-17T11:18:05.000Z</time>
      </trkpt>
      <trkpt lat="50.53032" lon="3.45176">
        <ele>64</ele>
        <time>2017-09-17T11:18:11.000Z</time>
      </trkpt>
      <trkpt lat="50.53053" lon="3.45179">
        <ele>61</ele>
        <time>2017-09-17T11:18:17.000Z</time>
      </trkpt>
      <trkpt lat="50.53063" lon="3.45181">
        <ele>61</ele>
        <time>2017-09-17T11:18:20.000Z</time>
      </trkpt>
      <trkpt lat="50.53071" lon="3.45182">
        <ele>61</ele>
        <time>2017-09-17T11:18:23.000Z</time>
      </trkpt>
      <trkpt lat="50.53095" lon="3.45183">
        <ele>61</ele>
        <time>2017-09-17T11:18:29.000Z</time>
      </trkpt>
      <trkpt lat="50.53113" lon="3.45184">
        <ele>61</ele>
        <time>2017-09-17T11:18:35.000Z</time>
      </trkpt>
      <trkpt lat="50.53127" lon="3.45176">
        <ele>62</ele>
        <time>2017-09-17T11:18:41.000Z</time>
      </trkpt>
      <trkpt lat="50.53136" lon="3.45177">
        <ele>64</ele>
        <time>2017-09-17T11:18:44.000Z</time>
      </trkpt>
      <trkpt lat="50.53156" lon="3.45171">
        <ele>68</ele>
        <time>2017-09-17T11:18:50.000Z</time>
      </trkpt>
      <trkpt lat="50.53165" lon="3.45167">
        <ele>69</ele>
        <time>2017-09-17T11:18:53.000Z</time>
      </trkpt>
      <trkpt lat="50.53178" lon="3.45166">
        <ele>59</ele>
        <time>2017-09-17T11:18:59.000Z</time>
      </trkpt>
      <trkpt lat="50.5318" lon="3.45174">
        <ele>60</ele>
        <time>2017-09-17T11:19:08.000Z</time>
      </trkpt>
      <trkpt lat="50.53176" lon="3.45172">
        <ele>64</ele>
        <time>2017-09-17T11:19:15.870Z</time>
      </trkpt>
      <trkpt lat="50.53202" lon="3.45173">
        <ele>49</ele>
        <time>2017-09-17T11:29:42.000Z</time>
      </trkpt>
      <trkpt lat="50.53219" lon="3.45164">
        <ele>55</ele>
        <time>2017-09-17T11:29:45.000Z</time>
      </trkpt>
      <trkpt lat="50.53228" lon="3.45165">
        <ele>57</ele>
        <time>2017-09-17T11:29:48.000Z</time>
      </trkpt>
      <trkpt lat="50.53243" lon="3.45166">
        <ele>55</ele>
        <time>2017-09-17T11:29:54.000Z</time>
      </trkpt>
      <trkpt lat="50.53257" lon="3.45169">
        <ele>57</ele>
        <time>2017-09-17T11:29:57.000Z</time>
      </trkpt>
      <trkpt lat="50.53284" lon="3.45164">
        <ele>62</ele>
        <time>2017-09-17T11:30:03.000Z</time>
      </trkpt>
      <trkpt lat="50.53305" lon="3.45162">
        <ele>66</ele>
        <time>2017-09-17T11:30:09.000Z</time>
      </trkpt>
      <trkpt lat="50.53314" lon="3.45158">
        <ele>66</ele>
        <time>2017-09-17T11:30:12.000Z</time>
      </trkpt>
      <trkpt lat="50.53322" lon="3.45158">
        <ele>69</ele>
        <time>2017-09-17T11:30:15.000Z</time>
      </trkpt>
      <trkpt lat="50.53334" lon="3.45155">
        <ele>74</ele>
        <time>2017-09-17T11:30:19.000Z</time>
      </trkpt>
      <trkpt lat="50.53347" lon="3.45157">
        <ele>70</ele>
        <time>2017-09-17T11:30:22.000Z</time>
      </trkpt>
      <trkpt lat="50.53364" lon="3.45154">
        <ele>69</ele>
        <time>2017-09-17T11:30:28.000Z</time>
      </trkpt>
      <trkpt lat="50.53383" lon="3.45149">
        <ele>69</ele>
        <time>2017-09-17T11:30:34.000Z</time>
      </trkpt>
      <trkpt lat="50.53388" lon="3.45169">
        <ele>65</ele>
        <time>2017-09-17T11:30:39.000Z</time>
      </trkpt>
      <trkpt lat="50.53383" lon="3.45201">
        <ele>59</ele>
        <time>2017-09-17T11:30:45.000Z</time>
      </trkpt>
      <trkpt lat="50.53381" lon="3.45214">
        <ele>57</ele>
        <time>2017-09-17T11:30:48.000Z</time>
      </trkpt>
      <trkpt lat="50.53383" lon="3.45252">
        <ele>57</ele>
        <time>2017-09-17T11:30:54.000Z</time>
      </trkpt>
      <trkpt lat="50.53379" lon="3.4527">
        <ele>55</ele>
        <time>2017-09-17T11:30:57.000Z</time>
      </trkpt>
      <trkpt lat="50.53379" lon="3.45285">
        <ele>52</ele>
        <time>2017-09-17T11:31:00.000Z</time>
      </trkpt>
      <trkpt lat="50.53381" lon="3.45308">
        <ele>54</ele>
        <time>2017-09-17T11:31:06.000Z</time>
      </trkpt>
      <trkpt lat="50.53386" lon="3.45308">
        <ele>54</ele>
        <time>2017-09-17T11:31:09.000Z</time>
      </trkpt>
      <trkpt lat="50.53395" lon="3.45304">
        <ele>54</ele>
        <time>2017-09-17T11:31:12.000Z</time>
      </trkpt>
      <trkpt lat="50.5342" lon="3.45298">
        <ele>61</ele>
        <time>2017-09-17T11:31:18.000Z</time>
      </trkpt>
      <trkpt lat="50.53435" lon="3.45291">
        <ele>65</ele>
        <time>2017-09-17T11:31:22.000Z</time>
      </trkpt>
      <trkpt lat="50.53454" lon="3.45273">
        <ele>70</ele>
        <time>2017-09-17T11:31:27.000Z</time>
      </trkpt>
      <trkpt lat="50.53492" lon="3.45273">
        <ele>53</ele>
        <time>2017-09-17T11:31:33.000Z</time>
      </trkpt>
      <trkpt lat="50.53501" lon="3.45273">
        <ele>54</ele>
        <time>2017-09-17T11:31:36.000Z</time>
      </trkpt>
      <trkpt lat="50.53511" lon="3.45272">
        <ele>59</ele>
        <time>2017-09-17T11:31:39.000Z</time>
      </trkpt>
      <trkpt lat="50.53534" lon="3.45268">
        <ele>56</ele>
        <time>2017-09-17T11:31:45.000Z</time>
      </trkpt>
      <trkpt lat="50.53564" lon="3.4526">
        <ele>57</ele>
        <time>2017-09-17T11:31:52.000Z</time>
      </trkpt>
      <trkpt lat="50.53585" lon="3.45261">
        <ele>60</ele>
        <time>2017-09-17T11:31:57.000Z</time>
      </trkpt>
      <trkpt lat="50.53611" lon="3.4525">
        <ele>60</ele>
        <time>2017-09-17T11:32:03.000Z</time>
      </trkpt>
      <trkpt lat="50.53626" lon="3.45239">
        <ele>60</ele>
        <time>2017-09-17T11:32:06.000Z</time>
      </trkpt>
      <trkpt lat="50.53638" lon="3.45228">
        <ele>58</ele>
        <time>2017-09-17T11:32:09.000Z</time>
      </trkpt>
      <trkpt lat="50.5367" lon="3.45219">
        <ele>56</ele>
        <time>2017-09-17T11:32:16.000Z</time>
      </trkpt>
      <trkpt lat="50.53693" lon="3.45206">
        <ele>51</ele>
        <time>2017-09-17T11:32:21.000Z</time>
      </trkpt>
      <trkpt lat="50.53714" lon="3.45195">
        <ele>57</ele>
        <time>2017-09-17T11:32:27.000Z</time>
      </trkpt>
      <trkpt lat="50.53725" lon="3.45182">
        <ele>57</ele>
        <time>2017-09-17T11:32:30.000Z</time>
      </trkpt>
      <trkpt lat="50.53729" lon="3.45176">
        <ele>60</ele>
        <time>2017-09-17T11:32:33.000Z</time>
      </trkpt>
      <trkpt lat="50.53753" lon="3.45162">
        <ele>60</ele>
        <time>2017-09-17T11:32:39.000Z</time>
      </trkpt>
      <trkpt lat="50.53766" lon="3.45157">
        <ele>61</ele>
        <time>2017-09-17T11:32:42.000Z</time>
      </trkpt>
      <trkpt lat="50.53796" lon="3.45152">
        <ele>57</ele>
        <time>2017-09-17T11:32:48.000Z</time>
      </trkpt>
      <trkpt lat="50.53823" lon="3.45122">
        <ele>57</ele>
        <time>2017-09-17T11:32:54.000Z</time>
      </trkpt>
      <trkpt lat="50.53834" lon="3.451">
        <ele>66</ele>
        <time>2017-09-17T11:32:58.000Z</time>
      </trkpt>
      <trkpt lat="50.53858" lon="3.45103">
        <ele>60</ele>
        <time>2017-09-17T11:33:03.000Z</time>
      </trkpt>
      <trkpt lat="50.53873" lon="3.45099">
        <ele>66</ele>
        <time>2017-09-17T11:33:06.000Z</time>
      </trkpt>
      <trkpt lat="50.5389" lon="3.45087">
        <ele>66</ele>
        <time>2017-09-17T11:33:10.000Z</time>
      </trkpt>
      <trkpt lat="50.53914" lon="3.45082">
        <ele>64</ele>
        <time>2017-09-17T11:33:15.000Z</time>
      </trkpt>
      <trkpt lat="50.5393" lon="3.45078">
        <ele>68</ele>
        <time>2017-09-17T11:33:18.000Z</time>
      </trkpt>
      <trkpt lat="50.53946" lon="3.45077">
        <ele>67</ele>
        <time>2017-09-17T11:33:22.000Z</time>
      </trkpt>
      <trkpt lat="50.53971" lon="3.45066">
        <ele>66</ele>
        <time>2017-09-17T11:33:27.000Z</time>
      </trkpt>
      <trkpt lat="50.53993" lon="3.45055">
        <ele>64</ele>
        <time>2017-09-17T11:33:31.000Z</time>
      </trkpt>
      <trkpt lat="50.54022" lon="3.45056">
        <ele>64</ele>
        <time>2017-09-17T11:33:36.000Z</time>
      </trkpt>
      <trkpt lat="50.54035" lon="3.45028">
        <ele>65</ele>
        <time>2017-09-17T11:33:42.000Z</time>
      </trkpt>
      <trkpt lat="50.54039" lon="3.45014">
        <ele>63</ele>
        <time>2017-09-17T11:33:45.000Z</time>
      </trkpt>
      <trkpt lat="50.54043" lon="3.44991">
        <ele>59</ele>
        <time>2017-09-17T11:33:51.000Z</time>
      </trkpt>
      <trkpt lat="50.54044" lon="3.44976">
        <ele>60</ele>
        <time>2017-09-17T11:33:54.000Z</time>
      </trkpt>
      <trkpt lat="50.54055" lon="3.44946">
        <ele>56</ele>
        <time>2017-09-17T11:34:00.000Z</time>
      </trkpt>
      <trkpt lat="50.54055" lon="3.44914">
        <ele>59</ele>
        <time>2017-09-17T11:34:06.000Z</time>
      </trkpt>
      <trkpt lat="50.54068" lon="3.44888">
        <ele>50</ele>
        <time>2017-09-17T11:34:12.000Z</time>
      </trkpt>
      <trkpt lat="50.54074" lon="3.4488">
        <ele>57</ele>
        <time>2017-09-17T11:34:18.000Z</time>
      </trkpt>
      <trkpt lat="50.5408" lon="3.44877">
        <ele>55</ele>
        <time>2017-09-17T11:34:21.000Z</time>
      </trkpt>
      <trkpt lat="50.54088" lon="3.4486">
        <ele>55</ele>
        <time>2017-09-17T11:34:24.000Z</time>
      </trkpt>
      <trkpt lat="50.54095" lon="3.44845">
        <ele>56</ele>
        <time>2017-09-17T11:34:27.000Z</time>
      </trkpt>
      <trkpt lat="50.54099" lon="3.44798">
        <ele>63</ele>
        <time>2017-09-17T11:34:33.000Z</time>
      </trkpt>
      <trkpt lat="50.54095" lon="3.44773">
        <ele>61</ele>
        <time>2017-09-17T11:34:37.000Z</time>
      </trkpt>
      <trkpt lat="50.54096" lon="3.44734">
        <ele>66</ele>
        <time>2017-09-17T11:34:42.000Z</time>
      </trkpt>
      <trkpt lat="50.54104" lon="3.44706">
        <ele>64</ele>
        <time>2017-09-17T11:34:46.000Z</time>
      </trkpt>
      <trkpt lat="50.54126" lon="3.44695">
        <ele>63</ele>
        <time>2017-09-17T11:34:51.000Z</time>
      </trkpt>
      <trkpt lat="50.54146" lon="3.44694">
        <ele>66</ele>
        <time>2017-09-17T11:34:57.000Z</time>
      </trkpt>
      <trkpt lat="50.54162" lon="3.44699">
        <ele>69</ele>
        <time>2017-09-17T11:35:01.000Z</time>
      </trkpt>
      <trkpt lat="50.54181" lon="3.44717">
        <ele>65</ele>
        <time>2017-09-17T11:35:04.000Z</time>
      </trkpt>
      <trkpt lat="50.54201" lon="3.44728">
        <ele>62</ele>
        <time>2017-09-17T11:35:07.000Z</time>
      </trkpt>
      <trkpt lat="50.54216" lon="3.44741">
        <ele>68</ele>
        <time>2017-09-17T11:35:12.000Z</time>
      </trkpt>
      <trkpt lat="50.54243" lon="3.44746">
        <ele>63</ele>
        <time>2017-09-17T11:35:18.000Z</time>
      </trkpt>
      <trkpt lat="50.54284" lon="3.44719">
        <ele>64</ele>
        <time>2017-09-17T11:35:25.000Z</time>
      </trkpt>
      <trkpt lat="50.54308" lon="3.44699">
        <ele>64</ele>
        <time>2017-09-17T11:35:30.000Z</time>
      </trkpt>
      <trkpt lat="50.54331" lon="3.44665">
        <ele>58</ele>
        <time>2017-09-17T11:35:36.000Z</time>
      </trkpt>
      <trkpt lat="50.54359" lon="3.44637">
        <ele>60</ele>
        <time>2017-09-17T11:35:42.000Z</time>
      </trkpt>
      <trkpt lat="50.54368" lon="3.4462">
        <ele>60</ele>
        <time>2017-09-17T11:35:45.000Z</time>
      </trkpt>
      <trkpt lat="50.54394" lon="3.44585">
        <ele>65</ele>
        <time>2017-09-17T11:35:51.000Z</time>
      </trkpt>
      <trkpt lat="50.544" lon="3.44575">
        <ele>66</ele>
        <time>2017-09-17T11:35:54.000Z</time>
      </trkpt>
      <trkpt lat="50.54416" lon="3.44564">
        <ele>65</ele>
        <time>2017-09-17T11:35:58.000Z</time>
      </trkpt>
      <trkpt lat="50.54415" lon="3.44524">
        <ele>62</ele>
        <time>2017-09-17T11:36:03.000Z</time>
      </trkpt>
      <trkpt lat="50.54422" lon="3.44513">
        <ele>64</ele>
        <time>2017-09-17T11:36:06.000Z</time>
      </trkpt>
      <trkpt lat="50.54417" lon="3.44508">
        <ele>61</ele>
        <time>2017-09-17T11:36:09.000Z</time>
      </trkpt>
      <trkpt lat="50.54414" lon="3.44513">
        <ele>62</ele>
        <time>2017-09-17T11:36:18.000Z</time>
      </trkpt>
      <trkpt lat="50.54417" lon="3.44493">
        <ele>59</ele>
        <time>2017-09-17T11:36:44.000Z</time>
      </trkpt>
      <trkpt lat="50.54419" lon="3.44472">
        <ele>56</ele>
        <time>2017-09-17T11:36:47.000Z</time>
      </trkpt>
      <trkpt lat="50.54422" lon="3.44432">
        <ele>57</ele>
        <time>2017-09-17T11:36:53.000Z</time>
      </trkpt>
      <trkpt lat="50.54419" lon="3.44384">
        <ele>57</ele>
        <time>2017-09-17T11:36:59.000Z</time>
      </trkpt>
      <trkpt lat="50.54425" lon="3.44338">
        <ele>59</ele>
        <time>2017-09-17T11:37:05.000Z</time>
      </trkpt>
      <trkpt lat="50.54421" lon="3.44302">
        <ele>53</ele>
        <time>2017-09-17T11:37:09.000Z</time>
      </trkpt>
      <trkpt lat="50.5444" lon="3.44277">
        <ele>39</ele>
        <time>2017-09-17T11:37:14.000Z</time>
      </trkpt>
      <trkpt lat="50.54438" lon="3.4424">
        <ele>43</ele>
        <time>2017-09-17T11:37:18.000Z</time>
      </trkpt>
      <trkpt lat="50.54442" lon="3.44216">
        <ele>38</ele>
        <time>2017-09-17T11:37:21.000Z</time>
      </trkpt>
      <trkpt lat="50.54437" lon="3.44182">
        <ele>34</ele>
        <time>2017-09-17T11:37:26.000Z</time>
      </trkpt>
      <trkpt lat="50.54439" lon="3.44151">
        <ele>38</ele>
        <time>2017-09-17T11:37:30.000Z</time>
      </trkpt>
      <trkpt lat="50.54446" lon="3.44106">
        <ele>38</ele>
        <time>2017-09-17T11:37:35.000Z</time>
      </trkpt>
      <trkpt lat="50.54447" lon="3.44085">
        <ele>38</ele>
        <time>2017-09-17T11:37:38.000Z</time>
      </trkpt>
      <trkpt lat="50.5445" lon="3.44065">
        <ele>42</ele>
        <time>2017-09-17T11:37:41.000Z</time>
      </trkpt>
      <trkpt lat="50.54456" lon="3.44043">
        <ele>38</ele>
        <time>2017-09-17T11:37:44.000Z</time>
      </trkpt>
      <trkpt lat="50.5447" lon="3.44018">
        <ele>42</ele>
        <time>2017-09-17T11:37:48.000Z</time>
      </trkpt>
      <trkpt lat="50.5449" lon="3.43978">
        <ele>44</ele>
        <time>2017-09-17T11:37:54.000Z</time>
      </trkpt>
      <trkpt lat="50.54502" lon="3.43955">
        <ele>55</ele>
        <time>2017-09-17T11:38:00.000Z</time>
      </trkpt>
      <trkpt lat="50.54508" lon="3.43921">
        <ele>54</ele>
        <time>2017-09-17T11:38:05.000Z</time>
      </trkpt>
      <trkpt lat="50.54511" lon="3.43894">
        <ele>53</ele>
        <time>2017-09-17T11:38:08.000Z</time>
      </trkpt>
      <trkpt lat="50.54529" lon="3.43866">
        <ele>56</ele>
        <time>2017-09-17T11:38:14.000Z</time>
      </trkpt>
      <trkpt lat="50.54544" lon="3.4386">
        <ele>54</ele>
        <time>2017-09-17T11:38:17.000Z</time>
      </trkpt>
      <trkpt lat="50.54561" lon="3.43855">
        <ele>54</ele>
        <time>2017-09-17T11:38:20.000Z</time>
      </trkpt>
      <trkpt lat="50.54573" lon="3.43845">
        <ele>57</ele>
        <time>2017-09-17T11:38:23.000Z</time>
      </trkpt>
      <trkpt lat="50.54611" lon="3.43838">
        <ele>55</ele>
        <time>2017-09-17T11:38:29.000Z</time>
      </trkpt>
      <trkpt lat="50.54625" lon="3.43827">
        <ele>58</ele>
        <time>2017-09-17T11:38:32.000Z</time>
      </trkpt>
      <trkpt lat="50.54636" lon="3.43813">
        <ele>61</ele>
        <time>2017-09-17T11:38:36.000Z</time>
      </trkpt>
      <trkpt lat="50.54664" lon="3.43817">
        <ele>56</ele>
        <time>2017-09-17T11:38:41.000Z</time>
      </trkpt>
      <trkpt lat="50.54695" lon="3.43798">
        <ele>58</ele>
        <time>2017-09-17T11:38:47.000Z</time>
      </trkpt>
      <trkpt lat="50.54705" lon="3.43788">
        <ele>57</ele>
        <time>2017-09-17T11:38:50.000Z</time>
      </trkpt>
      <trkpt lat="50.54716" lon="3.43781">
        <ele>56</ele>
        <time>2017-09-17T11:38:54.000Z</time>
      </trkpt>
      <trkpt lat="50.54728" lon="3.43787">
        <ele>60</ele>
        <time>2017-09-17T11:38:59.000Z</time>
      </trkpt>
      <trkpt lat="50.54737" lon="3.43778">
        <ele>60</ele>
        <time>2017-09-17T11:39:02.000Z</time>
      </trkpt>
      <trkpt lat="50.54758" lon="3.43763">
        <ele>61</ele>
        <time>2017-09-17T11:39:08.000Z</time>
      </trkpt>
      <trkpt lat="50.54791" lon="3.4375">
        <ele>62</ele>
        <time>2017-09-17T11:39:15.000Z</time>
      </trkpt>
      <trkpt lat="50.5482" lon="3.43742">
        <ele>60</ele>
        <time>2017-09-17T11:39:21.000Z</time>
      </trkpt>
      <trkpt lat="50.54843" lon="3.43728">
        <ele>63</ele>
        <time>2017-09-17T11:39:26.000Z</time>
      </trkpt>
      <trkpt lat="50.54854" lon="3.43711">
        <ele>64</ele>
        <time>2017-09-17T11:39:29.000Z</time>
      </trkpt>
      <trkpt lat="50.54868" lon="3.43689">
        <ele>64</ele>
        <time>2017-09-17T11:39:32.000Z</time>
      </trkpt>
      <trkpt lat="50.54894" lon="3.43674">
        <ele>66</ele>
        <time>2017-09-17T11:39:38.000Z</time>
      </trkpt>
      <trkpt lat="50.54909" lon="3.43661">
        <ele>68</ele>
        <time>2017-09-17T11:39:41.000Z</time>
      </trkpt>
      <trkpt lat="50.54927" lon="3.43651">
        <ele>73</ele>
        <time>2017-09-17T11:39:44.000Z</time>
      </trkpt>
      <trkpt lat="50.5494" lon="3.43645">
        <ele>74</ele>
        <time>2017-09-17T11:39:47.000Z</time>
      </trkpt>
      <trkpt lat="50.54958" lon="3.43633">
        <ele>69</ele>
        <time>2017-09-17T11:39:51.000Z</time>
      </trkpt>
      <trkpt lat="50.54987" lon="3.43614">
        <ele>70</ele>
        <time>2017-09-17T11:39:57.000Z</time>
      </trkpt>
      <trkpt lat="50.55" lon="3.43602">
        <ele>75</ele>
        <time>2017-09-17T11:40:00.000Z</time>
      </trkpt>
      <trkpt lat="50.55027" lon="3.43584">
        <ele>73</ele>
        <time>2017-09-17T11:40:06.000Z</time>
      </trkpt>
      <trkpt lat="50.55037" lon="3.4357">
        <ele>72</ele>
        <time>2017-09-17T11:40:09.000Z</time>
      </trkpt>
      <trkpt lat="50.55051" lon="3.43559">
        <ele>70</ele>
        <time>2017-09-17T11:40:12.000Z</time>
      </trkpt>
      <trkpt lat="50.55078" lon="3.43552">
        <ele>65</ele>
        <time>2017-09-17T11:40:18.000Z</time>
      </trkpt>
      <trkpt lat="50.55096" lon="3.43554">
        <ele>57</ele>
        <time>2017-09-17T11:40:21.000Z</time>
      </trkpt>
      <trkpt lat="50.55107" lon="3.43576">
        <ele>60</ele>
        <time>2017-09-17T11:40:27.000Z</time>
      </trkpt>
      <trkpt lat="50.55107" lon="3.43592">
        <ele>62</ele>
        <time>2017-09-17T11:40:30.000Z</time>
      </trkpt>
      <trkpt lat="50.55109" lon="3.43617">
        <ele>63</ele>
        <time>2017-09-17T11:40:36.000Z</time>
      </trkpt>
      <trkpt lat="50.55109" lon="3.43635">
        <ele>63</ele>
        <time>2017-09-17T11:40:42.000Z</time>
      </trkpt>
      <trkpt lat="50.55115" lon="3.4365">
        <ele>60</ele>
        <time>2017-09-17T11:40:45.000Z</time>
      </trkpt>
      <trkpt lat="50.55119" lon="3.43663">
        <ele>57</ele>
        <time>2017-09-17T11:40:48.000Z</time>
      </trkpt>
      <trkpt lat="50.55116" lon="3.43689">
        <ele>52</ele>
        <time>2017-09-17T11:40:54.000Z</time>
      </trkpt>
      <trkpt lat="50.55125" lon="3.43716">
        <ele>50</ele>
        <time>2017-09-17T11:41:00.000Z</time>
      </trkpt>
      <trkpt lat="50.55121" lon="3.43736">
        <ele>50</ele>
        <time>2017-09-17T11:41:06.000Z</time>
      </trkpt>
      <trkpt lat="50.55127" lon="3.43749">
        <ele>55</ele>
        <time>2017-09-17T11:41:09.000Z</time>
      </trkpt>
      <trkpt lat="50.55146" lon="3.43791">
        <ele>56</ele>
        <time>2017-09-17T11:41:15.000Z</time>
      </trkpt>
      <trkpt lat="50.55162" lon="3.43831">
        <ele>61</ele>
        <time>2017-09-17T11:41:21.000Z</time>
      </trkpt>
      <trkpt lat="50.55183" lon="3.43894">
        <ele>57</ele>
        <time>2017-09-17T11:41:27.000Z</time>
      </trkpt>
      <trkpt lat="50.55216" lon="3.43926">
        <ele>54</ele>
        <time>2017-09-17T11:41:33.000Z</time>
      </trkpt>
      <trkpt lat="50.55232" lon="3.43973">
        <ele>48</ele>
        <time>2017-09-17T11:41:39.000Z</time>
      </trkpt>
      <trkpt lat="50.55246" lon="3.43994">
        <ele>49</ele>
        <time>2017-09-17T11:41:42.000Z</time>
      </trkpt>
      <trkpt lat="50.55259" lon="3.44037">
        <ele>54</ele>
        <time>2017-09-17T11:41:48.000Z</time>
      </trkpt>
      <trkpt lat="50.55273" lon="3.44054">
        <ele>50</ele>
        <time>2017-09-17T11:41:51.000Z</time>
      </trkpt>
      <trkpt lat="50.55283" lon="3.44091">
        <ele>41</ele>
        <time>2017-09-17T11:41:57.000Z</time>
      </trkpt>
      <trkpt lat="50.55302" lon="3.44134">
        <ele>38</ele>
        <time>2017-09-17T11:42:03.000Z</time>
      </trkpt>
      <trkpt lat="50.5532" lon="3.4415">
        <ele>40</ele>
        <time>2017-09-17T11:42:06.000Z</time>
      </trkpt>
      <trkpt lat="50.55337" lon="3.44196">
        <ele>44</ele>
        <time>2017-09-17T11:42:12.000Z</time>
      </trkpt>
      <trkpt lat="50.55356" lon="3.44213">
        <ele>47</ele>
        <time>2017-09-17T11:42:15.000Z</time>
      </trkpt>
      <trkpt lat="50.55375" lon="3.44255">
        <ele>53</ele>
        <time>2017-09-17T11:42:21.000Z</time>
      </trkpt>
      <trkpt lat="50.55393" lon="3.44312">
        <ele>50</ele>
        <time>2017-09-17T11:42:27.000Z</time>
      </trkpt>
      <trkpt lat="50.55402" lon="3.4433">
        <ele>53</ele>
        <time>2017-09-17T11:42:30.000Z</time>
      </trkpt>
      <trkpt lat="50.55424" lon="3.44367">
        <ele>51</ele>
        <time>2017-09-17T11:42:36.000Z</time>
      </trkpt>
      <trkpt lat="50.55444" lon="3.44397">
        <ele>50</ele>
        <time>2017-09-17T11:42:42.000Z</time>
      </trkpt>
      <trkpt lat="50.55458" lon="3.44437">
        <ele>52</ele>
        <time>2017-09-17T11:42:48.000Z</time>
      </trkpt>
      <trkpt lat="50.55466" lon="3.4446">
        <ele>54</ele>
        <time>2017-09-17T11:42:51.000Z</time>
      </trkpt>
      <trkpt lat="50.55476" lon="3.44477">
        <ele>55</ele>
        <time>2017-09-17T11:42:54.000Z</time>
      </trkpt>
      <trkpt lat="50.55492" lon="3.44513">
        <ele>56</ele>
        <time>2017-09-17T11:43:00.000Z</time>
      </trkpt>
      <trkpt lat="50.55512" lon="3.44547">
        <ele>60</ele>
        <time>2017-09-17T11:43:06.000Z</time>
      </trkpt>
      <trkpt lat="50.55524" lon="3.44565">
        <ele>61</ele>
        <time>2017-09-17T11:43:09.000Z</time>
      </trkpt>
      <trkpt lat="50.55543" lon="3.44599">
        <ele>64</ele>
        <time>2017-09-17T11:43:15.000Z</time>
      </trkpt>
      <trkpt lat="50.55554" lon="3.44616">
        <ele>61</ele>
        <time>2017-09-17T11:43:18.000Z</time>
      </trkpt>
      <trkpt lat="50.55566" lon="3.44632">
        <ele>61</ele>
        <time>2017-09-17T11:43:21.000Z</time>
      </trkpt>
      <trkpt lat="50.55585" lon="3.44661">
        <ele>59</ele>
        <time>2017-09-17T11:43:27.000Z</time>
      </trkpt>
      <trkpt lat="50.55595" lon="3.44679">
        <ele>56</ele>
        <time>2017-09-17T11:43:30.000Z</time>
      </trkpt>
      <trkpt lat="50.5561" lon="3.44721">
        <ele>55</ele>
        <time>2017-09-17T11:43:36.000Z</time>
      </trkpt>
      <trkpt lat="50.55632" lon="3.44758">
        <ele>55</ele>
        <time>2017-09-17T11:43:42.000Z</time>
      </trkpt>
      <trkpt lat="50.5564" lon="3.44776">
        <ele>52</ele>
        <time>2017-09-17T11:43:45.000Z</time>
      </trkpt>
      <trkpt lat="50.55641" lon="3.44794">
        <ele>54</ele>
        <time>2017-09-17T11:43:48.000Z</time>
      </trkpt>
      <trkpt lat="50.55662" lon="3.44822">
        <ele>56</ele>
        <time>2017-09-17T11:43:54.000Z</time>
      </trkpt>
      <trkpt lat="50.55679" lon="3.44862">
        <ele>55</ele>
        <time>2017-09-17T11:44:00.000Z</time>
      </trkpt>
      <trkpt lat="50.55692" lon="3.44878">
        <ele>59</ele>
        <time>2017-09-17T11:44:03.000Z</time>
      </trkpt>
      <trkpt lat="50.55713" lon="3.44906">
        <ele>61</ele>
        <time>2017-09-17T11:44:09.000Z</time>
      </trkpt>
      <trkpt lat="50.5572" lon="3.44923">
        <ele>61</ele>
        <time>2017-09-17T11:44:12.000Z</time>
      </trkpt>
      <trkpt lat="50.55736" lon="3.44942">
        <ele>65</ele>
        <time>2017-09-17T11:44:15.000Z</time>
      </trkpt>
      <trkpt lat="50.55751" lon="3.45005">
        <ele>51</ele>
        <time>2017-09-17T11:44:21.000Z</time>
      </trkpt>
      <trkpt lat="50.55774" lon="3.45032">
        <ele>53</ele>
        <time>2017-09-17T11:44:27.000Z</time>
      </trkpt>
      <trkpt lat="50.55787" lon="3.45058">
        <ele>50</ele>
        <time>2017-09-17T11:44:33.000Z</time>
      </trkpt>
      <trkpt lat="50.55798" lon="3.45072">
        <ele>53</ele>
        <time>2017-09-17T11:44:36.000Z</time>
      </trkpt>
      <trkpt lat="50.55814" lon="3.45107">
        <ele>60</ele>
        <time>2017-09-17T11:44:42.000Z</time>
      </trkpt>
      <trkpt lat="50.55821" lon="3.45125">
        <ele>62</ele>
        <time>2017-09-17T11:44:45.000Z</time>
      </trkpt>
      <trkpt lat="50.55834" lon="3.4514">
        <ele>64</ele>
        <time>2017-09-17T11:44:48.000Z</time>
      </trkpt>
      <trkpt lat="50.55841" lon="3.45164">
        <ele>60</ele>
        <time>2017-09-17T11:44:51.000Z</time>
      </trkpt>
      <trkpt lat="50.5586" lon="3.45199">
        <ele>63</ele>
        <time>2017-09-17T11:44:57.000Z</time>
      </trkpt>
      <trkpt lat="50.55872" lon="3.45234">
        <ele>64</ele>
        <time>2017-09-17T11:45:02.000Z</time>
      </trkpt>
      <trkpt lat="50.55879" lon="3.45256">
        <ele>61</ele>
        <time>2017-09-17T11:45:06.000Z</time>
      </trkpt>
      <trkpt lat="50.55897" lon="3.45275">
        <ele>59</ele>
        <time>2017-09-17T11:45:12.000Z</time>
      </trkpt>
      <trkpt lat="50.55916" lon="3.45312">
        <ele>58</ele>
        <time>2017-09-17T11:45:18.000Z</time>
      </trkpt>
      <trkpt lat="50.55925" lon="3.4533">
        <ele>62</ele>
        <time>2017-09-17T11:45:21.000Z</time>
      </trkpt>
      <trkpt lat="50.5594" lon="3.4535">
        <ele>63</ele>
        <time>2017-09-17T11:45:24.000Z</time>
      </trkpt>
      <trkpt lat="50.55957" lon="3.45376">
        <ele>62</ele>
        <time>2017-09-17T11:45:29.000Z</time>
      </trkpt>
      <trkpt lat="50.55965" lon="3.45392">
        <ele>59</ele>
        <time>2017-09-17T11:45:32.000Z</time>
      </trkpt>
      <trkpt lat="50.5598" lon="3.45434">
        <ele>69</ele>
        <time>2017-09-17T11:45:39.000Z</time>
      </trkpt>
      <trkpt lat="50.56001" lon="3.45464">
        <ele>69</ele>
        <time>2017-09-17T11:45:44.000Z</time>
      </trkpt>
      <trkpt lat="50.56014" lon="3.45472">
        <ele>69</ele>
        <time>2017-09-17T11:45:47.000Z</time>
      </trkpt>
      <trkpt lat="50.56031" lon="3.45492">
        <ele>69</ele>
        <time>2017-09-17T11:45:53.000Z</time>
      </trkpt>
      <trkpt lat="50.56057" lon="3.45535">
        <ele>73</ele>
        <time>2017-09-17T11:46:00.000Z</time>
      </trkpt>
      <trkpt lat="50.5608" lon="3.4556">
        <ele>72</ele>
        <time>2017-09-17T11:46:06.000Z</time>
      </trkpt>
      <trkpt lat="50.56102" lon="3.45585">
        <ele>70</ele>
        <time>2017-09-17T11:46:12.000Z</time>
      </trkpt>
      <trkpt lat="50.56114" lon="3.45597">
        <ele>70</ele>
        <time>2017-09-17T11:46:15.000Z</time>
      </trkpt>
      <trkpt lat="50.56126" lon="3.45605">
        <ele>69</ele>
        <time>2017-09-17T11:46:18.000Z</time>
      </trkpt>
      <trkpt lat="50.56143" lon="3.45633">
        <ele>69</ele>
        <time>2017-09-17T11:46:24.000Z</time>
      </trkpt>
      <trkpt lat="50.56158" lon="3.45639">
        <ele>67</ele>
        <time>2017-09-17T11:46:27.000Z</time>
      </trkpt>
      <trkpt lat="50.56171" lon="3.45643">
        <ele>70</ele>
        <time>2017-09-17T11:46:30.000Z</time>
      </trkpt>
      <trkpt lat="50.56179" lon="3.45648">
        <ele>73</ele>
        <time>2017-09-17T11:46:35.000Z</time>
      </trkpt>
      <trkpt lat="50.56176" lon="3.45656">
        <ele>71</ele>
        <time>2017-09-17T11:46:41.000Z</time>
      </trkpt>
      <trkpt lat="50.56184" lon="3.45657">
        <ele>71</ele>
        <time>2017-09-17T11:46:47.000Z</time>
      </trkpt>
      <trkpt lat="50.56194" lon="3.45651">
        <ele>74</ele>
        <time>2017-09-17T11:46:53.000Z</time>
      </trkpt>
      <trkpt lat="50.56202" lon="3.45652">
        <ele>73</ele>
        <time>2017-09-17T11:46:56.000Z</time>
      </trkpt>
      <trkpt lat="50.56214" lon="3.45655">
        <ele>74</ele>
        <time>2017-09-17T11:47:00.000Z</time>
      </trkpt>
      <trkpt lat="50.56226" lon="3.45663">
        <ele>74</ele>
        <time>2017-09-17T11:47:05.000Z</time>
      </trkpt>
      <trkpt lat="50.56244" lon="3.45671">
        <ele>77</ele>
        <time>2017-09-17T11:47:11.000Z</time>
      </trkpt>
      <trkpt lat="50.56259" lon="3.45672">
        <ele>81</ele>
        <time>2017-09-17T11:47:17.000Z</time>
      </trkpt>
      <trkpt lat="50.56282" lon="3.45674">
        <ele>83</ele>
        <time>2017-09-17T11:47:24.000Z</time>
      </trkpt>
      <trkpt lat="50.56287" lon="3.45681">
        <ele>72</ele>
        <time>2017-09-17T11:47:29.000Z</time>
      </trkpt>
      <trkpt lat="50.56294" lon="3.45681">
        <ele>74</ele>
        <time>2017-09-17T11:47:42.000Z</time>
      </trkpt>
      <trkpt lat="50.56289" lon="3.45677">
        <ele>72</ele>
        <time>2017-09-17T11:47:51.000Z</time>
      </trkpt>
      <trkpt lat="50.56303" lon="3.45677">
        <ele>73</ele>
        <time>2017-09-17T11:48:21.000Z</time>
      </trkpt>
      <trkpt lat="50.56335" lon="3.45694">
        <ele>76</ele>
        <time>2017-09-17T11:48:29.000Z</time>
      </trkpt>
      <trkpt lat="50.56359" lon="3.45685">
        <ele>73</ele>
        <time>2017-09-17T11:48:35.000Z</time>
      </trkpt>
      <trkpt lat="50.56379" lon="3.45682">
        <ele>73</ele>
        <time>2017-09-17T11:48:40.000Z</time>
      </trkpt>
      <trkpt lat="50.564" lon="3.45684">
        <ele>76</ele>
        <time>2017-09-17T11:48:46.000Z</time>
      </trkpt>
      <trkpt lat="50.56413" lon="3.45681">
        <ele>77</ele>
        <time>2017-09-17T11:48:49.000Z</time>
      </trkpt>
      <trkpt lat="50.56459" lon="3.45664">
        <ele>80</ele>
        <time>2017-09-17T11:48:56.000Z</time>
      </trkpt>
      <trkpt lat="50.56477" lon="3.45657">
        <ele>81</ele>
        <time>2017-09-17T11:49:01.000Z</time>
      </trkpt>
      <trkpt lat="50.56487" lon="3.45651">
        <ele>81</ele>
        <time>2017-09-17T11:49:04.000Z</time>
      </trkpt>
      <trkpt lat="50.56514" lon="3.45603">
        <ele>77</ele>
        <time>2017-09-17T11:49:10.000Z</time>
      </trkpt>
      <trkpt lat="50.56527" lon="3.45596">
        <ele>75</ele>
        <time>2017-09-17T11:49:14.000Z</time>
      </trkpt>
      <trkpt lat="50.56548" lon="3.4558">
        <ele>76</ele>
        <time>2017-09-17T11:49:19.000Z</time>
      </trkpt>
      <trkpt lat="50.56566" lon="3.45572">
        <ele>77</ele>
        <time>2017-09-17T11:49:23.000Z</time>
      </trkpt>
      <trkpt lat="50.56582" lon="3.45562">
        <ele>72</ele>
        <time>2017-09-17T11:49:26.000Z</time>
      </trkpt>
      <trkpt lat="50.56607" lon="3.45528">
        <ele>78</ele>
        <time>2017-09-17T11:49:32.000Z</time>
      </trkpt>
      <trkpt lat="50.56625" lon="3.45505">
        <ele>81</ele>
        <time>2017-09-17T11:49:38.000Z</time>
      </trkpt>
      <trkpt lat="50.56634" lon="3.45486">
        <ele>81</ele>
        <time>2017-09-17T11:49:41.000Z</time>
      </trkpt>
      <trkpt lat="50.56656" lon="3.45469">
        <ele>81</ele>
        <time>2017-09-17T11:49:47.000Z</time>
      </trkpt>
      <trkpt lat="50.56663" lon="3.45465">
        <ele>79</ele>
        <time>2017-09-17T11:49:50.000Z</time>
      </trkpt>
      <trkpt lat="50.56665" lon="3.45449">
        <ele>77</ele>
        <time>2017-09-17T11:49:53.000Z</time>
      </trkpt>
      <trkpt lat="50.56671" lon="3.45429">
        <ele>77</ele>
        <time>2017-09-17T11:49:56.000Z</time>
      </trkpt>
      <trkpt lat="50.56682" lon="3.45379">
        <ele>78</ele>
        <time>2017-09-17T11:50:02.000Z</time>
      </trkpt>
      <trkpt lat="50.56691" lon="3.45361">
        <ele>78</ele>
        <time>2017-09-17T11:50:05.000Z</time>
      </trkpt>
      <trkpt lat="50.56709" lon="3.45325">
        <ele>78</ele>
        <time>2017-09-17T11:50:11.000Z</time>
      </trkpt>
      <trkpt lat="50.5672" lon="3.45302">
        <ele>75</ele>
        <time>2017-09-17T11:50:14.000Z</time>
      </trkpt>
      <trkpt lat="50.56727" lon="3.4528">
        <ele>75</ele>
        <time>2017-09-17T11:50:17.000Z</time>
      </trkpt>
      <trkpt lat="50.56737" lon="3.45234">
        <ele>75</ele>
        <time>2017-09-17T11:50:23.000Z</time>
      </trkpt>
      <trkpt lat="50.56741" lon="3.45189">
        <ele>70</ele>
        <time>2017-09-17T11:50:29.000Z</time>
      </trkpt>
      <trkpt lat="50.56744" lon="3.45166">
        <ele>70</ele>
        <time>2017-09-17T11:50:32.000Z</time>
      </trkpt>
      <trkpt lat="50.56742" lon="3.45155">
        <ele>71</ele>
        <time>2017-09-17T11:50:35.000Z</time>
      </trkpt>
      <trkpt lat="50.56748" lon="3.45113">
        <ele>74</ele>
        <time>2017-09-17T11:50:44.000Z</time>
      </trkpt>
      <trkpt lat="50.56757" lon="3.45075">
        <ele>77</ele>
        <time>2017-09-17T11:50:50.000Z</time>
      </trkpt>
      <trkpt lat="50.56762" lon="3.45047">
        <ele>75</ele>
        <time>2017-09-17T11:50:53.000Z</time>
      </trkpt>
      <trkpt lat="50.56769" lon="3.45004">
        <ele>73</ele>
        <time>2017-09-17T11:50:59.000Z</time>
      </trkpt>
      <trkpt lat="50.56772" lon="3.44983">
        <ele>73</ele>
        <time>2017-09-17T11:51:02.000Z</time>
      </trkpt>
      <trkpt lat="50.56778" lon="3.44945">
        <ele>74</ele>
        <time>2017-09-17T11:51:08.000Z</time>
      </trkpt>
      <trkpt lat="50.56782" lon="3.4492">
        <ele>75</ele>
        <time>2017-09-17T11:51:11.000Z</time>
      </trkpt>
      <trkpt lat="50.56796" lon="3.44857">
        <ele>70</ele>
        <time>2017-09-17T11:51:17.000Z</time>
      </trkpt>
      <trkpt lat="50.56812" lon="3.44805">
        <ele>67</ele>
        <time>2017-09-17T11:51:22.000Z</time>
      </trkpt>
      <trkpt lat="50.5682" lon="3.44764">
        <ele>64</ele>
        <time>2017-09-17T11:51:26.000Z</time>
      </trkpt>
      <trkpt lat="50.56829" lon="3.44728">
        <ele>64</ele>
        <time>2017-09-17T11:51:29.000Z</time>
      </trkpt>
      <trkpt lat="50.56844" lon="3.44622">
        <ele>63</ele>
        <time>2017-09-17T11:51:38.000Z</time>
      </trkpt>
      <trkpt lat="50.56822" lon="3.44597">
        <ele>61</ele>
        <time>2017-09-17T11:51:43.000Z</time>
      </trkpt>
      <trkpt lat="50.56809" lon="3.44581">
        <ele>61</ele>
        <time>2017-09-17T11:51:46.000Z</time>
      </trkpt>
      <trkpt lat="50.56793" lon="3.44568">
        <ele>62</ele>
        <time>2017-09-17T11:51:49.000Z</time>
      </trkpt>
      <trkpt lat="50.56772" lon="3.44539">
        <ele>64</ele>
        <time>2017-09-17T11:51:55.000Z</time>
      </trkpt>
      <trkpt lat="50.56763" lon="3.44543">
        <ele>67</ele>
        <time>2017-09-17T11:51:58.000Z</time>
      </trkpt>
      <trkpt lat="50.56764" lon="3.44509">
        <ele>64</ele>
        <time>2017-09-17T11:52:01.000Z</time>
      </trkpt>
      <trkpt lat="50.56766" lon="3.44457">
        <ele>64</ele>
        <time>2017-09-17T11:52:07.000Z</time>
      </trkpt>
      <trkpt lat="50.56762" lon="3.44429">
        <ele>61</ele>
        <time>2017-09-17T11:52:10.000Z</time>
      </trkpt>
      <trkpt lat="50.56749" lon="3.44387">
        <ele>60</ele>
        <time>2017-09-17T11:52:16.000Z</time>
      </trkpt>
      <trkpt lat="50.56741" lon="3.44364">
        <ele>59</ele>
        <time>2017-09-17T11:52:19.000Z</time>
      </trkpt>
      <trkpt lat="50.56743" lon="3.44352">
        <ele>58</ele>
        <time>2017-09-17T11:52:22.000Z</time>
      </trkpt>
      <trkpt lat="50.56743" lon="3.44326">
        <ele>55</ele>
        <time>2017-09-17T11:52:28.000Z</time>
      </trkpt>
      <trkpt lat="50.56747" lon="3.44298">
        <ele>56</ele>
        <time>2017-09-17T11:52:34.000Z</time>
      </trkpt>
      <trkpt lat="50.56748" lon="3.44289">
        <ele>56</ele>
        <time>2017-09-17T11:52:37.000Z</time>
      </trkpt>
      <trkpt lat="50.56749" lon="3.44276">
        <ele>55</ele>
        <time>2017-09-17T11:52:40.000Z</time>
      </trkpt>
      <trkpt lat="50.56753" lon="3.44249">
        <ele>56</ele>
        <time>2017-09-17T11:52:46.000Z</time>
      </trkpt>
      <trkpt lat="50.56751" lon="3.44237">
        <ele>55</ele>
        <time>2017-09-17T11:52:49.000Z</time>
      </trkpt>
      <trkpt lat="50.56755" lon="3.4421">
        <ele>56</ele>
        <time>2017-09-17T11:52:55.000Z</time>
      </trkpt>
      <trkpt lat="50.56759" lon="3.44193">
        <ele>58</ele>
        <time>2017-09-17T11:52:58.000Z</time>
      </trkpt>
      <trkpt lat="50.56763" lon="3.44149">
        <ele>57</ele>
        <time>2017-09-17T11:53:04.000Z</time>
      </trkpt>
      <trkpt lat="50.5677" lon="3.4413">
        <ele>56</ele>
        <time>2017-09-17T11:53:07.000Z</time>
      </trkpt>
      <trkpt lat="50.56797" lon="3.44112">
        <ele>58</ele>
        <time>2017-09-17T11:53:13.000Z</time>
      </trkpt>
      <trkpt lat="50.56825" lon="3.44126">
        <ele>60</ele>
        <time>2017-09-17T11:53:19.000Z</time>
      </trkpt>
      <trkpt lat="50.56831" lon="3.44148">
        <ele>60</ele>
        <time>2017-09-17T11:53:22.000Z</time>
      </trkpt>
      <trkpt lat="50.56861" lon="3.44158">
        <ele>59</ele>
        <time>2017-09-17T11:53:28.000Z</time>
      </trkpt>
      <trkpt lat="50.56878" lon="3.44153">
        <ele>64</ele>
        <time>2017-09-17T11:53:31.000Z</time>
      </trkpt>
      <trkpt lat="50.56911" lon="3.44134">
        <ele>64</ele>
        <time>2017-09-17T11:53:37.000Z</time>
      </trkpt>
      <trkpt lat="50.56927" lon="3.44126">
        <ele>66</ele>
        <time>2017-09-17T11:53:40.000Z</time>
      </trkpt>
      <trkpt lat="50.5696" lon="3.44126">
        <ele>65</ele>
        <time>2017-09-17T11:53:46.000Z</time>
      </trkpt>
      <trkpt lat="50.56971" lon="3.44123">
        <ele>65</ele>
        <time>2017-09-17T11:53:49.000Z</time>
      </trkpt>
      <trkpt lat="50.57" lon="3.44111">
        <ele>66</ele>
        <time>2017-09-17T11:53:55.000Z</time>
      </trkpt>
      <trkpt lat="50.57015" lon="3.4411">
        <ele>66</ele>
        <time>2017-09-17T11:53:58.000Z</time>
      </trkpt>
      <trkpt lat="50.57029" lon="3.44106">
        <ele>66</ele>
        <time>2017-09-17T11:54:01.000Z</time>
      </trkpt>
      <trkpt lat="50.57045" lon="3.44105">
        <ele>65</ele>
        <time>2017-09-17T11:54:04.000Z</time>
      </trkpt>
      <trkpt lat="50.5708" lon="3.44108">
        <ele>56</ele>
        <time>2017-09-17T11:54:10.000Z</time>
      </trkpt>
      <trkpt lat="50.57098" lon="3.44105">
        <ele>55</ele>
        <time>2017-09-17T11:54:13.000Z</time>
      </trkpt>
      <trkpt lat="50.57118" lon="3.44097">
        <ele>57</ele>
        <time>2017-09-17T11:54:16.000Z</time>
      </trkpt>
      <trkpt lat="50.5715" lon="3.44079">
        <ele>60</ele>
        <time>2017-09-17T11:54:22.000Z</time>
      </trkpt>
      <trkpt lat="50.57167" lon="3.44073">
        <ele>62</ele>
        <time>2017-09-17T11:54:25.000Z</time>
      </trkpt>
      <trkpt lat="50.57185" lon="3.44072">
        <ele>61</ele>
        <time>2017-09-17T11:54:28.000Z</time>
      </trkpt>
      <trkpt lat="50.57222" lon="3.44062">
        <ele>61</ele>
        <time>2017-09-17T11:54:34.000Z</time>
      </trkpt>
      <trkpt lat="50.5724" lon="3.44055">
        <ele>59</ele>
        <time>2017-09-17T11:54:37.000Z</time>
      </trkpt>
      <trkpt lat="50.57257" lon="3.44051">
        <ele>59</ele>
        <time>2017-09-17T11:54:40.000Z</time>
      </trkpt>
      <trkpt lat="50.57291" lon="3.44051">
        <ele>55</ele>
        <time>2017-09-17T11:54:46.000Z</time>
      </trkpt>
      <trkpt lat="50.57308" lon="3.44046">
        <ele>61</ele>
        <time>2017-09-17T11:54:49.000Z</time>
      </trkpt>
      <trkpt lat="50.57328" lon="3.44039">
        <ele>60</ele>
        <time>2017-09-17T11:54:52.000Z</time>
      </trkpt>
      <trkpt lat="50.57357" lon="3.44025">
        <ele>62</ele>
        <time>2017-09-17T11:54:58.000Z</time>
      </trkpt>
      <trkpt lat="50.57388" lon="3.44018">
        <ele>61</ele>
        <time>2017-09-17T11:55:04.000Z</time>
      </trkpt>
      <trkpt lat="50.57402" lon="3.44015">
        <ele>60</ele>
        <time>2017-09-17T11:55:07.000Z</time>
      </trkpt>
      <trkpt lat="50.57418" lon="3.44012">
        <ele>59</ele>
        <time>2017-09-17T11:55:10.000Z</time>
      </trkpt>
      <trkpt lat="50.57441" lon="3.44011">
        <ele>60</ele>
        <time>2017-09-17T11:55:16.000Z</time>
      </trkpt>
      <trkpt lat="50.57479" lon="3.44023">
        <ele>63</ele>
        <time>2017-09-17T11:55:22.000Z</time>
      </trkpt>
      <trkpt lat="50.57498" lon="3.44027">
        <ele>64</ele>
        <time>2017-09-17T11:55:25.000Z</time>
      </trkpt>
      <trkpt lat="50.57539" lon="3.44028">
        <ele>61</ele>
        <time>2017-09-17T11:55:31.000Z</time>
      </trkpt>
      <trkpt lat="50.57558" lon="3.44027">
        <ele>64</ele>
        <time>2017-09-17T11:55:34.000Z</time>
      </trkpt>
      <trkpt lat="50.57577" lon="3.44032">
        <ele>62</ele>
        <time>2017-09-17T11:55:37.000Z</time>
      </trkpt>
      <trkpt lat="50.57618" lon="3.44029">
        <ele>64</ele>
        <time>2017-09-17T11:55:43.000Z</time>
      </trkpt>
      <trkpt lat="50.57635" lon="3.44025">
        <ele>64</ele>
        <time>2017-09-17T11:55:46.000Z</time>
      </trkpt>
      <trkpt lat="50.57676" lon="3.4403">
        <ele>58</ele>
        <time>2017-09-17T11:55:52.000Z</time>
      </trkpt>
      <trkpt lat="50.57696" lon="3.44017">
        <ele>57</ele>
        <time>2017-09-17T11:55:55.000Z</time>
      </trkpt>
      <trkpt lat="50.57731" lon="3.44019">
        <ele>55</ele>
        <time>2017-09-17T11:56:01.000Z</time>
      </trkpt>
      <trkpt lat="50.57748" lon="3.44018">
        <ele>57</ele>
        <time>2017-09-17T11:56:04.000Z</time>
      </trkpt>
      <trkpt lat="50.57784" lon="3.44008">
        <ele>58</ele>
        <time>2017-09-17T11:56:10.000Z</time>
      </trkpt>
      <trkpt lat="50.57811" lon="3.44">
        <ele>61</ele>
        <time>2017-09-17T11:56:16.000Z</time>
      </trkpt>
      <trkpt lat="50.57835" lon="3.43999">
        <ele>63</ele>
        <time>2017-09-17T11:56:20.000Z</time>
      </trkpt>
      <trkpt lat="50.5785" lon="3.4399">
        <ele>60</ele>
        <time>2017-09-17T11:56:23.000Z</time>
      </trkpt>
      <trkpt lat="50.57868" lon="3.43986">
        <ele>60</ele>
        <time>2017-09-17T11:56:26.000Z</time>
      </trkpt>
      <trkpt lat="50.57892" lon="3.43962">
        <ele>54</ele>
        <time>2017-09-17T11:56:31.000Z</time>
      </trkpt>
      <trkpt lat="50.57927" lon="3.43944">
        <ele>55</ele>
        <time>2017-09-17T11:56:37.000Z</time>
      </trkpt>
      <trkpt lat="50.5796" lon="3.43921">
        <ele>54</ele>
        <time>2017-09-17T11:56:43.000Z</time>
      </trkpt>
      <trkpt lat="50.57974" lon="3.43918">
        <ele>53</ele>
        <time>2017-09-17T11:56:46.000Z</time>
      </trkpt>
      <trkpt lat="50.58003" lon="3.43903">
        <ele>56</ele>
        <time>2017-09-17T11:56:52.000Z</time>
      </trkpt>
      <trkpt lat="50.58015" lon="3.43898">
        <ele>59</ele>
        <time>2017-09-17T11:56:55.000Z</time>
      </trkpt>
      <trkpt lat="50.58043" lon="3.43877">
        <ele>57</ele>
        <time>2017-09-17T11:57:01.000Z</time>
      </trkpt>
      <trkpt lat="50.58067" lon="3.43857">
        <ele>58</ele>
        <time>2017-09-17T11:57:07.000Z</time>
      </trkpt>
      <trkpt lat="50.58075" lon="3.43838">
        <ele>57</ele>
        <time>2017-09-17T11:57:10.000Z</time>
      </trkpt>
      <trkpt lat="50.5808" lon="3.43819">
        <ele>58</ele>
        <time>2017-09-17T11:57:13.000Z</time>
      </trkpt>
      <trkpt lat="50.58084" lon="3.43796">
        <ele>62</ele>
        <time>2017-09-17T11:57:16.000Z</time>
      </trkpt>
      <trkpt lat="50.58088" lon="3.43776">
        <ele>63</ele>
        <time>2017-09-17T11:57:19.000Z</time>
      </trkpt>
      <trkpt lat="50.58099" lon="3.43738">
        <ele>62</ele>
        <time>2017-09-17T11:57:25.000Z</time>
      </trkpt>
      <trkpt lat="50.58106" lon="3.43716">
        <ele>61</ele>
        <time>2017-09-17T11:57:28.000Z</time>
      </trkpt>
      <trkpt lat="50.58133" lon="3.43694">
        <ele>62</ele>
        <time>2017-09-17T11:57:34.000Z</time>
      </trkpt>
      <trkpt lat="50.58149" lon="3.43689">
        <ele>57</ele>
        <time>2017-09-17T11:57:37.000Z</time>
      </trkpt>
      <trkpt lat="50.5818" lon="3.4369">
        <ele>56</ele>
        <time>2017-09-17T11:57:43.000Z</time>
      </trkpt>
      <trkpt lat="50.58208" lon="3.43696">
        <ele>58</ele>
        <time>2017-09-17T11:57:49.000Z</time>
      </trkpt>
      <trkpt lat="50.58231" lon="3.43677">
        <ele>64</ele>
        <time>2017-09-17T11:57:55.000Z</time>
      </trkpt>
      <trkpt lat="50.58242" lon="3.43666">
        <ele>62</ele>
        <time>2017-09-17T11:57:58.000Z</time>
      </trkpt>
      <trkpt lat="50.58254" lon="3.43646">
        <ele>60</ele>
        <time>2017-09-17T11:58:01.000Z</time>
      </trkpt>
      <trkpt lat="50.58265" lon="3.43634">
        <ele>61</ele>
        <time>2017-09-17T11:58:04.000Z</time>
      </trkpt>
      <trkpt lat="50.58286" lon="3.43603">
        <ele>61</ele>
        <time>2017-09-17T11:58:10.000Z</time>
      </trkpt>
      <trkpt lat="50.58295" lon="3.43583">
        <ele>62</ele>
        <time>2017-09-17T11:58:13.000Z</time>
      </trkpt>
      <trkpt lat="50.58318" lon="3.43555">
        <ele>62</ele>
        <time>2017-09-17T11:58:19.000Z</time>
      </trkpt>
      <trkpt lat="50.5833" lon="3.43533">
        <ele>64</ele>
        <time>2017-09-17T11:58:22.000Z</time>
      </trkpt>
      <trkpt lat="50.58352" lon="3.43498">
        <ele>66</ele>
        <time>2017-09-17T11:58:28.000Z</time>
      </trkpt>
      <trkpt lat="50.5836" lon="3.43475">
        <ele>64</ele>
        <time>2017-09-17T11:58:31.000Z</time>
      </trkpt>
      <trkpt lat="50.58369" lon="3.43456">
        <ele>63</ele>
        <time>2017-09-17T11:58:34.000Z</time>
      </trkpt>
      <trkpt lat="50.58389" lon="3.4342">
        <ele>60</ele>
        <time>2017-09-17T11:58:40.000Z</time>
      </trkpt>
      <trkpt lat="50.5841" lon="3.43387">
        <ele>58</ele>
        <time>2017-09-17T11:58:46.000Z</time>
      </trkpt>
      <trkpt lat="50.5842" lon="3.43369">
        <ele>58</ele>
        <time>2017-09-17T11:58:49.000Z</time>
      </trkpt>
      <trkpt lat="50.58441" lon="3.43336">
        <ele>53</ele>
        <time>2017-09-17T11:58:55.000Z</time>
      </trkpt>
      <trkpt lat="50.5846" lon="3.43298">
        <ele>59</ele>
        <time>2017-09-17T11:59:01.000Z</time>
      </trkpt>
      <trkpt lat="50.5848" lon="3.43262">
        <ele>60</ele>
        <time>2017-09-17T11:59:07.000Z</time>
      </trkpt>
      <trkpt lat="50.58497" lon="3.43219">
        <ele>62</ele>
        <time>2017-09-17T11:59:13.000Z</time>
      </trkpt>
      <trkpt lat="50.58514" lon="3.4318">
        <ele>65</ele>
        <time>2017-09-17T11:59:19.000Z</time>
      </trkpt>
      <trkpt lat="50.58525" lon="3.43166">
        <ele>64</ele>
        <time>2017-09-17T11:59:22.000Z</time>
      </trkpt>
      <trkpt lat="50.58544" lon="3.43128">
        <ele>64</ele>
        <time>2017-09-17T11:59:28.000Z</time>
      </trkpt>
      <trkpt lat="50.58564" lon="3.43092">
        <ele>68</ele>
        <time>2017-09-17T11:59:34.000Z</time>
      </trkpt>
      <trkpt lat="50.5859" lon="3.43067">
        <ele>63</ele>
        <time>2017-09-17T11:59:40.000Z</time>
      </trkpt>
      <trkpt lat="50.58598" lon="3.43042">
        <ele>65</ele>
        <time>2017-09-17T11:59:46.000Z</time>
      </trkpt>
      <trkpt lat="50.58587" lon="3.43012">
        <ele>61</ele>
        <time>2017-09-17T11:59:52.000Z</time>
      </trkpt>
      <trkpt lat="50.58571" lon="3.4299">
        <ele>62</ele>
        <time>2017-09-17T11:59:58.000Z</time>
      </trkpt>
      <trkpt lat="50.58562" lon="3.42983">
        <ele>61</ele>
        <time>2017-09-17T12:00:01.000Z</time>
      </trkpt>
      <trkpt lat="50.58562" lon="3.42955">
        <ele>59</ele>
        <time>2017-09-17T12:00:07.000Z</time>
      </trkpt>
      <trkpt lat="50.58567" lon="3.42937">
        <ele>59</ele>
        <time>2017-09-17T12:00:10.000Z</time>
      </trkpt>
      <trkpt lat="50.58578" lon="3.42904">
        <ele>59</ele>
        <time>2017-09-17T12:00:16.000Z</time>
      </trkpt>
      <trkpt lat="50.58582" lon="3.42885">
        <ele>62</ele>
        <time>2017-09-17T12:00:19.000Z</time>
      </trkpt>
      <trkpt lat="50.58599" lon="3.42853">
        <ele>64</ele>
        <time>2017-09-17T12:00:25.000Z</time>
      </trkpt>
      <trkpt lat="50.58605" lon="3.42832">
        <ele>65</ele>
        <time>2017-09-17T12:00:28.000Z</time>
      </trkpt>
      <trkpt lat="50.58619" lon="3.42801">
        <ele>61</ele>
        <time>2017-09-17T12:00:34.000Z</time>
      </trkpt>
      <trkpt lat="50.58624" lon="3.42779">
        <ele>56</ele>
        <time>2017-09-17T12:00:37.000Z</time>
      </trkpt>
      <trkpt lat="50.58632" lon="3.42762">
        <ele>60</ele>
        <time>2017-09-17T12:00:40.000Z</time>
      </trkpt>
      <trkpt lat="50.58642" lon="3.42746">
        <ele>61</ele>
        <time>2017-09-17T12:00:43.000Z</time>
      </trkpt>
      <trkpt lat="50.58653" lon="3.42732">
        <ele>64</ele>
        <time>2017-09-17T12:00:46.000Z</time>
      </trkpt>
      <trkpt lat="50.58676" lon="3.42719">
        <ele>61</ele>
        <time>2017-09-17T12:00:52.000Z</time>
      </trkpt>
      <trkpt lat="50.5869" lon="3.42704">
        <ele>59</ele>
        <time>2017-09-17T12:00:55.000Z</time>
      </trkpt>
      <trkpt lat="50.58712" lon="3.42674">
        <ele>53</ele>
        <time>2017-09-17T12:01:01.000Z</time>
      </trkpt>
      <trkpt lat="50.58726" lon="3.42656">
        <ele>53</ele>
        <time>2017-09-17T12:01:04.000Z</time>
      </trkpt>
      <trkpt lat="50.5874" lon="3.42639">
        <ele>54</ele>
        <time>2017-09-17T12:01:07.000Z</time>
      </trkpt>
      <trkpt lat="50.58765" lon="3.42616">
        <ele>59</ele>
        <time>2017-09-17T12:01:13.000Z</time>
      </trkpt>
      <trkpt lat="50.5878" lon="3.42602">
        <ele>59</ele>
        <time>2017-09-17T12:01:19.000Z</time>
      </trkpt>
      <trkpt lat="50.58779" lon="3.42589">
        <ele>60</ele>
        <time>2017-09-17T12:01:22.000Z</time>
      </trkpt>
      <trkpt lat="50.58772" lon="3.42565">
        <ele>62</ele>
        <time>2017-09-17T12:01:28.000Z</time>
      </trkpt>
      <trkpt lat="50.58777" lon="3.42555">
        <ele>62</ele>
        <time>2017-09-17T12:01:31.000Z</time>
      </trkpt>
      <trkpt lat="50.58792" lon="3.42546">
        <ele>61</ele>
        <time>2017-09-17T12:01:37.000Z</time>
      </trkpt>
      <trkpt lat="50.58814" lon="3.42559">
        <ele>60</ele>
        <time>2017-09-17T12:01:43.000Z</time>
      </trkpt>
      <trkpt lat="50.5882" lon="3.42571">
        <ele>60</ele>
        <time>2017-09-17T12:01:46.000Z</time>
      </trkpt>
      <trkpt lat="50.58823" lon="3.42584">
        <ele>61</ele>
        <time>2017-09-17T12:01:49.000Z</time>
      </trkpt>
      <trkpt lat="50.58838" lon="3.42608">
        <ele>59</ele>
        <time>2017-09-17T12:01:55.000Z</time>
      </trkpt>
      <trkpt lat="50.58846" lon="3.42635">
        <ele>63</ele>
        <time>2017-09-17T12:02:01.000Z</time>
      </trkpt>
      <trkpt lat="50.58862" lon="3.42659">
        <ele>59</ele>
        <time>2017-09-17T12:02:07.000Z</time>
      </trkpt>
      <trkpt lat="50.58874" lon="3.4269">
        <ele>57</ele>
        <time>2017-09-17T12:02:13.000Z</time>
      </trkpt>
      <trkpt lat="50.58882" lon="3.42705">
        <ele>57</ele>
        <time>2017-09-17T12:02:16.000Z</time>
      </trkpt>
      <trkpt lat="50.58895" lon="3.42724">
        <ele>57</ele>
        <time>2017-09-17T12:02:19.000Z</time>
      </trkpt>
      <trkpt lat="50.58914" lon="3.42752">
        <ele>59</ele>
        <time>2017-09-17T12:02:25.000Z</time>
      </trkpt>
      <trkpt lat="50.58919" lon="3.42739">
        <ele>62</ele>
        <time>2017-09-17T12:02:28.000Z</time>
      </trkpt>
      <trkpt lat="50.58931" lon="3.42714">
        <ele>62</ele>
        <time>2017-09-17T12:02:34.000Z</time>
      </trkpt>
      <trkpt lat="50.58931" lon="3.427">
        <ele>63</ele>
        <time>2017-09-17T12:02:37.000Z</time>
      </trkpt>
      <trkpt lat="50.58917" lon="3.42676">
        <ele>57</ele>
        <time>2017-09-17T12:02:43.000Z</time>
      </trkpt>
      <trkpt lat="50.58897" lon="3.42646">
        <ele>57</ele>
        <time>2017-09-17T12:02:49.000Z</time>
      </trkpt>
      <trkpt lat="50.58886" lon="3.42627">
        <ele>56</ele>
        <time>2017-09-17T12:02:55.000Z</time>
      </trkpt>
      <trkpt lat="50.58889" lon="3.42613">
        <ele>56</ele>
        <time>2017-09-17T12:02:58.000Z</time>
      </trkpt>
      <trkpt lat="50.58895" lon="3.42601">
        <ele>59</ele>
        <time>2017-09-17T12:03:04.000Z</time>
      </trkpt>
      <trkpt lat="50.58906" lon="3.42579">
        <ele>62</ele>
        <time>2017-09-17T12:03:46.000Z</time>
      </trkpt>
      <trkpt lat="50.58921" lon="3.42552">
        <ele>60</ele>
        <time>2017-09-17T12:03:52.000Z</time>
      </trkpt>
      <trkpt lat="50.58929" lon="3.42536">
        <ele>60</ele>
        <time>2017-09-17T12:03:55.000Z</time>
      </trkpt>
      <trkpt lat="50.58937" lon="3.42519">
        <ele>65</ele>
        <time>2017-09-17T12:03:58.000Z</time>
      </trkpt>
      <trkpt lat="50.5895" lon="3.42489">
        <ele>65</ele>
        <time>2017-09-17T12:04:04.000Z</time>
      </trkpt>
      <trkpt lat="50.5896" lon="3.42474">
        <ele>64</ele>
        <time>2017-09-17T12:04:07.000Z</time>
      </trkpt>
      <trkpt lat="50.58971" lon="3.42446">
        <ele>61</ele>
        <time>2017-09-17T12:04:13.000Z</time>
      </trkpt>
      <trkpt lat="50.58976" lon="3.42427">
        <ele>59</ele>
        <time>2017-09-17T12:04:16.000Z</time>
      </trkpt>
      <trkpt lat="50.58986" lon="3.42417">
        <ele>58</ele>
        <time>2017-09-17T12:04:19.000Z</time>
      </trkpt>
      <trkpt lat="50.58999" lon="3.42387">
        <ele>59</ele>
        <time>2017-09-17T12:04:25.000Z</time>
      </trkpt>
      <trkpt lat="50.59007" lon="3.42373">
        <ele>58</ele>
        <time>2017-09-17T12:04:28.000Z</time>
      </trkpt>
      <trkpt lat="50.59016" lon="3.42356">
        <ele>58</ele>
        <time>2017-09-17T12:04:31.000Z</time>
      </trkpt>
      <trkpt lat="50.59023" lon="3.42343">
        <ele>53</ele>
        <time>2017-09-17T12:04:34.000Z</time>
      </trkpt>
      <trkpt lat="50.59041" lon="3.42319">
        <ele>53</ele>
        <time>2017-09-17T12:04:40.000Z</time>
      </trkpt>
      <trkpt lat="50.59059" lon="3.42288">
        <ele>56</ele>
        <time>2017-09-17T12:04:47.000Z</time>
      </trkpt>
      <trkpt lat="50.59071" lon="3.42259">
        <ele>56</ele>
        <time>2017-09-17T12:04:52.000Z</time>
      </trkpt>
      <trkpt lat="50.59079" lon="3.42244">
        <ele>55</ele>
        <time>2017-09-17T12:04:55.000Z</time>
      </trkpt>
      <trkpt lat="50.59095" lon="3.42216">
        <ele>56</ele>
        <time>2017-09-17T12:05:01.000Z</time>
      </trkpt>
      <trkpt lat="50.59108" lon="3.42183">
        <ele>56</ele>
        <time>2017-09-17T12:05:07.000Z</time>
      </trkpt>
      <trkpt lat="50.59124" lon="3.42154">
        <ele>56</ele>
        <time>2017-09-17T12:05:13.000Z</time>
      </trkpt>
      <trkpt lat="50.59134" lon="3.42141">
        <ele>58</ele>
        <time>2017-09-17T12:05:16.000Z</time>
      </trkpt>
      <trkpt lat="50.59141" lon="3.42128">
        <ele>56</ele>
        <time>2017-09-17T12:05:19.000Z</time>
      </trkpt>
      <trkpt lat="50.59149" lon="3.42104">
        <ele>60</ele>
        <time>2017-09-17T12:05:23.000Z</time>
      </trkpt>
      <trkpt lat="50.59156" lon="3.42074">
        <ele>61</ele>
        <time>2017-09-17T12:05:28.000Z</time>
      </trkpt>
      <trkpt lat="50.59165" lon="3.42058">
        <ele>62</ele>
        <time>2017-09-17T12:05:31.000Z</time>
      </trkpt>
      <trkpt lat="50.59179" lon="3.4203">
        <ele>61</ele>
        <time>2017-09-17T12:05:37.000Z</time>
      </trkpt>
      <trkpt lat="50.59193" lon="3.41998">
        <ele>58</ele>
        <time>2017-09-17T12:05:43.000Z</time>
      </trkpt>
      <trkpt lat="50.59199" lon="3.41981">
        <ele>58</ele>
        <time>2017-09-17T12:05:46.000Z</time>
      </trkpt>
      <trkpt lat="50.59214" lon="3.41947">
        <ele>62</ele>
        <time>2017-09-17T12:05:52.000Z</time>
      </trkpt>
      <trkpt lat="50.59231" lon="3.41916">
        <ele>60</ele>
        <time>2017-09-17T12:05:58.000Z</time>
      </trkpt>
      <trkpt lat="50.59245" lon="3.41877">
        <ele>58</ele>
        <time>2017-09-17T12:06:05.000Z</time>
      </trkpt>
      <trkpt lat="50.59256" lon="3.41847">
        <ele>58</ele>
        <time>2017-09-17T12:06:10.000Z</time>
      </trkpt>
      <trkpt lat="50.59262" lon="3.41829">
        <ele>58</ele>
        <time>2017-09-17T12:06:13.000Z</time>
      </trkpt>
      <trkpt lat="50.59268" lon="3.41812">
        <ele>58</ele>
        <time>2017-09-17T12:06:16.000Z</time>
      </trkpt>
      <trkpt lat="50.59277" lon="3.41793">
        <ele>61</ele>
        <time>2017-09-17T12:06:19.000Z</time>
      </trkpt>
      <trkpt lat="50.59292" lon="3.41761">
        <ele>61</ele>
        <time>2017-09-17T12:06:25.000Z</time>
      </trkpt>
      <trkpt lat="50.59298" lon="3.41743">
        <ele>62</ele>
        <time>2017-09-17T12:06:28.000Z</time>
      </trkpt>
      <trkpt lat="50.59307" lon="3.41726">
        <ele>62</ele>
        <time>2017-09-17T12:06:31.000Z</time>
      </trkpt>
      <trkpt lat="50.59324" lon="3.41693">
        <ele>63</ele>
        <time>2017-09-17T12:06:37.000Z</time>
      </trkpt>
      <trkpt lat="50.5934" lon="3.41666">
        <ele>61</ele>
        <time>2017-09-17T12:06:43.000Z</time>
      </trkpt>
      <trkpt lat="50.59355" lon="3.41631">
        <ele>60</ele>
        <time>2017-09-17T12:06:49.000Z</time>
      </trkpt>
      <trkpt lat="50.59367" lon="3.41593">
        <ele>63</ele>
        <time>2017-09-17T12:06:55.000Z</time>
      </trkpt>
      <trkpt lat="50.59374" lon="3.41577">
        <ele>59</ele>
        <time>2017-09-17T12:06:58.000Z</time>
      </trkpt>
      <trkpt lat="50.59382" lon="3.41559">
        <ele>58</ele>
        <time>2017-09-17T12:07:01.000Z</time>
      </trkpt>
      <trkpt lat="50.59388" lon="3.41542">
        <ele>57</ele>
        <time>2017-09-17T12:07:04.000Z</time>
      </trkpt>
      <trkpt lat="50.59405" lon="3.41511">
        <ele>59</ele>
        <time>2017-09-17T12:07:10.000Z</time>
      </trkpt>
      <trkpt lat="50.59417" lon="3.41476">
        <ele>58</ele>
        <time>2017-09-17T12:07:16.000Z</time>
      </trkpt>
      <trkpt lat="50.59429" lon="3.41441">
        <ele>60</ele>
        <time>2017-09-17T12:07:22.000Z</time>
      </trkpt>
      <trkpt lat="50.59444" lon="3.4141">
        <ele>59</ele>
        <time>2017-09-17T12:07:28.000Z</time>
      </trkpt>
      <trkpt lat="50.59459" lon="3.41377">
        <ele>58</ele>
        <time>2017-09-17T12:07:34.000Z</time>
      </trkpt>
      <trkpt lat="50.59464" lon="3.41354">
        <ele>61</ele>
        <time>2017-09-17T12:07:37.000Z</time>
      </trkpt>
      <trkpt lat="50.59481" lon="3.41328">
        <ele>60</ele>
        <time>2017-09-17T12:07:43.000Z</time>
      </trkpt>
      <trkpt lat="50.59489" lon="3.4131">
        <ele>60</ele>
        <time>2017-09-17T12:07:46.000Z</time>
      </trkpt>
      <trkpt lat="50.59501" lon="3.41274">
        <ele>57</ele>
        <time>2017-09-17T12:07:52.000Z</time>
      </trkpt>
      <trkpt lat="50.5951" lon="3.4126">
        <ele>58</ele>
        <time>2017-09-17T12:07:55.000Z</time>
      </trkpt>
      <trkpt lat="50.59524" lon="3.41226">
        <ele>58</ele>
        <time>2017-09-17T12:08:01.000Z</time>
      </trkpt>
      <trkpt lat="50.59537" lon="3.41195">
        <ele>58</ele>
        <time>2017-09-17T12:08:07.000Z</time>
      </trkpt>
      <trkpt lat="50.59547" lon="3.41183">
        <ele>54</ele>
        <time>2017-09-17T12:08:10.000Z</time>
      </trkpt>
      <trkpt lat="50.59566" lon="3.41159">
        <ele>60</ele>
        <time>2017-09-17T12:08:16.000Z</time>
      </trkpt>
      <trkpt lat="50.59574" lon="3.41136">
        <ele>59</ele>
        <time>2017-09-17T12:08:20.000Z</time>
      </trkpt>
      <trkpt lat="50.59583" lon="3.41122">
        <ele>56</ele>
        <time>2017-09-17T12:08:23.000Z</time>
      </trkpt>
      <trkpt lat="50.59596" lon="3.41094">
        <ele>58</ele>
        <time>2017-09-17T12:08:29.000Z</time>
      </trkpt>
      <trkpt lat="50.5961" lon="3.41074">
        <ele>61</ele>
        <time>2017-09-17T12:08:34.000Z</time>
      </trkpt>
      <trkpt lat="50.5962" lon="3.41064">
        <ele>60</ele>
        <time>2017-09-17T12:08:37.000Z</time>
      </trkpt>
      <trkpt lat="50.59632" lon="3.41053">
        <ele>61</ele>
        <time>2017-09-17T12:08:41.000Z</time>
      </trkpt>
      <trkpt lat="50.59646" lon="3.41034">
        <ele>59</ele>
        <time>2017-09-17T12:08:46.000Z</time>
      </trkpt>
      <trkpt lat="50.59654" lon="3.41021">
        <ele>59</ele>
        <time>2017-09-17T12:08:49.000Z</time>
      </trkpt>
      <trkpt lat="50.5966" lon="3.41007">
        <ele>61</ele>
        <time>2017-09-17T12:08:52.000Z</time>
      </trkpt>
      <trkpt lat="50.59671" lon="3.40998">
        <ele>61</ele>
        <time>2017-09-17T12:08:55.000Z</time>
      </trkpt>
      <trkpt lat="50.59677" lon="3.40985">
        <ele>60</ele>
        <time>2017-09-17T12:08:58.000Z</time>
      </trkpt>
      <trkpt lat="50.59701" lon="3.40969">
        <ele>57</ele>
        <time>2017-09-17T12:09:04.000Z</time>
      </trkpt>
      <trkpt lat="50.5971" lon="3.40957">
        <ele>56</ele>
        <time>2017-09-17T12:09:07.000Z</time>
      </trkpt>
      <trkpt lat="50.59722" lon="3.40943">
        <ele>56</ele>
        <time>2017-09-17T12:09:11.000Z</time>
      </trkpt>
      <trkpt lat="50.59732" lon="3.40927">
        <ele>56</ele>
        <time>2017-09-17T12:09:16.000Z</time>
      </trkpt>
      <trkpt lat="50.59739" lon="3.40916">
        <ele>56</ele>
        <time>2017-09-17T12:09:19.000Z</time>
      </trkpt>
      <trkpt lat="50.59746" lon="3.409">
        <ele>59</ele>
        <time>2017-09-17T12:09:22.000Z</time>
      </trkpt>
      <trkpt lat="50.5975" lon="3.40885">
        <ele>58</ele>
        <time>2017-09-17T12:09:25.000Z</time>
      </trkpt>
      <trkpt lat="50.5976" lon="3.40884">
        <ele>59</ele>
        <time>2017-09-17T12:09:29.000Z</time>
      </trkpt>
      <trkpt lat="50.59766" lon="3.40898">
        <ele>60</ele>
        <time>2017-09-17T12:09:34.000Z</time>
      </trkpt>
      <trkpt lat="50.59773" lon="3.40903">
        <ele>60</ele>
        <time>2017-09-17T12:09:37.000Z</time>
      </trkpt>
      <trkpt lat="50.59781" lon="3.40915">
        <ele>60</ele>
        <time>2017-09-17T12:09:44.000Z</time>
      </trkpt>
      <trkpt lat="50.59781" lon="3.40929">
        <ele>61</ele>
        <time>2017-09-17T12:09:49.000Z</time>
      </trkpt>
      <trkpt lat="50.59778" lon="3.4094">
        <ele>61</ele>
        <time>2017-09-17T12:09:52.000Z</time>
      </trkpt>
      <trkpt lat="50.5977" lon="3.40959">
        <ele>59</ele>
        <time>2017-09-17T12:09:58.000Z</time>
      </trkpt>
      <trkpt lat="50.59769" lon="3.40974">
        <ele>57</ele>
        <time>2017-09-17T12:10:01.000Z</time>
      </trkpt>
      <trkpt lat="50.59773" lon="3.40994">
        <ele>57</ele>
        <time>2017-09-17T12:10:07.000Z</time>
      </trkpt>
      <trkpt lat="50.59778" lon="3.41009">
        <ele>56</ele>
        <time>2017-09-17T12:10:11.000Z</time>
      </trkpt>
      <trkpt lat="50.59782" lon="3.41024">
        <ele>58</ele>
        <time>2017-09-17T12:10:16.000Z</time>
      </trkpt>
      <trkpt lat="50.59784" lon="3.41047">
        <ele>64</ele>
        <time>2017-09-17T12:10:23.000Z</time>
      </trkpt>
      <trkpt lat="50.59785" lon="3.41056">
        <ele>63</ele>
        <time>2017-09-17T12:10:26.000Z</time>
      </trkpt>
      <trkpt lat="50.59791" lon="3.41071">
        <ele>62</ele>
        <time>2017-09-17T12:10:32.000Z</time>
      </trkpt>
      <trkpt lat="50.59797" lon="3.41069">
        <ele>62</ele>
        <time>2017-09-17T12:10:35.000Z</time>
      </trkpt>
      <trkpt lat="50.59801" lon="3.41063">
        <ele>62</ele>
        <time>2017-09-17T12:10:38.000Z</time>
      </trkpt>
      <trkpt lat="50.59804" lon="3.41053">
        <ele>62</ele>
        <time>2017-09-17T12:10:41.000Z</time>
      </trkpt>
      <trkpt lat="50.59812" lon="3.41032">
        <ele>65</ele>
        <time>2017-09-17T12:10:47.000Z</time>
      </trkpt>
      <trkpt lat="50.59826" lon="3.4103">
        <ele>66</ele>
        <time>2017-09-17T12:10:53.000Z</time>
      </trkpt>
      <trkpt lat="50.59841" lon="3.41042">
        <ele>68</ele>
        <time>2017-09-17T12:10:59.000Z</time>
      </trkpt>
      <trkpt lat="50.59855" lon="3.41059">
        <ele>72</ele>
        <time>2017-09-17T12:11:05.000Z</time>
      </trkpt>
      <trkpt lat="50.59874" lon="3.41068">
        <ele>65</ele>
        <time>2017-09-17T12:11:11.000Z</time>
      </trkpt>
      <trkpt lat="50.59882" lon="3.41074">
        <ele>64</ele>
        <time>2017-09-17T12:11:14.000Z</time>
      </trkpt>
      <trkpt lat="50.59898" lon="3.41084">
        <ele>67</ele>
        <time>2017-09-17T12:11:20.000Z</time>
      </trkpt>
      <trkpt lat="50.59903" lon="3.41089">
        <ele>67</ele>
        <time>2017-09-17T12:11:23.000Z</time>
      </trkpt>
      <trkpt lat="50.5991" lon="3.41095">
        <ele>69</ele>
        <time>2017-09-17T12:11:29.000Z</time>
      </trkpt>
      <trkpt lat="50.59918" lon="3.41108">
        <ele>73</ele>
        <time>2017-09-17T12:11:35.000Z</time>
      </trkpt>
      <trkpt lat="50.59922" lon="3.41099">
        <ele>70</ele>
        <time>2017-09-17T12:11:38.000Z</time>
      </trkpt>
      <trkpt lat="50.59929" lon="3.41078">
        <ele>69</ele>
        <time>2017-09-17T12:11:41.000Z</time>
      </trkpt>
      <trkpt lat="50.59943" lon="3.41026">
        <ele>68</ele>
        <time>2017-09-17T12:11:47.000Z</time>
      </trkpt>
      <trkpt lat="50.59947" lon="3.40976">
        <ele>66</ele>
        <time>2017-09-17T12:11:53.000Z</time>
      </trkpt>
      <trkpt lat="50.59948" lon="3.40966">
        <ele>67</ele>
        <time>2017-09-17T12:11:56.000Z</time>
      </trkpt>
      <trkpt lat="50.59943" lon="3.40955">
        <ele>67</ele>
        <time>2017-09-17T12:11:59.000Z</time>
      </trkpt>
      <trkpt lat="50.59937" lon="3.40942">
        <ele>67</ele>
        <time>2017-09-17T12:12:02.000Z</time>
      </trkpt>
      <trkpt lat="50.59929" lon="3.40916">
        <ele>67</ele>
        <time>2017-09-17T12:12:08.000Z</time>
      </trkpt>
      <trkpt lat="50.59925" lon="3.40905">
        <ele>68</ele>
        <time>2017-09-17T12:12:11.000Z</time>
      </trkpt>
      <trkpt lat="50.59926" lon="3.40893">
        <ele>67</ele>
        <time>2017-09-17T12:12:17.000Z</time>
      </trkpt>
      <trkpt lat="50.59934" lon="3.40897">
        <ele>67</ele>
        <time>2017-09-17T12:12:23.000Z</time>
      </trkpt>
      <trkpt lat="50.59951" lon="3.40912">
        <ele>62</ele>
        <time>2017-09-17T12:12:29.000Z</time>
      </trkpt>
      <trkpt lat="50.59963" lon="3.4093">
        <ele>58</ele>
        <time>2017-09-17T12:12:35.000Z</time>
      </trkpt>
      <trkpt lat="50.5997" lon="3.40934">
        <ele>61</ele>
        <time>2017-09-17T12:12:41.000Z</time>
      </trkpt>
      <trkpt lat="50.59979" lon="3.40946">
        <ele>62</ele>
        <time>2017-09-17T12:12:50.000Z</time>
      </trkpt>
      <trkpt lat="50.59989" lon="3.40947">
        <ele>71</ele>
        <time>2017-09-17T12:12:59.000Z</time>
      </trkpt>
      <trkpt lat="50.60003" lon="3.40955">
        <ele>69</ele>
        <time>2017-09-17T12:13:05.000Z</time>
      </trkpt>
      <trkpt lat="50.60011" lon="3.40963">
        <ele>63</ele>
        <time>2017-09-17T12:13:09.000Z</time>
      </trkpt>
      <trkpt lat="50.60016" lon="3.40958">
        <ele>64</ele>
        <time>2017-09-17T12:13:14.000Z</time>
      </trkpt>
      <trkpt lat="50.60015" lon="3.40944">
        <ele>66</ele>
        <time>2017-09-17T12:13:20.000Z</time>
      </trkpt>
      <trkpt lat="50.60014" lon="3.40936">
        <ele>67</ele>
        <time>2017-09-17T12:13:23.000Z</time>
      </trkpt>
      <trkpt lat="50.60014" lon="3.40922">
        <ele>65</ele>
        <time>2017-09-17T12:13:26.000Z</time>
      </trkpt>
      <trkpt lat="50.60011" lon="3.40899">
        <ele>64</ele>
        <time>2017-09-17T12:13:32.000Z</time>
      </trkpt>
      <trkpt lat="50.60012" lon="3.40891">
        <ele>62</ele>
        <time>2017-09-17T12:13:35.000Z</time>
      </trkpt>
      <trkpt lat="50.60015" lon="3.40869">
        <ele>60</ele>
        <time>2017-09-17T12:13:41.000Z</time>
      </trkpt>
      <trkpt lat="50.60023" lon="3.40849">
        <ele>59</ele>
        <time>2017-09-17T12:13:47.000Z</time>
      </trkpt>
      <trkpt lat="50.60022" lon="3.40839">
        <ele>61</ele>
        <time>2017-09-17T12:13:50.000Z</time>
      </trkpt>
      <trkpt lat="50.60011" lon="3.40818">
        <ele>64</ele>
        <time>2017-09-17T12:13:56.000Z</time>
      </trkpt>
      <trkpt lat="50.60009" lon="3.40792">
        <ele>58</ele>
        <time>2017-09-17T12:14:02.000Z</time>
      </trkpt>
      <trkpt lat="50.60014" lon="3.40776">
        <ele>60</ele>
        <time>2017-09-17T12:14:08.000Z</time>
      </trkpt>
      <trkpt lat="50.60011" lon="3.40768">
        <ele>60</ele>
        <time>2017-09-17T12:14:11.000Z</time>
      </trkpt>
      <trkpt lat="50.6" lon="3.40755">
        <ele>60</ele>
        <time>2017-09-17T12:14:17.000Z</time>
      </trkpt>
      <trkpt lat="50.59995" lon="3.40746">
        <ele>60</ele>
        <time>2017-09-17T12:14:20.000Z</time>
      </trkpt>
      <trkpt lat="50.59988" lon="3.40733">
        <ele>58</ele>
        <time>2017-09-17T12:14:26.000Z</time>
      </trkpt>
      <trkpt lat="50.59984" lon="3.40728">
        <ele>59</ele>
        <time>2017-09-17T12:14:29.000Z</time>
      </trkpt>
      <trkpt lat="50.59982" lon="3.40721">
        <ele>59</ele>
        <time>2017-09-17T12:14:32.000Z</time>
      </trkpt>
      <trkpt lat="50.59974" lon="3.40709">
        <ele>59</ele>
        <time>2017-09-17T12:14:38.000Z</time>
      </trkpt>
      <trkpt lat="50.59969" lon="3.40702">
        <ele>59</ele>
        <time>2017-09-17T12:14:41.000Z</time>
      </trkpt>
      <trkpt lat="50.59957" lon="3.40685">
        <ele>57</ele>
        <time>2017-09-17T12:14:47.000Z</time>
      </trkpt>
      <trkpt lat="50.59945" lon="3.40681">
        <ele>55</ele>
        <time>2017-09-17T12:14:50.000Z</time>
      </trkpt>
      <trkpt lat="50.5993" lon="3.40676">
        <ele>55</ele>
        <time>2017-09-17T12:14:53.000Z</time>
      </trkpt>
      <trkpt lat="50.59924" lon="3.40669">
        <ele>54</ele>
        <time>2017-09-17T12:14:56.000Z</time>
      </trkpt>
      <trkpt lat="50.59921" lon="3.40661">
        <ele>57</ele>
        <time>2017-09-17T12:14:59.000Z</time>
      </trkpt>
      <trkpt lat="50.5993" lon="3.40641">
        <ele>58</ele>
        <time>2017-09-17T12:15:05.000Z</time>
      </trkpt>
      <trkpt lat="50.59943" lon="3.40617">
        <ele>55</ele>
        <time>2017-09-17T12:15:11.000Z</time>
      </trkpt>
      <trkpt lat="50.5995" lon="3.40605">
        <ele>56</ele>
        <time>2017-09-17T12:15:14.000Z</time>
      </trkpt>
      <trkpt lat="50.59956" lon="3.40581">
        <ele>55</ele>
        <time>2017-09-17T12:15:20.000Z</time>
      </trkpt>
      <trkpt lat="50.5995" lon="3.40574">
        <ele>53</ele>
        <time>2017-09-17T12:15:23.000Z</time>
      </trkpt>
      <trkpt lat="50.59939" lon="3.40566">
        <ele>51</ele>
        <time>2017-09-17T12:15:26.000Z</time>
      </trkpt>
      <trkpt lat="50.59918" lon="3.4055">
        <ele>52</ele>
        <time>2017-09-17T12:15:32.000Z</time>
      </trkpt>
      <trkpt lat="50.5991" lon="3.4054">
        <ele>54</ele>
        <time>2017-09-17T12:15:35.000Z</time>
      </trkpt>
      <trkpt lat="50.59896" lon="3.40524">
        <ele>54</ele>
        <time>2017-09-17T12:15:41.000Z</time>
      </trkpt>
      <trkpt lat="50.59896" lon="3.40514">
        <ele>56</ele>
        <time>2017-09-17T12:15:44.000Z</time>
      </trkpt>
      <trkpt lat="50.59904" lon="3.40485">
        <ele>57</ele>
        <time>2017-09-17T12:15:50.000Z</time>
      </trkpt>
      <trkpt lat="50.59913" lon="3.40457">
        <ele>57</ele>
        <time>2017-09-17T12:15:56.000Z</time>
      </trkpt>
      <trkpt lat="50.59925" lon="3.40427">
        <ele>59</ele>
        <time>2017-09-17T12:16:02.000Z</time>
      </trkpt>
      <trkpt lat="50.59931" lon="3.40412">
        <ele>60</ele>
        <time>2017-09-17T12:16:05.000Z</time>
      </trkpt>
      <trkpt lat="50.5994" lon="3.40385">
        <ele>56</ele>
        <time>2017-09-17T12:16:11.000Z</time>
      </trkpt>
      <trkpt lat="50.59946" lon="3.40353">
        <ele>56</ele>
        <time>2017-09-17T12:16:17.000Z</time>
      </trkpt>
      <trkpt lat="50.5995" lon="3.40338">
        <ele>56</ele>
        <time>2017-09-17T12:16:20.000Z</time>
      </trkpt>
      <trkpt lat="50.59961" lon="3.40311">
        <ele>56</ele>
        <time>2017-09-17T12:16:26.000Z</time>
      </trkpt>
      <trkpt lat="50.59975" lon="3.40283">
        <ele>57</ele>
        <time>2017-09-17T12:16:32.000Z</time>
      </trkpt>
      <trkpt lat="50.59986" lon="3.40256">
        <ele>60</ele>
        <time>2017-09-17T12:16:38.000Z</time>
      </trkpt>
      <trkpt lat="50.59993" lon="3.40244">
        <ele>61</ele>
        <time>2017-09-17T12:16:41.000Z</time>
      </trkpt>
      <trkpt lat="50.60011" lon="3.40219">
        <ele>57</ele>
        <time>2017-09-17T12:16:47.000Z</time>
      </trkpt>
      <trkpt lat="50.60018" lon="3.40204">
        <ele>53</ele>
        <time>2017-09-17T12:16:50.000Z</time>
      </trkpt>
      <trkpt lat="50.60028" lon="3.40188">
        <ele>54</ele>
        <time>2017-09-17T12:16:56.000Z</time>
      </trkpt>
      <trkpt lat="50.60044" lon="3.40169">
        <ele>55</ele>
        <time>2017-09-17T12:17:05.000Z</time>
      </trkpt>
      <trkpt lat="50.60062" lon="3.40135">
        <ele>54</ele>
        <time>2017-09-17T12:17:11.000Z</time>
      </trkpt>
      <trkpt lat="50.6008" lon="3.40107">
        <ele>50</ele>
        <time>2017-09-17T12:17:17.000Z</time>
      </trkpt>
      <trkpt lat="50.60099" lon="3.40076">
        <ele>53</ele>
        <time>2017-09-17T12:17:23.000Z</time>
      </trkpt>
      <trkpt lat="50.60108" lon="3.40065">
        <ele>55</ele>
        <time>2017-09-17T12:17:26.000Z</time>
      </trkpt>
      <trkpt lat="50.60117" lon="3.40051">
        <ele>57</ele>
        <time>2017-09-17T12:17:29.000Z</time>
      </trkpt>
      <trkpt lat="50.60128" lon="3.40036">
        <ele>59</ele>
        <time>2017-09-17T12:17:32.000Z</time>
      </trkpt>
      <trkpt lat="50.60151" lon="3.40012">
        <ele>57</ele>
        <time>2017-09-17T12:17:38.000Z</time>
      </trkpt>
      <trkpt lat="50.60163" lon="3.40001">
        <ele>59</ele>
        <time>2017-09-17T12:17:41.000Z</time>
      </trkpt>
      <trkpt lat="50.60175" lon="3.39993">
        <ele>61</ele>
        <time>2017-09-17T12:17:44.000Z</time>
      </trkpt>
      <trkpt lat="50.60204" lon="3.39978">
        <ele>58</ele>
        <time>2017-09-17T12:17:50.000Z</time>
      </trkpt>
      <trkpt lat="50.60217" lon="3.39969">
        <ele>54</ele>
        <time>2017-09-17T12:17:53.000Z</time>
      </trkpt>
      <trkpt lat="50.60231" lon="3.3996">
        <ele>54</ele>
        <time>2017-09-17T12:17:56.000Z</time>
      </trkpt>
      <trkpt lat="50.60244" lon="3.39948">
        <ele>51</ele>
        <time>2017-09-17T12:17:59.000Z</time>
      </trkpt>
      <trkpt lat="50.6027" lon="3.39931">
        <ele>53</ele>
        <time>2017-09-17T12:18:05.000Z</time>
      </trkpt>
      <trkpt lat="50.60283" lon="3.39923">
        <ele>55</ele>
        <time>2017-09-17T12:18:08.000Z</time>
      </trkpt>
      <trkpt lat="50.60309" lon="3.39897">
        <ele>59</ele>
        <time>2017-09-17T12:18:14.000Z</time>
      </trkpt>
      <trkpt lat="50.60322" lon="3.39888">
        <ele>56</ele>
        <time>2017-09-17T12:18:17.000Z</time>
      </trkpt>
      <trkpt lat="50.60334" lon="3.39877">
        <ele>55</ele>
        <time>2017-09-17T12:18:20.000Z</time>
      </trkpt>
      <trkpt lat="50.60361" lon="3.39854">
        <ele>54</ele>
        <time>2017-09-17T12:18:26.000Z</time>
      </trkpt>
      <trkpt lat="50.60373" lon="3.39842">
        <ele>55</ele>
        <time>2017-09-17T12:18:29.000Z</time>
      </trkpt>
      <trkpt lat="50.604" lon="3.39817">
        <ele>58</ele>
        <time>2017-09-17T12:18:35.000Z</time>
      </trkpt>
      <trkpt lat="50.60413" lon="3.39806">
        <ele>59</ele>
        <time>2017-09-17T12:18:38.000Z</time>
      </trkpt>
      <trkpt lat="50.60439" lon="3.39783">
        <ele>59</ele>
        <time>2017-09-17T12:18:44.000Z</time>
      </trkpt>
      <trkpt lat="50.6046" lon="3.39754">
        <ele>58</ele>
        <time>2017-09-17T12:18:50.000Z</time>
      </trkpt>
      <trkpt lat="50.60483" lon="3.39721">
        <ele>56</ele>
        <time>2017-09-17T12:18:56.000Z</time>
      </trkpt>
      <trkpt lat="50.60493" lon="3.39707">
        <ele>57</ele>
        <time>2017-09-17T12:18:59.000Z</time>
      </trkpt>
      <trkpt lat="50.60511" lon="3.39677">
        <ele>57</ele>
        <time>2017-09-17T12:19:05.000Z</time>
      </trkpt>
      <trkpt lat="50.60521" lon="3.3966">
        <ele>60</ele>
        <time>2017-09-17T12:19:08.000Z</time>
      </trkpt>
      <trkpt lat="50.6053" lon="3.39644">
        <ele>60</ele>
        <time>2017-09-17T12:19:11.000Z</time>
      </trkpt>
      <trkpt lat="50.60538" lon="3.39627">
        <ele>59</ele>
        <time>2017-09-17T12:19:14.000Z</time>
      </trkpt>
      <trkpt lat="50.60546" lon="3.39607">
        <ele>60</ele>
        <time>2017-09-17T12:19:17.000Z</time>
      </trkpt>
      <trkpt lat="50.60563" lon="3.3957">
        <ele>61</ele>
        <time>2017-09-17T12:19:23.000Z</time>
      </trkpt>
      <trkpt lat="50.60574" lon="3.39552">
        <ele>61</ele>
        <time>2017-09-17T12:19:26.000Z</time>
      </trkpt>
      <trkpt lat="50.60591" lon="3.3952">
        <ele>63</ele>
        <time>2017-09-17T12:19:32.000Z</time>
      </trkpt>
      <trkpt lat="50.60598" lon="3.39508">
        <ele>62</ele>
        <time>2017-09-17T12:19:35.000Z</time>
      </trkpt>
      <trkpt lat="50.60604" lon="3.39496">
        <ele>61</ele>
        <time>2017-09-17T12:19:41.000Z</time>
      </trkpt>
      <trkpt lat="50.60608" lon="3.39486">
        <ele>61</ele>
        <time>2017-09-17T12:19:44.000Z</time>
      </trkpt>
      <trkpt lat="50.60614" lon="3.39475">
        <ele>61</ele>
        <time>2017-09-17T12:19:47.000Z</time>
      </trkpt>
      <trkpt lat="50.60625" lon="3.39458">
        <ele>61</ele>
        <time>2017-09-17T12:19:53.000Z</time>
      </trkpt>
      <trkpt lat="50.60626" lon="3.3945">
        <ele>60</ele>
        <time>2017-09-17T12:19:56.000Z</time>
      </trkpt>
      <trkpt lat="50.60623" lon="3.39439">
        <ele>61</ele>
        <time>2017-09-17T12:20:02.000Z</time>
      </trkpt>
      <trkpt lat="50.60626" lon="3.39431">
        <ele>61</ele>
        <time>2017-09-17T12:20:05.000Z</time>
      </trkpt>
      <trkpt lat="50.60629" lon="3.39423">
        <ele>59</ele>
        <time>2017-09-17T12:20:08.000Z</time>
      </trkpt>
      <trkpt lat="50.60636" lon="3.39412">
        <ele>59</ele>
        <time>2017-09-17T12:20:11.000Z</time>
      </trkpt>
      <trkpt lat="50.60646" lon="3.39392">
        <ele>58</ele>
        <time>2017-09-17T12:20:17.000Z</time>
      </trkpt>
      <trkpt lat="50.60647" lon="3.39379">
        <ele>60</ele>
        <time>2017-09-17T12:20:20.000Z</time>
      </trkpt>
      <trkpt lat="50.60656" lon="3.39357">
        <ele>58</ele>
        <time>2017-09-17T12:20:26.000Z</time>
      </trkpt>
      <trkpt lat="50.60667" lon="3.39336">
        <ele>57</ele>
        <time>2017-09-17T12:20:32.000Z</time>
      </trkpt>
      <trkpt lat="50.60677" lon="3.39323">
        <ele>53</ele>
        <time>2017-09-17T12:20:35.000Z</time>
      </trkpt>
      <trkpt lat="50.60679" lon="3.39313">
        <ele>53</ele>
        <time>2017-09-17T12:20:38.000Z</time>
      </trkpt>
      <trkpt lat="50.60685" lon="3.39303">
        <ele>55</ele>
        <time>2017-09-17T12:20:41.000Z</time>
      </trkpt>
      <trkpt lat="50.60691" lon="3.39296">
        <ele>55</ele>
        <time>2017-09-17T12:20:44.000Z</time>
      </trkpt>
      <trkpt lat="50.60696" lon="3.39293">
        <ele>57</ele>
        <time>2017-09-17T12:20:47.000Z</time>
      </trkpt>
      <trkpt lat="50.60706" lon="3.39288">
        <ele>55</ele>
        <time>2017-09-17T12:20:53.000Z</time>
      </trkpt>
      <trkpt lat="50.60721" lon="3.39272">
        <ele>58</ele>
        <time>2017-09-17T12:20:59.000Z</time>
      </trkpt>
      <trkpt lat="50.60736" lon="3.39256">
        <ele>57</ele>
        <time>2017-09-17T12:21:05.000Z</time>
      </trkpt>
      <trkpt lat="50.60752" lon="3.39237">
        <ele>58</ele>
        <time>2017-09-17T12:21:11.000Z</time>
      </trkpt>
      <trkpt lat="50.60764" lon="3.39223">
        <ele>57</ele>
        <time>2017-09-17T12:21:17.000Z</time>
      </trkpt>
      <trkpt lat="50.60777" lon="3.39214">
        <ele>57</ele>
        <time>2017-09-17T12:21:23.000Z</time>
      </trkpt>
      <trkpt lat="50.60782" lon="3.39207">
        <ele>58</ele>
        <time>2017-09-17T12:21:26.000Z</time>
      </trkpt>
      <trkpt lat="50.60788" lon="3.39201">
        <ele>59</ele>
        <time>2017-09-17T12:21:29.000Z</time>
      </trkpt>
      <trkpt lat="50.6079" lon="3.39187">
        <ele>60</ele>
        <time>2017-09-17T12:21:35.000Z</time>
      </trkpt>
      <trkpt lat="50.60794" lon="3.3918">
        <ele>60</ele>
        <time>2017-09-17T12:21:38.000Z</time>
      </trkpt>
      <trkpt lat="50.60801" lon="3.39174">
        <ele>58</ele>
        <time>2017-09-17T12:21:41.000Z</time>
      </trkpt>
      <trkpt lat="50.60817" lon="3.39157">
        <ele>60</ele>
        <time>2017-09-17T12:21:47.000Z</time>
      </trkpt>
      <trkpt lat="50.60832" lon="3.39142">
        <ele>60</ele>
        <time>2017-09-17T12:21:53.000Z</time>
      </trkpt>
      <trkpt lat="50.60838" lon="3.39133">
        <ele>60</ele>
        <time>2017-09-17T12:21:56.000Z</time>
      </trkpt>
      <trkpt lat="50.60843" lon="3.39126">
        <ele>59</ele>
        <time>2017-09-17T12:21:59.000Z</time>
      </trkpt>
      <trkpt lat="50.60849" lon="3.39114">
        <ele>59</ele>
        <time>2017-09-17T12:22:05.000Z</time>
      </trkpt>
      <trkpt lat="50.60835" lon="3.39097">
        <ele>60</ele>
        <time>2017-09-17T12:22:11.000Z</time>
      </trkpt>
      <trkpt lat="50.60828" lon="3.39092">
        <ele>59</ele>
        <time>2017-09-17T12:22:14.000Z</time>
      </trkpt>
      <trkpt lat="50.60822" lon="3.39099">
        <ele>59</ele>
        <time>2017-09-17T12:22:20.000Z</time>
      </trkpt>
    </trkseg>
  </trk>
</gpx>